[[{"header":{"parameterUnit":"m.s-1","parameterCategory":1,"la1":30.6,"la2":28.766,"lo1":-90.7593,"lo2":-88.6598,"dy":0.0162,"dx":0.0183,"nx":116,"ny":114,"refTime":"2023-07-16T12:00:00:Z","depth":0,"parameterNumber":2,"parameterNumberName":"U-component_of_WINDS"},"data":[0.0,0.0,0.0,0.0,0.0,0.0,0.0,0.0,0.0,0.0,0.0,0.0,0.0,0.0,0.0,0.0,0.0,0.0,0.0,0.0,0.0,0.0,0.0,0.0,0.0,0.0,0.0,0.0,0.0,0.0,0.0,0.0,0.0,0.0,0.0,0.0,0.0,0.0,0.0,0.0,0.0,0.0,0.0,0.0,0.0,0.0,0.0,0.0,0.0,0.0,0.0,0.0,0.0,0.0,0.0,0.0,0.0,0.0,0.0,0.0,0.0,0.0,0.0,0.0,0.0,0.0,0.0,0.0,0.0,0.0,0.0,0.0,0.0,0.0,0.0,0.0,0.0,0.0,0.0,0.0,0.0,0.0,0.0,0.0,0.0,0.0,0.0,0.0,0.0,0.0,0.0,0.0,0.0,0.0,0.0,0.0,0.0,0.0,0.0,0.0,0.0,0.0,0.0,0.0,0.0,0.0,0.0,0.0,0.0,0.0,0.0,0.0,0.0,0.0,0.0,0.0,0.0,0.0,0.0,0.0,0.0,0.0,0.0,0.0,0.0,0.0,0.0,0.0,0.0,0.0,0.0,0.0,0.0,0.0,0.0,0.0,0.0,0.0,0.0,0.0,0.0,0.0,0.0,0.0,0.0,0.0,0.0,0.0,0.0,0.0,0.0,0.0,0.0,0.0,0.0,0.0,0.0,0.0,0.0,0.0,0.0,0.0,0.0,0.0,0.0,0.0,0.0,0.0,0.0,0.0,0.0,0.0,0.0,0.0,0.0,0.0,0.0,0.0,0.0,0.0,0.0,0.0,0.0,0.0,0.0,0.0,0.0,0.0,0.0,0.0,0.0,0.0,0.0,0.0,0.0,0.0,0.0,0.0,0.0,0.0,0.0,0.0,0.0,0.0,0.0,0.0,0.0,0.0,0.0,0.0,0.0,0.0,0.0,0.0,0.0,0.0,0.0,0.0,0.0,0.0,0.0,0.0,0.0,0.0,0.0,0.0,0.0,0.0,0.0,0.0,0.0,0.0,0.0,0.0,0.0,0.0,0.0,0.0,0.0,0.0,0.0,0.0,0.0,0.0,0.0,0.0,0.0,0.0,0.0,0.0,0.0,0.0,0.0,0.0,0.0,0.0,0.0,0.0,0.0,0.0,0.0,0.0,0.0,0.0,0.0,0.0,0.0,0.0,0.0,0.0,0.0,0.0,0.0,0.0,0.0,0.0,0.0,0.0,0.0,0.0,0.0,0.0,0.0,0.0,0.0,0.0,0.0,0.0,0.0,0.0,0.0,0.0,0.0,0.0,0.0,0.0,0.0,0.0,0.0,0.0,0.0,0.0,0.0,0.0,0.0,0.0,0.0,0.0,0.0,0.0,0.0,0.0,0.0,0.0,0.0,0.0,0.0,0.0,0.0,0.0,0.0,0.0,0.0,0.0,0.0,0.0,0.0,0.0,0.0,0.0,0.0,0.0,0.0,0.0,0.0,0.0,0.0,0.0,0.0,0.0,0.0,0.0,0.0,0.0,0.0,0.0,0.0,0.0,0.0,0.0,0.0,0.0,0.0,0.0,0.0,0.0,0.0,0.0,0.0,0.0,0.0,0.0,0.0,0.0,0.0,0.0,0.0,0.0,0.0,0.0,0.0,0.0,0.0,0.0,0.0,0.0,0.0,0.0,0.0,0.0,0.0,0.0,0.0,0.0,0.0,0.0,0.0,0.0,0.0,0.0,0.0,0.0,0.0,0.0,0.0,0.0,0.0,0.0,0.0,0.0,0.0,0.0,0.0,0.0,0.0,0.0,0.0,0.0,0.0,0.0,0.0,0.0,0.0,0.0,0.0,0.0,0.0,0.0,0.0,0.0,0.0,0.0,0.0,0.0,0.0,0.0,0.0,0.0,0.0,0.0,0.0,0.0,0.0,0.0,0.0,0.0,0.0,0.0,0.0,0.0,0.0,0.0,0.0,0.0,0.0,0.0,0.0,0.0,0.0,0.0,0.0,0.0,0.0,0.0,0.0,0.0,0.0,0.0,0.0,0.0,0.0,0.0,0.0,0.0,0.0,0.0,0.0,0.0,0.0,0.0,0.0,0.0,0.0,0.0,0.0,0.0,0.0,0.0,0.0,0.0,0.0,0.0,0.0,0.0,0.0,0.0,0.0,0.0,0.0,0.0,0.0,0.0,0.0,0.0,0.0,0.0,0.0,0.0,0.0,0.0,0.0,0.0,0.0,0.0,0.0,0.0,0.0,0.0,0.0,0.0,0.0,0.0,0.0,0.0,0.0,0.0,0.0,0.0,0.0,0.0,0.0,0.0,0.0,0.0,0.0,0.0,0.0,0.0,0.0,0.0,0.0,0.0,0.0,0.0,0.0,0.0,0.0,0.0,0.0,0.0,0.0,0.0,0.0,0.0,0.0,0.0,0.0,0.0,0.0,0.0,0.0,0.0,0.0,0.0,0.0,0.0,0.0,0.0,0.0,0.0,0.0,0.0,0.0,0.0,0.0,0.0,0.0,0.0,0.0,0.0,0.0,0.0,0.0,0.0,0.0,0.0,0.0,0.0,0.0,0.0,0.0,0.0,0.0,0.0,0.0,0.0,0.0,0.0,0.0,0.0,0.0,0.0,0.0,0.0,0.0,0.0,0.0,0.0,0.0,0.0,0.0,0.0,0.0,0.0,0.0,0.0,0.0,0.0,0.0,0.0,0.0,0.0,0.0,0.0,0.0,0.0,0.0,0.0,0.0,0.0,0.0,0.0,0.0,0.0,0.0,0.0,0.0,0.0,0.0,0.0,0.0,0.0,0.0,0.0,0.0,0.0,0.0,0.0,0.0,0.0,0.0,0.0,0.0,0.0,0.0,0.0,0.0,0.0,0.0,0.0,0.0,0.0,0.0,0.0,0.0,0.0,0.0,0.0,0.0,0.0,0.0,0.0,0.0,0.0,0.0,0.0,0.0,0.0,0.0,0.0,0.0,0.0,0.0,0.0,0.0,0.0,0.0,0.0,0.0,0.0,0.0,0.0,0.0,0.0,0.0,0.0,0.0,0.0,0.0,0.0,0.0,0.0,0.0,0.0,0.0,0.0,0.0,0.0,0.0,0.0,0.0,0.0,0.0,0.0,0.0,0.0,0.0,0.0,0.0,0.0,0.0,0.0,0.0,0.0,0.0,0.0,0.0,0.0,0.0,0.0,0.0,0.0,0.0,0.0,0.0,0.0,0.0,0.0,0.0,0.0,0.0,0.0,0.0,0.0,0.0,0.0,0.0,0.0,0.0,0.0,0.0,0.0,0.0,0.0,0.0,0.0,0.0,0.0,0.0,0.0,0.0,0.0,0.0,0.0,0.0,0.0,0.0,0.0,0.0,0.0,0.0,0.0,0.0,0.0,0.0,0.0,0.0,0.0,0.0,0.0,0.0,0.0,0.0,0.0,0.0,0.0,0.0,0.0,0.0,0.0,0.0,0.0,0.0,0.0,0.0,0.0,0.0,0.0,0.0,0.0,0.0,0.0,0.0,0.0,0.0,0.0,0.0,0.0,0.0,0.0,0.0,0.0,0.0,0.0,0.0,0.0,0.0,0.0,0.0,0.0,0.0,0.0,0.0,0.0,0.0,0.0,0.0,0.0,0.0,0.0,0.0,0.0,0.0,0.0,0.0,0.0,0.0,0.0,0.0,0.0,0.0,0.0,0.0,0.0,0.0,0.0,0.0,0.0,0.0,0.0,0.0,0.0,0.0,0.0,0.0,0.0,0.0,0.0,0.0,0.0,0.0,0.0,0.0,0.0,0.0,0.0,0.0,0.0,0.0,0.0,0.0,0.0,0.0,0.0,0.0,0.0,0.0,0.0,0.0,0.0,0.0,0.0,0.0,0.0,0.0,0.0,0.0,0.0,0.0,0.0,0.0,0.0,0.0,0.0,0.0,0.0,0.0,0.0,0.0,0.0,0.0,0.0,0.0,0.0,0.0,0.0,0.0,0.0,0.0,0.0,0.0,0.0,0.0,0.0,0.0,0.0,0.0,0.0,0.0,0.0,0.0,0.0,0.0,0.0,0.0,0.0,0.0,0.0,0.0,0.0,0.0,0.0,0.0,0.0,0.0,0.0,0.0,0.0,0.0,0.0,0.0,0.0,0.0,0.0,0.0,0.0,0.0,0.0,0.0,0.0,0.0,0.0,0.0,0.0,0.0,0.0,0.0,0.0,0.0,0.0,0.0,0.0,0.0,0.0,0.0,0.0,0.0,0.0,0.0,0.0,0.0,0.0,0.0,0.0,0.0,0.0,0.0,0.0,0.0,0.0,0.0,0.0,0.0,0.0,0.0,0.0,0.0,0.0,0.0,0.0,0.0,0.0,0.0,0.0,0.0,0.0,0.0,0.0,0.0,0.0,0.0,0.0,0.0,0.0,0.0,0.0,0.0,0.0,0.0,0.0,0.0,0.0,0.0,0.0,0.0,0.0,0.0,0.0,0.0,0.0,0.0,0.0,0.0,0.0,0.0,0.0,0.0,0.0,0.0,0.0,0.0,0.0,0.0,0.0,0.0,0.0,0.0,0.0,0.0,0.0,0.0,0.0,0.0,0.0,0.0,0.0,0.0,0.0,0.0,0.0,0.0,0.0,0.0,0.0,0.0,0.0,0.0,0.0,0.0,0.0,0.0,0.0,0.0,0.0,0.0,0.0,0.0,0.0,0.0,0.0,0.0,0.0,0.0,0.0,0.0,0.0,0.0,0.0,0.0,0.0,0.0,0.0,0.0,0.0,0.0,0.0,0.0,0.0,0.0,0.0,0.0,0.0,0.0,0.0,0.0,0.0,0.0,0.0,0.0,0.0,0.0,0.0,0.0,0.0,0.0,0.0,0.0,0.0,0.0,0.0,0.0,0.0,0.0,0.0,0.0,0.0,0.0,0.0,0.0,0.0,0.0,0.0,0.0,0.0,0.0,0.0,0.0,0.0,0.0,0.0,0.0,0.0,0.0,0.0,0.0,0.0,0.0,0.0,0.0,0.0,0.0,0.0,0.0,0.0,0.0,0.0,0.0,0.0,0.0,0.0,0.0,0.0,0.0,0.0,0.0,0.0,0.0,0.0,0.0,0.0,0.0,0.0,0.0,0.0,0.0,0.0,0.0,0.0,0.0,0.0,0.0,0.0,0.0,0.0,0.0,0.0,0.0,0.0,0.0,0.0,0.0,0.0,0.0,0.0,0.0,0.0,0.0,0.0,0.0,0.0,0.0,0.0,0.0,0.0,0.0,0.0,0.0,0.0,0.0,0.0,0.0,0.0,0.0,0.0,0.0,0.0,0.0,0.0,0.0,0.0,0.0,0.0,0.0,0.0,0.0,0.0,0.0,0.0,0.0,0.0,0.0,0.0,0.0,0.0,0.0,0.0,0.0,0.0,0.0,0.0,0.0,0.0,0.0,0.0,0.0,0.0,0.0,0.0,0.0,0.0,0.0,0.0,0.0,0.0,0.0,0.0,0.0,0.0,0.0,0.0,0.0,0.0,0.0,0.0,0.0,0.0,0.0,0.0,0.0,0.0,0.0,0.0,0.0,0.0,0.0,0.0,0.0,0.0,0.0,0.0,0.0,0.0,0.0,0.0,0.0,0.0,0.0,0.0,0.0,0.0,0.0,0.0,0.0,0.0,0.0,0.0,0.0,0.0,0.0,0.0,0.0,0.0,0.0,0.0,0.0,0.0,0.0,0.0,0.0,0.0,0.0,0.0,0.0,0.0,0.0,0.0,0.0,0.0,0.0,0.0,0.0,0.0,0.0,0.0,0.0,0.0,0.0,0.0,0.0,0.0,0.0,0.0,0.0,0.0,0.0,0.0,0.0,0.0,0.0,0.0,0.0,0.0,0.0,0.0,0.0,0.0,0.0,0.0,0.0,0.0,0.0,0.0,0.0,0.0,0.0,0.0,0.0,0.0,0.0,0.0,0.0,0.0,0.0,0.0,0.0,0.0,0.0,0.0,0.0,0.0,0.0,0.0,0.0,0.0,0.0,0.0,0.0,0.0,0.0,0.0,0.0,0.0,0.0,0.0,0.0,0.0,0.0,0.0,0.0,0.0,0.0,0.0,0.0,0.0,0.0,0.0,0.0,0.0,0.0,0.0,-3.507,0.0,0.0,0.0,0.0,0.0,0.0,0.0,0.0,0.0,0.0,0.0,0.0,0.0,0.0,0.0,0.0,0.0,0.0,0.0,0.0,0.0,0.0,0.0,0.0,0.0,0.0,0.0,0.0,0.0,0.0,0.0,0.0,0.0,0.0,0.0,0.0,0.0,0.0,0.0,0.0,0.0,0.0,0.0,0.0,0.0,0.0,0.0,0.0,0.0,0.0,0.0,0.0,0.0,0.0,0.0,0.0,0.0,0.0,0.0,0.0,0.0,0.0,0.0,0.0,0.0,0.0,0.0,0.0,0.0,0.0,0.0,0.0,0.0,0.0,0.0,0.0,0.0,0.0,0.0,0.0,0.0,0.0,0.0,0.0,0.0,0.0,0.0,0.0,0.0,0.0,0.0,0.0,0.0,0.0,0.0,0.0,0.0,0.0,0.0,0.0,0.0,0.0,0.0,0.0,0.0,0.0,0.0,0.0,0.0,0.0,0.0,0.0,0.0,0.0,0.0,0.0,-3.5504,0.0,0.0,0.0,0.0,0.0,0.0,0.0,0.0,0.0,0.0,0.0,0.0,0.0,0.0,0.0,0.0,0.0,0.0,0.0,0.0,0.0,0.0,0.0,0.0,0.0,0.0,0.0,0.0,0.0,0.0,0.0,0.0,0.0,0.0,0.0,0.0,0.0,0.0,0.0,0.0,0.0,0.0,0.0,0.0,0.0,0.0,0.0,0.0,0.0,0.0,0.0,0.0,0.0,0.0,0.0,0.0,0.0,0.0,0.0,0.0,0.0,0.0,0.0,0.0,0.0,0.0,0.0,0.0,0.0,0.0,0.0,0.0,0.0,0.0,0.0,0.0,0.0,0.0,0.0,0.0,0.0,0.0,0.0,0.0,0.0,0.0,0.0,0.0,0.0,0.0,0.0,0.0,0.0,0.0,0.0,0.0,0.0,0.0,0.0,0.0,0.0,0.0,0.0,0.0,0.0,0.0,0.0,0.0,-3.5504,-3.5504,-3.5504,-3.5504,-3.5504,-3.5504,-3.5504,-3.5504,-3.5504,0.0,0.0,0.0,0.0,0.0,0.0,0.0,0.0,0.0,0.0,0.0,0.0,0.0,0.0,0.0,0.0,0.0,0.0,0.0,0.0,0.0,0.0,0.0,0.0,0.0,0.0,0.0,0.0,0.0,0.0,0.0,0.0,0.0,0.0,0.0,0.0,0.0,0.0,0.0,-3.537,-3.5459,-3.5415,-3.525,-3.525,0.0,0.0,0.0,0.0,0.0,0.0,0.0,0.0,0.0,0.0,0.0,0.0,0.0,0.0,0.0,0.0,0.0,0.0,0.0,0.0,0.0,0.0,0.0,0.0,0.0,0.0,0.0,0.0,0.0,0.0,0.0,0.0,0.0,0.0,0.0,0.0,0.0,0.0,0.0,0.0,0.0,0.0,0.0,-3.4121,-3.3472,0.0,0.0,0.0,0.0,0.0,0.0,0.0,0.0,0.0,0.0,0.0,0.0,0.0,-3.5459,-3.537,-3.5459,-3.5504,-3.5504,-3.5504,-3.5504,-3.5504,-3.5504,-3.5504,-3.5504,-3.5504,0.0,-3.5504,-3.5504,0.0,0.0,0.0,0.0,0.0,0.0,0.0,0.0,0.0,0.0,0.0,0.0,0.0,0.0,0.0,0.0,0.0,0.0,0.0,0.0,0.0,0.0,0.0,0.0,0.0,0.0,0.0,0.0,0.0,0.0,0.0,0.0,0.0,0.0,0.0,0.0,-3.5355,-3.5504,-3.5504,-3.5504,-3.5504,-3.5504,-3.5504,-3.534,-3.5055,-3.5055,0.0,0.0,0.0,0.0,0.0,0.0,0.0,0.0,0.0,0.0,0.0,0.0,0.0,0.0,0.0,0.0,0.0,0.0,0.0,0.0,0.0,0.0,0.0,0.0,0.0,0.0,0.0,0.0,0.0,0.0,0.0,0.0,0.0,0.0,0.0,0.0,0.0,0.0,0.0,-3.4007,-3.3985,-3.4055,-3.4038,-3.4203,0.0,0.0,0.0,0.0,0.0,0.0,0.0,0.0,0.0,-3.5504,-3.5863,-3.6058,-3.6058,-3.6402,-3.6582,-3.6582,-3.6582,-3.6582,-3.6582,-3.6582,-3.6582,-3.6582,-3.6582,-3.6582,-3.6522,-3.5804,-3.5504,-3.5504,0.0,0.0,0.0,0.0,-3.5504,-3.5504,0.0,0.0,0.0,0.0,0.0,0.0,0.0,0.0,0.0,0.0,0.0,0.0,0.0,0.0,0.0,-3.1553,0.0,0.0,0.0,0.0,0.0,0.0,0.0,0.0,0.0,0.0,0.0,-3.5504,-3.5504,-3.5504,-3.5504,-3.5504,-3.5504,-3.5504,-3.5504,-3.5504,-3.5504,-3.5504,-3.5504,0.0,0.0,0.0,0.0,0.0,0.0,0.0,0.0,0.0,0.0,0.0,0.0,0.0,0.0,0.0,0.0,0.0,0.0,0.0,0.0,0.0,0.0,0.0,0.0,0.0,0.0,0.0,0.0,0.0,0.0,0.0,0.0,0.0,0.0,0.0,0.0,0.0,0.0,-3.4227,-3.4188,-3.4713,-3.4773,-3.4936,0.0,0.0,0.0,0.0,0.0,0.0,-3.5744,-3.5759,-3.5833,-3.5983,-3.6462,-3.6806,-3.6971,-3.7434,-3.7749,-3.7913,-3.7913,-3.7913,-3.7913,-3.7913,-3.7823,-3.7659,-3.7659,-3.7569,-3.7315,-3.6207,-3.5759,-3.5744,-3.5564,-3.5504,-3.5504,-3.5504,-3.5504,-3.5504,0.0,0.0,0.0,0.0,0.0,0.0,0.0,0.0,0.0,0.0,0.0,0.0,0.0,0.0,-3.1524,-3.1511,-3.1511,-3.1765,0.0,0.0,0.0,0.0,0.0,0.0,0.0,0.0,0.0,-3.5504,-3.5504,-3.5504,-3.5504,-3.5504,-3.5504,-3.5504,-3.5504,-3.5504,-3.5504,-3.5504,-3.5504,-3.5504,0.0,0.0,0.0,0.0,0.0,0.0,0.0,0.0,0.0,0.0,0.0,0.0,0.0,0.0,0.0,0.0,0.0,0.0,0.0,0.0,0.0,0.0,0.0,0.0,0.0,0.0,0.0,0.0,0.0,0.0,0.0,0.0,0.0,0.0,0.0,0.0,0.0,0.0,0.0,-3.5444,-3.5444,0.0,0.0,0.0,0.0,-3.5504,-3.5504,-3.5774,-3.6402,-3.6432,-3.6701,-3.73,-3.7345,-3.7659,-3.8287,-3.8317,-3.8676,-3.932,-3.932,-3.932,-3.932,-3.932,-3.896,-3.8347,-3.8347,-3.7988,-3.736,-3.6701,-3.6432,-3.6372,-3.5744,-3.5504,-3.5504,-3.5504,-3.5504,-3.5504,0.0,0.0,0.0,0.0,0.0,0.0,0.0,0.0,0.0,0.0,0.0,0.0,0.0,-3.1668,-3.1511,-3.1511,-3.1511,-3.178,-3.2467,0.0,0.0,0.0,0.0,0.0,0.0,0.0,-3.5504,-3.5504,-3.5504,-3.5504,-3.5504,-3.5504,-3.5504,-3.5504,-3.5504,-3.5504,-3.5504,-3.5504,-3.5504,-3.5504,-3.5504,-3.5504,0.0,0.0,0.0,0.0,0.0,0.0,0.0,0.0,0.0,0.0,0.0,0.0,0.0,0.0,0.0,0.0,0.0,0.0,0.0,0.0,0.0,0.0,0.0,0.0,0.0,0.0,0.0,0.0,0.0,0.0,0.0,0.0,0.0,0.0,0.0,0.0,0.0,-3.5504,-3.5504,0.0,-3.5504,-3.5893,-3.6133,-3.6133,-3.6507,-3.6836,-3.706,-3.7479,-3.7808,-3.8033,-3.8886,-3.9454,-3.9679,-4.0113,-4.0442,-4.0681,-4.0681,-4.0681,-4.0681,-4.0681,-4.0546,-4.0322,-4.0322,-4.0187,-3.9918,-3.9275,-3.8242,-3.706,-3.6821,-3.6731,-3.6731,-3.6731,-3.6731,-3.6731,0.0,0.0,0.0,0.0,0.0,0.0,0.0,0.0,0.0,0.0,0.0,-3.2035,-3.1553,-3.1511,-3.1511,-3.1511,-3.1511,-3.1869,-3.2781,0.0,0.0,0.0,0.0,0.0,0.0,-3.5504,-3.5504,-3.5504,-3.5504,-3.5504,-3.5504,-3.5504,-3.5504,-3.5504,-3.5504,-3.5504,-3.5504,-3.5504,-3.5504,-3.5504,-3.5504,-3.5504,-3.5554,0.0,0.0,0.0,0.0,0.0,0.0,0.0,0.0,0.0,0.0,0.0,0.0,0.0,0.0,0.0,0.0,0.0,0.0,0.0,0.0,0.0,0.0,0.0,0.0,0.0,0.0,0.0,0.0,0.0,0.0,0.0,0.0,0.0,0.0,0.0,-3.5504,-3.5504,-3.5699,-3.5833,-3.5833,-3.6417,-3.6896,-3.7105,-3.7509,-3.7943,-3.8392,-3.8826,-3.917,-3.9394,-4.0262,-4.0846,-4.1055,-4.1527,-4.1818,-4.2043,-4.2043,-4.2043,-4.2043,-4.2043,-4.1923,-4.1752,-4.1752,-4.1632,-4.1392,-4.0905,-3.9948,-3.8676,-3.8003,-3.7599,-3.7404,-3.7404,-3.7404,-3.7404,0.0,0.0,0.0,0.0,0.0,0.0,0.0,0.0,0.0,0.0,-3.1923,-3.1511,-3.1511,-3.1511,-3.1511,-3.1511,-3.1525,-3.2079,-3.341,-3.3514,0.0,0.0,0.0,0.0,-3.5504,-3.5504,-3.5504,-3.5504,-3.5504,-3.5504,-3.5504,-3.5504,-3.5504,-3.5504,-3.5504,-3.5504,-3.5504,-3.5504,-3.5504,-3.5504,-3.5504,-3.5504,-3.5504,0.0,0.0,0.0,0.0,0.0,0.0,0.0,0.0,0.0,0.0,0.0,0.0,0.0,0.0,0.0,0.0,0.0,0.0,0.0,0.0,0.0,0.0,0.0,0.0,0.0,0.0,0.0,0.0,0.0,0.0,0.0,0.0,0.0,-3.5504,-3.5519,-3.5534,-3.5534,-3.6118,-3.6522,-3.6552,-3.7105,-3.7749,-3.8407,-3.8467,-3.9065,-4.0382,-4.0487,-4.0786,-4.1444,-4.1527,-4.1841,-4.2485,-4.2485,-4.2761,-4.3349,-4.3349,-4.3349,-4.3349,-4.3349,-4.3045,-4.2485,-4.247,-4.2096,-4.1474,-4.1444,-4.1467,-4.1257,-3.9245,-3.8093,-3.7524,-3.7524,-3.7524,-3.7524,0.0,0.0,0.0,0.0,0.0,0.0,0.0,0.0,0.0,0.0,-3.164,-3.1511,-3.1511,-3.1511,-3.1511,-3.1511,-3.1944,-3.2602,-3.344,0.0,0.0,0.0,0.0,0.0,-3.5504,-3.5504,-3.5504,-3.5504,-3.5504,-3.5504,-3.5504,-3.5504,-3.5504,-3.5504,-3.5504,-3.5504,-3.5504,-3.5504,-3.5504,-3.5504,-3.5504,-3.5504,-3.5504,0.0,0.0,0.0,0.0,0.0,0.0,0.0,0.0,0.0,0.0,0.0,0.0,0.0,0.0,0.0,0.0,0.0,0.0,0.0,0.0,0.0,0.0,0.0,0.0,0.0,0.0,0.0,0.0,0.0,0.0,0.0,0.0,-3.6058,-3.5564,-3.5908,-3.6222,-3.6222,-3.6761,-3.7345,-3.7823,-3.8482,-3.914,-3.9798,-4.0292,-4.0973,-4.1811,-4.2267,-4.2836,-4.3494,-4.3973,-4.4302,-4.4481,-4.4481,-4.4586,-4.4751,-4.4751,-4.4751,-4.4751,-4.4751,-4.4661,-4.4466,-4.3988,-4.3673,-4.3464,-4.2985,-4.2521,-4.2036,-4.0988,-4.0442,-4.0292,-4.0292,-4.0292,-4.0217,0.0,0.0,0.0,0.0,0.0,0.0,0.0,0.0,0.0,0.0,-3.1697,-3.1511,-3.1511,-3.1511,-3.1511,-3.1511,-3.2108,-3.2796,-3.3455,0.0,0.0,0.0,0.0,-3.5504,-3.5504,-3.5504,-3.5504,-3.5504,-3.5504,-3.5504,-3.5504,-3.5504,-3.5504,-3.5504,-3.5504,-3.5504,-3.5504,-3.5504,-3.5504,-3.5504,-3.5504,-3.5504,-3.5504,-3.5504,-3.591,-3.643,-3.607,-3.6196,-3.6461,-3.6461,0.0,0.0,0.0,0.0,0.0,0.0,0.0,0.0,0.0,0.0,0.0,0.0,0.0,0.0,0.0,0.0,0.0,0.0,0.0,0.0,0.0,0.0,0.0,0.0,-3.6237,-3.6447,-3.6327,-3.6626,-3.6971,-3.7255,-3.7853,-3.8512,-3.917,-3.9843,-4.0621,-4.1564,-4.1983,-4.2596,-4.3579,-4.3958,-4.4332,-4.4721,-4.5095,-4.5289,-4.5289,-4.5289,-4.5289,-4.5289,-4.5289,-4.5289,-4.5289,-4.5289,-4.5289,0.0,-4.4885,-4.4721,-4.4691,-4.4317,-4.3928,0.0,0.0,0.0,0.0,0.0,-4.1422,-4.1324,0.0,0.0,0.0,0.0,0.0,0.0,0.0,0.0,0.0,0.0,0.0,-3.1511,-3.1511,-3.1511,-3.1511,-3.1511,-3.2168,-3.2946,0.0,0.0,0.0,-3.5619,-3.5522,-3.5537,-3.5619,-3.5522,-3.5504,-3.5504,-3.5504,-3.5504,-3.5504,-3.5504,-3.5504,-3.5504,-3.5504,-3.5504,-3.5504,-3.5504,-3.5504,-3.5504,-3.5587,-3.5554,-3.5504,-3.5504,-3.6399,-3.7573,-3.6859,-3.713,-3.7793,-3.7793,0.0,0.0,0.0,0.0,0.0,0.0,0.0,0.0,0.0,0.0,0.0,0.0,0.0,0.0,0.0,0.0,0.0,0.0,0.0,0.0,0.0,0.0,0.0,0.0,-3.6671,-3.7,-3.7554,-3.7764,-3.8018,-3.8452,-3.917,-3.9903,-4.0561,-4.122,-4.2117,-4.3305,-4.3469,-4.4067,-4.5349,0.0,0.0,0.0,0.0,-4.5529,-4.5529,-4.5529,-4.5529,-4.5529,-4.5529,-4.5529,-4.5529,-4.5529,-4.5529,-4.5514,-4.5454,-4.5409,-4.5409,-4.5334,-4.5289,-4.511,-4.3339,-4.2216,-4.1594,-4.1594,-4.1594,-4.1594,0.0,0.0,0.0,0.0,0.0,0.0,0.0,0.0,0.0,-3.2695,-3.1966,-3.1511,-3.1511,-3.1511,-3.1511,-3.1511,-3.2617,-3.3814,0.0,0.0,-3.575,-3.6353,-3.5814,-3.5782,-3.6353,-3.5814,-3.5504,-3.5504,-3.5504,-3.5504,-3.5504,-3.5504,-3.5504,-3.5504,-3.5504,-3.5504,-3.5504,-3.5504,-3.5504,-3.5554,-3.6134,-3.6023,-3.5504,-3.5504,-3.607,-3.6813,-3.6676,-3.713,-3.7793,-3.7793,-3.7706,-3.7485,-3.6994,0.0,0.0,0.0,0.0,0.0,0.0,0.0,0.0,0.0,0.0,0.0,0.0,0.0,0.0,0.0,0.0,0.0,0.0,0.0,0.0,-3.6462,-3.7823,-3.8886,-3.902,-3.9948,-4.0262,-3.9334,-4.0277,-4.1265,-4.1961,-4.2566,-4.3245,-4.4062,-4.4616,-4.5259,-4.6082,-4.6127,0.0,-4.6905,-4.692,-4.692,-4.692,-4.692,-4.692,-4.692,0.0,0.0,-4.692,-4.692,-4.692,-4.689,-4.6352,-4.6127,-4.6082,-4.5529,-4.5289,-4.52,-4.4287,-4.3524,-4.2916,-4.2916,-4.2916,-4.288,0.0,0.0,0.0,0.0,0.0,0.0,0.0,0.0,0.0,0.0,-3.2997,-3.2555,-3.2555,-3.2256,-3.2064,-3.2064,-3.293,0.0,0.0,-3.6054,-3.6228,-3.6569,-3.6646,-3.6446,-3.6054,-3.6054,-3.6054,-3.6054,-3.5668,-3.5701,-3.6023,-3.5668,-3.5504,-3.5504,-3.5504,-3.5686,-3.6054,-3.6054,-3.6054,-3.6117,-3.6889,-3.6753,-3.6054,-3.6054,-3.6523,-3.7203,-3.7203,-3.7703,-3.8414,-3.8832,-3.8679,-3.8358,-3.8342,-3.8088,-3.7815,0.0,0.0,0.0,0.0,0.0,0.0,0.0,0.0,0.0,0.0,0.0,0.0,0.0,0.0,-3.6557,0.0,0.0,-3.7165,-3.7838,-3.8781,-3.9649,-4.0307,-4.1287,-4.1662,-4.0965,-4.1512,-4.2291,-4.324,-4.3629,-4.4201,-4.5244,-4.5618,-4.6097,-4.677,-4.6815,-4.6965,-4.7294,-4.7309,-4.7309,-4.7309,-4.7309,-4.7309,-4.7309,-4.7309,-4.7309,-4.7309,-4.7309,-4.7309,-4.7294,-4.6965,-4.6815,-4.6828,-4.697,-4.6839,-4.6585,-4.6762,-4.5819,-4.4272,-4.3902,-4.3783,-4.3693,0.0,0.0,0.0,0.0,0.0,0.0,0.0,0.0,0.0,0.0,-3.4012,-3.3582,-3.3582,-3.3119,-3.2897,0.0,0.0,0.0,0.0,-3.6813,-3.6904,-3.7038,-3.7528,-3.7294,-3.618,-3.6446,-3.6676,-3.6813,-3.6086,-3.6086,-3.6813,-3.6212,-3.5941,-3.5941,-3.5782,-3.6023,-3.6569,-3.6446,-3.6384,-3.6477,-3.7427,-3.7338,-3.6615,-3.6752,-3.7249,-3.7793,-3.7793,-3.8274,-3.9032,-3.9833,-3.9584,-3.9016,-3.9662,-3.9315,-3.8718,-3.8854,-3.8908,0.0,0.0,0.0,0.0,0.0,0.0,0.0,0.0,0.0,-3.7634,-3.7095,-3.6974,-3.6908,-3.6908,-3.7406,-3.8153,-3.9209,-3.9738,-4.0367,-4.1452,-4.2171,-4.259,-4.259,-4.259,-4.3015,-4.4197,-4.4421,-4.5005,-4.619,-4.6399,-4.6741,-4.7279,-4.7309,-4.7309,-4.7309,-4.7429,-4.7489,-4.7489,-4.7623,-4.7683,-4.7683,-4.7683,-4.7799,-4.7985,-4.7985,-4.8039,-4.8116,-4.798,-4.7892,-4.7961,-4.8759,-4.8783,-4.8387,-4.9267,-4.8239,-4.6148,-4.5158,-4.4684,-4.4421,0.0,0.0,0.0,0.0,0.0,0.0,0.0,0.0,0.0,0.0,0.0,0.0,0.0,0.0,0.0,0.0,0.0,0.0,-3.7565,-3.7661,-3.7962,-3.8619,-3.8104,-3.8035,-3.8509,-3.7277,-3.6934,-3.7661,-3.6859,-3.6889,-3.7661,-3.7589,-3.7531,-3.7531,-3.6814,-3.6523,-3.6554,-3.5894,-3.5619,-3.5765,-3.7205,-3.7338,-3.6676,-3.7397,-3.7719,-3.7793,-3.7793,-3.8274,-3.9032,-3.9833,-3.9584,-3.8908,-3.9005,-3.8525,-3.8064,-3.8718,0.0,-3.9032,-3.9662,-3.9901,-3.9601,-3.8064,-3.7863,-3.7807,0.0,0.0,-3.7841,-3.8368,-3.8458,-3.8455,-3.8455,-3.8857,-3.9245,-3.9394,-4.0891,-4.2126,-4.2276,-4.2806,-4.3185,-4.3185,-4.3185,-4.3469,-4.4242,-4.484,-4.5499,-4.6219,-4.686,-4.7234,-4.7309,-4.7309,-4.7309,-4.7309,-4.7878,-4.8177,-4.8177,-4.8805,-4.909,-4.909,-4.909,-4.9607,-5.0495,-5.0495,-5.0684,-5.1001,-5.0318,-5.0048,-5.0048,-5.0165,-5.0156,-5.0131,-5.0247,-5.0122,-4.9589,-4.7403,-4.602,-4.517,0.0,0.0,0.0,0.0,0.0,0.0,0.0,0.0,0.0,0.0,0.0,0.0,0.0,0.0,0.0,0.0,0.0,0.0,-3.7687,-3.7812,-3.8128,-3.8864,-3.9049,-3.8859,-3.8274,-3.806,-3.8101,-3.8442,-3.7674,-3.7703,-3.8414,-3.8007,-3.7793,-3.7793,-3.7456,-3.7557,-3.793,-3.76,-3.7469,-3.7587,-3.8679,-3.8663,-3.7987,-3.8314,-3.8442,-3.8386,-3.795,-3.8274,0.0,0.0,-3.9876,-3.961,-3.961,-3.9385,-3.9199,-3.9506,-3.961,0.0,-3.8914,-3.9076,0.0,0.0,-3.8762,-3.9554,-3.8746,-3.915,-3.9684,-3.9499,-3.9359,-3.9554,-4.0514,-4.0282,-4.0604,0.0,-4.2572,-4.2909,-4.4381,-4.3868,-4.3512,-4.4105,-4.3669,-4.3708,-4.4781,-4.514,-4.5738,-4.6815,-4.7145,-4.7309,-4.7309,-4.7309,-4.7474,-4.7863,-4.8132,-4.8784,-4.9784,-4.9492,-4.9966,-5.1209,-5.0543,-5.0812,-5.191,-5.191,-5.1995,-5.2092,-5.1348,-5.1375,-5.189,-5.1445,-5.1266,-5.134,-5.1938,-5.1447,-5.0169,-4.8177,-4.7121,-4.662,0.0,0.0,0.0,0.0,0.0,0.0,0.0,0.0,0.0,0.0,0.0,0.0,0.0,0.0,0.0,0.0,0.0,0.0,0.0,-3.8032,-3.8363,-3.8904,-3.9681,-3.9601,-3.8474,-3.8745,-3.9005,-3.9236,-3.8469,-3.8486,-3.9236,-3.8679,-3.843,-3.843,-3.8206,-3.8386,-3.8881,-3.869,-3.8608,-3.8663,-3.9437,-3.9437,-3.8908,-3.8908,-3.8908,-3.8827,-3.8302,-3.8442,0.0,0.0,-4.0096,-4.0096,-4.0096,-4.0096,-4.0096,-4.0096,-4.0096,-3.985,-3.875,0.0,0.0,-3.8553,-3.9777,-4.1055,-4.0421,-4.0912,-4.1375,-4.1008,-4.061,-4.0764,-4.2171,-4.1679,0.0,-4.448,-4.4065,-4.4096,-4.5932,-4.4765,-4.4066,-4.5079,-4.4473,-4.4561,-4.5965,-4.59,-4.6162,-4.7204,-4.7581,-4.7609,-4.7294,-4.7309,-4.7752,-4.8732,-4.8929,-4.9843,-5.1638,-5.1049,-5.1573,-5.315,-5.2297,-5.2505,-5.3614,-5.3711,-5.3746,-5.3714,-5.2981,-5.295,-5.3413,-5.2862,-5.253,-5.2435,-5.3195,-5.2574,-5.1085,-4.9515,-4.8742,-4.8324,0.0,0.0,0.0,0.0,0.0,0.0,0.0,0.0,0.0,0.0,0.0,0.0,0.0,0.0,0.0,0.0,0.0,0.0,0.0,-3.8575,-3.8963,-3.8997,-3.9698,-4.007,-4.002,-3.9289,-3.9289,-4.007,-3.9262,-3.9289,-4.007,-4.0045,-4.002,-3.9995,-3.9193,-3.8881,-3.8854,-3.8149,-3.7835,-3.7892,-3.8635,-3.8908,-3.8908,-3.8908,-3.8908,-3.8908,-3.8881,0.0,0.0,0.0,-4.0096,-4.0096,-4.0096,-4.0096,0.0,-4.0096,-4.0096,-4.007,0.0,0.0,-4.0944,-4.0194,-4.0628,-4.1165,-4.0997,-4.1645,-4.2455,-4.3062,-4.2503,-4.2205,-4.3108,-4.2968,-4.3024,-4.3956,-4.5227,-4.6106,-4.6173,-4.5358,-4.5116,-4.6048,-4.5976,-4.6441,0.0,-4.7399,-4.6975,-4.7291,-4.8225,-4.8335,-4.7337,-4.7309,-4.8094,-4.9801,-5.0494,-5.1712,-5.3501,-5.4131,-5.4483,-5.4525,-5.4525,-5.5044,-5.6105,-5.6493,-5.6693,-5.6643,-5.5881,-5.519,-5.4549,-5.4532,-5.4109,-5.3467,-5.3501,-5.3467,-5.3264,-5.2172,-5.116,-5.0326,0.0,0.0,0.0,0.0,0.0,0.0,0.0,0.0,0.0,0.0,0.0,0.0,0.0,0.0,0.0,0.0,0.0,0.0,0.0,-3.7405,-3.7997,-3.8954,-3.9225,-3.9605,-4.0096,-3.9833,-3.9833,-4.0096,-3.9833,-3.9833,-4.0096,-4.0096,-4.0096,-4.007,-3.9808,-3.9705,-3.9662,-3.9428,-3.9332,-3.9332,-3.9584,-3.9705,-3.9705,-3.9705,-3.9705,-3.9705,0.0,0.0,0.0,0.0,0.0,-4.0096,-4.0096,-4.0096,-4.0096,-4.0096,-4.0096,-4.0096,0.0,0.0,-4.1266,-4.1486,-4.2104,-4.2786,-4.3265,-4.3621,-4.3877,-4.4117,-4.3456,-4.3286,-4.4658,-4.3813,-4.3727,-4.6215,-4.5977,-4.6076,-4.7802,-4.6712,-4.6083,-4.7036,-4.6956,0.0,0.0,0.0,0.0,-4.9329,-4.9655,-4.9376,-4.8335,-4.8963,-4.9706,-5.0537,-5.148,-5.3061,-5.5299,-5.4832,-5.5329,-5.6773,-5.6773,-5.698,-5.7318,-5.7465,-5.7526,-5.7492,-5.6748,-5.6292,-5.5987,-5.4989,-5.4448,-5.4177,-5.3687,-5.3501,-5.3467,-5.311,-5.2765,-5.2258,0.0,0.0,0.0,0.0,0.0,0.0,0.0,0.0,0.0,0.0,0.0,0.0,0.0,0.0,0.0,0.0,0.0,0.0,0.0,0.0,-3.7354,-3.8548,-3.8853,-3.9368,-4.0079,-4.0096,-4.0096,-4.0096,-4.0096,-4.0096,-4.0096,-4.0096,-4.0096,-4.0096,-4.0096,-4.0096,-4.0096,-4.0096,-4.0096,-4.0096,-4.0096,-4.0096,-4.0096,-4.0096,-4.0096,0.0,0.0,0.0,0.0,0.0,0.0,-4.0096,-4.0096,-4.0096,-4.0096,-4.0096,-4.0299,-4.0501,-4.0491,-4.1225,-4.2095,-4.2562,-4.3256,-4.3961,-4.4496,-4.4615,-4.4615,-4.4615,-4.3902,-4.3711,-4.5053,-4.4335,-4.4296,-4.6729,-4.654,-4.6699,-4.8374,-4.7506,-4.7054,-4.7982,-4.8174,0.0,0.0,0.0,0.0,-5.0403,-5.0741,-5.0474,-4.9416,-5.0009,-5.0792,-5.1628,-5.2555,-5.4146,-5.6395,-5.5971,-5.6487,-5.7881,-5.7881,-5.7881,-5.7881,-5.7881,-5.7881,-5.7865,-5.7391,-5.7036,-5.6714,-5.5497,-5.4837,-5.4515,-5.3788,-5.3501,-5.3501,-5.3501,-5.3501,-5.3314,0.0,0.0,0.0,0.0,0.0,0.0,0.0,0.0,0.0,0.0,0.0,0.0,0.0,0.0,0.0,0.0,0.0,0.0,0.0,0.0,0.0,-3.7821,-3.8514,-3.9266,-4.0028,-4.0045,-4.0062,-4.0096,-4.0096,-4.0096,-4.0096,-4.0096,-4.0096,-4.0096,-4.0096,-4.0096,-4.0096,-4.0096,-4.0096,-4.0096,-4.0096,-4.0096,-4.0096,-4.0096,0.0,0.0,0.0,0.0,0.0,0.0,0.0,0.0,0.0,-4.0096,-4.0113,-4.0146,-4.0646,-4.1221,-4.1288,-4.2337,-4.3392,-4.3443,-4.4045,-4.4615,-4.4615,-4.4581,-4.4547,-4.4547,-4.3848,-4.3522,0.0,0.0,-4.4646,-4.5554,-4.6887,-4.7804,-4.7872,-4.7741,-4.7965,0.0,0.0,0.0,0.0,0.0,0.0,-5.0719,0.0,-5.1541,-5.0512,-5.0528,-5.1291,-5.2942,-5.3758,-5.5018,-5.6799,-5.7526,-5.7881,-5.7881,-5.7881,-5.7881,-5.7881,-5.7881,-5.7881,-5.7881,-5.7881,-5.7492,-5.6799,-5.6038,-5.5294,-5.4566,-5.3805,-5.3501,-5.3501,-5.3501,-5.3501,-5.3501,0.0,0.0,0.0,0.0,0.0,0.0,0.0,0.0,0.0,0.0,0.0,0.0,0.0,0.0,0.0,0.0,0.0,0.0,0.0,0.0,0.0,0.0,0.0,0.0,0.0,0.0,0.0,0.0,0.0,-4.0096,-4.0096,-4.0096,-4.0096,-4.0096,-4.0096,-4.0096,-4.0096,-4.0096,-4.0096,-4.0096,0.0,-4.0096,-4.0096,0.0,0.0,0.0,0.0,0.0,0.0,0.0,0.0,0.0,0.0,-4.0096,-4.0214,-4.0747,-4.1052,-4.1441,-4.2557,-4.3105,-4.3527,-4.413,-4.4462,-4.4615,-4.4615,-4.413,-4.3724,-4.3724,-4.3086,-4.2795,0.0,0.0,0.0,-4.5488,-4.6024,0.0,-4.7736,-4.7872,0.0,0.0,0.0,-5.0924,-5.1185,-5.2604,0.0,0.0,-5.2956,-5.2627,-5.1578,-5.2293,-5.2819,-5.2979,-5.4501,-5.5772,-5.6799,-5.7526,-5.7881,-5.7881,-5.7881,-5.7881,-5.7881,-5.7881,-5.7881,-5.7881,-5.7881,-5.778,-5.7509,-5.6241,-5.5598,-5.531,-5.4008,-5.3501,-5.3501,-5.3501,-5.3501,-5.3501,0.0,0.0,0.0,0.0,0.0,0.0,0.0,0.0,0.0,0.0,0.0,0.0,0.0,0.0,0.0,0.0,0.0,0.0,0.0,0.0,0.0,0.0,0.0,0.0,0.0,0.0,0.0,0.0,0.0,0.0,0.0,-4.0096,-4.0096,-4.0096,-4.0096,-4.0096,-4.0096,-4.0096,0.0,0.0,0.0,0.0,0.0,0.0,0.0,0.0,0.0,0.0,0.0,0.0,0.0,-4.0096,-4.0096,-4.0096,-4.0248,-4.0984,0.0,-4.1931,-4.3071,-4.3673,-4.4045,-4.4496,-4.4615,-4.4513,-4.4147,-4.3724,-4.3291,-4.2997,-4.2591,0.0,0.0,0.0,0.0,0.0,0.0,0.0,-4.7208,-4.7716,-4.8159,0.0,-5.0321,0.0,-5.1185,-5.2604,-5.3501,0.0,-5.3501,-5.323,-5.2627,-5.3179,-5.3415,-5.3228,-5.4508,-5.5733,-5.6799,-5.7526,-5.7881,-5.7881,-5.7881,-5.7881,-5.7881,-5.7881,-5.7881,-5.7881,0.0,-5.7881,-5.778,-5.6325,-5.5681,-5.5564,-5.4093,-5.3501,-5.3501,-5.3501,-5.3501,-5.3501,0.0,0.0,0.0,0.0,0.0,0.0,0.0,0.0,0.0,0.0,0.0,0.0,0.0,0.0,0.0,0.0,0.0,0.0,0.0,0.0,0.0,0.0,0.0,0.0,0.0,0.0,0.0,0.0,0.0,0.0,0.0,0.0,0.0,0.0,0.0,0.0,0.0,0.0,0.0,0.0,0.0,0.0,0.0,0.0,0.0,0.0,0.0,0.0,0.0,0.0,-4.0096,-4.0096,-4.0096,-4.0096,-4.0265,-4.1102,-4.1796,-4.2472,-4.3335,-4.4062,-4.4615,-4.4615,-4.453,-4.4248,-4.3572,-4.324,-4.2946,-4.2286,0.0,-4.2252,-4.3115,0.0,-4.2794,-4.4361,0.0,-4.5122,-4.6583,-4.7361,-4.8071,-4.89,-5.0321,-5.1185,-5.1185,-5.2604,-5.3501,-5.3501,-5.3501,-5.3501,-5.3501,-5.3501,-5.3551,-5.3653,-5.4262,-5.531,-5.6799,-5.7425,-5.7797,-5.7881,-5.7881,-5.7881,-5.7881,-5.7881,-5.7881,-5.7881,0.0,0.0,-5.778,-5.6325,-5.5681,-5.5564,-5.4093,-5.3501,-5.3501,-5.3501,-5.3501,-5.3501,0.0,0.0,0.0,0.0,0.0,0.0,0.0,0.0,0.0,0.0,0.0,0.0,0.0,0.0,0.0,0.0,0.0,0.0,0.0,0.0,0.0,0.0,0.0,0.0,0.0,0.0,0.0,0.0,0.0,0.0,0.0,0.0,0.0,0.0,0.0,0.0,0.0,0.0,0.0,0.0,0.0,0.0,0.0,0.0,0.0,0.0,0.0,0.0,0.0,0.0,-4.0096,-4.0096,-4.0096,-4.0096,-4.0367,-4.1694,-4.2202,-4.2608,-4.3995,-4.4496,-4.4615,-4.4615,-4.4096,-4.3561,-4.3426,-4.2472,0.0,0.0,0.0,-4.0891,-4.2236,-4.2388,0.0,-4.4361,0.0,0.0,0.0,0.0,-4.7479,0.0,0.0,0.0,0.0,0.0,0.0,0.0,0.0,-5.3501,-5.3501,-5.3501,-5.3788,-5.438,-5.4515,-5.531,-5.6799,-5.6934,-5.7289,-5.7881,-5.7881,-5.7881,-5.7881,-5.7881,-5.7881,-5.7881,-5.7881,0.0,-5.778,-5.6325,-5.5681,-5.5564,-5.4093,-5.3501,-5.3501,-5.3501,-5.3501,-5.3501,0.0,0.0,0.0,0.0,0.0,0.0,0.0,0.0,0.0,0.0,-3.1495,-3.187,0.0,0.0,0.0,0.0,0.0,0.0,0.0,0.0,0.0,0.0,0.0,0.0,0.0,0.0,0.0,0.0,0.0,0.0,0.0,0.0,0.0,0.0,0.0,0.0,0.0,0.0,0.0,0.0,0.0,0.0,0.0,0.0,0.0,0.0,0.0,0.0,0.0,0.0,-4.0096,-4.0096,-4.0096,-4.0096,-4.0316,-4.1407,-4.1999,-4.254,-4.3673,-4.4265,-4.4513,-4.4079,-4.369,-4.3189,-4.2412,0.0,0.0,0.0,0.0,-4.0553,-4.2016,0.0,0.0,0.0,0.0,0.0,0.0,0.0,0.0,0.0,0.0,0.0,0.0,0.0,0.0,0.0,0.0,0.0,-5.3501,-5.3501,-5.367,-5.4008,-5.4397,-5.4938,-5.5649,-5.641,-5.6985,-5.7323,-5.7712,-5.7881,-5.7881,-5.7881,-5.7881,-5.7881,-5.7881,0.0,-5.7239,-5.6156,-5.548,-5.5023,-5.394,-5.3501,-5.3501,-5.3501,-5.3501,-5.3501,0.0,0.0,0.0,0.0,0.0,0.0,0.0,-3.1332,-3.1332,-3.1332,-3.1252,-3.141,-3.2005,-3.2056,0.0,0.0,0.0,0.0,0.0,0.0,0.0,0.0,0.0,0.0,0.0,0.0,0.0,0.0,0.0,0.0,0.0,0.0,0.0,0.0,0.0,0.0,0.0,0.0,0.0,0.0,0.0,0.0,0.0,0.0,0.0,0.0,0.0,0.0,0.0,0.0,-4.0096,-4.0096,-4.0096,-4.0096,-4.0248,-4.0984,-4.161,-4.2219,-4.298,-4.3623,-4.3944,-4.3335,-4.3037,-4.2642,-4.1474,-4.1085,0.0,0.0,-4.0096,-4.0502,-4.1813,0.0,0.0,0.0,0.0,0.0,0.0,0.0,0.0,0.0,0.0,0.0,0.0,0.0,0.0,0.0,0.0,0.0,-5.3501,-5.3501,-5.3501,-5.3501,-5.4059,-5.4431,-5.4583,-5.575,-5.6494,-5.6816,-5.7391,-5.7746,-5.7881,-5.7881,-5.7881,-5.7881,-5.7881,0.0,0.0,-5.6021,-5.5277,-5.4515,-5.3788,-5.3501,-5.3501,-5.3501,-5.3501,-5.3501,0.0,0.0,0.0,0.0,0.0,0.0,0.0,-3.1734,-3.1734,-3.1734,-3.143,-3.1224,-3.1275,-3.1292,0.0,0.0,0.0,0.0,0.0,0.0,0.0,0.0,0.0,0.0,0.0,0.0,0.0,0.0,0.0,0.0,0.0,0.0,0.0,0.0,0.0,0.0,0.0,0.0,0.0,0.0,0.0,0.0,0.0,0.0,0.0,0.0,0.0,0.0,0.0,0.0,0.0,-4.0096,-4.0096,-4.0096,-4.0248,-4.0984,0.0,0.0,-4.2202,-4.2455,-4.2472,-4.2405,-4.1897,-4.1373,-4.1238,0.0,0.0,-4.0113,-4.0096,-4.035,-4.1153,-4.1779,0.0,0.0,0.0,0.0,0.0,0.0,0.0,0.0,0.0,0.0,0.0,0.0,0.0,0.0,0.0,0.0,-5.3501,-5.3501,-5.3501,-5.3501,-5.3568,-5.3923,-5.4583,-5.4718,-5.5463,-5.6799,-5.6867,-5.7256,-5.7881,-5.7881,-5.7881,-5.7881,-5.7881,0.0,0.0,-5.6021,-5.5277,-5.4515,-5.3788,-5.3501,-5.3501,-5.3501,-5.3501,-5.3501,0.0,0.0,0.0,0.0,0.0,0.0,0.0,-3.1824,-3.195,-3.2196,-3.2074,-3.186,-3.1584,-3.1547,-3.157,0.0,0.0,0.0,0.0,0.0,0.0,0.0,0.0,0.0,0.0,0.0,0.0,0.0,0.0,0.0,0.0,0.0,0.0,0.0,0.0,0.0,0.0,0.0,0.0,0.0,0.0,0.0,0.0,0.0,0.0,0.0,0.0,0.0,0.0,0.0,0.0,0.0,-4.0096,-4.0096,0.0,0.0,-4.0849,-4.1271,-4.1559,-4.1965,-4.2185,-4.1745,-4.1424,-4.1085,-4.0629,0.0,0.0,-4.0096,-4.0096,-4.0333,-4.1068,-4.1441,-4.2033,0.0,0.0,0.0,0.0,0.0,0.0,0.0,0.0,0.0,0.0,0.0,0.0,0.0,0.0,0.0,-5.3501,-5.3501,-5.3501,-5.3501,-5.3501,-5.3653,-5.394,-5.438,-5.4888,-5.548,-5.5936,-5.6292,-5.6596,-5.7036,-5.7239,-5.7239,-5.7239,0.0,0.0,-5.5344,-5.46,-5.3907,-5.3619,-5.3501,-5.3501,-5.3501,-5.3501,-5.3501,0.0,0.0,0.0,0.0,0.0,0.0,-3.195,-3.2039,-3.2231,-3.2648,-3.2583,-3.2366,-3.2039,-3.2021,-3.1842,-3.1411,0.0,0.0,0.0,0.0,0.0,0.0,0.0,0.0,0.0,0.0,0.0,0.0,0.0,0.0,0.0,0.0,0.0,0.0,0.0,0.0,0.0,0.0,0.0,0.0,0.0,0.0,0.0,0.0,0.0,0.0,0.0,0.0,0.0,0.0,0.0,0.0,0.0,0.0,0.0,0.0,-4.0485,-4.0865,-4.0865,-4.1238,-4.1508,-4.1001,-4.0865,-4.073,0.0,0.0,-4.0096,-4.0096,-4.0096,-4.0265,-4.0781,-4.1052,-4.1542,0.0,0.0,0.0,0.0,0.0,0.0,0.0,0.0,0.0,0.0,0.0,0.0,0.0,0.0,0.0,0.0,-5.3501,-5.3501,-5.3501,-5.3501,-5.3501,-5.3501,-5.4008,-5.438,-5.46,-5.5141,-5.5497,-5.5733,-5.6241,-5.6478,-5.6478,0.0,0.0,0.0,-5.4803,-5.416,-5.3501,-5.3501,-5.3501,-5.3501,-5.3501,-5.3501,-5.3501,0.0,0.0,0.0,0.0,0.0,0.0,0.0,-3.2501,-3.2665,-3.3139,-3.2777,-3.2501,-3.2501,-3.2501,-3.2298,-3.1826,0.0,0.0,0.0,0.0,0.0,0.0,0.0,0.0,0.0,0.0,0.0,-3.4506,0.0,0.0,0.0,0.0,0.0,0.0,0.0,0.0,0.0,0.0,0.0,0.0,0.0,0.0,0.0,0.0,0.0,0.0,0.0,0.0,0.0,0.0,0.0,0.0,0.0,0.0,0.0,0.0,-4.0113,-4.0113,-4.0113,-4.013,-4.013,-4.0113,-4.0113,-4.0113,0.0,0.0,-4.0096,-4.0096,-4.0096,-4.0096,-4.0113,-4.0696,-4.1221,-4.1221,-4.2429,0.0,0.0,0.0,0.0,0.0,0.0,0.0,0.0,0.0,0.0,0.0,0.0,0.0,0.0,-5.3501,-5.3501,-5.3501,-5.3501,-5.3501,-5.3501,-5.3518,-5.3873,-5.4583,-5.46,-5.4989,-5.5681,-5.5733,-5.5698,0.0,0.0,0.0,0.0,-5.4583,-5.416,-5.3501,-5.3501,-5.3501,-5.3501,-5.3501,-5.3501,-5.3501,0.0,0.0,0.0,0.0,0.0,0.0,0.0,-3.2501,-3.2665,-3.3154,-3.306,-3.2858,-3.2534,-3.2501,-3.2316,-3.1843,0.0,0.0,0.0,0.0,0.0,0.0,0.0,0.0,0.0,0.0,-3.3744,-3.3744,-3.3981,-3.4353,0.0,0.0,0.0,0.0,0.0,0.0,0.0,0.0,0.0,0.0,0.0,0.0,0.0,0.0,0.0,0.0,0.0,0.0,0.0,0.0,0.0,0.0,0.0,0.0,0.0,-4.0096,0.0,0.0,-4.0096,-4.0096,-4.0096,-4.0096,-4.0096,-4.0096,-4.0096,-4.0096,-4.0096,-4.0096,-4.0096,-4.0096,-4.0096,-4.0299,-4.0595,-4.1119,-4.1593,0.0,0.0,0.0,0.0,0.0,0.0,0.0,0.0,0.0,0.0,0.0,0.0,0.0,0.0,-5.3501,-5.3501,-5.3501,-5.3501,-5.3501,-5.3501,-5.3501,-5.3619,-5.3856,-5.3856,-5.3974,-5.4211,-5.4718,0.0,0.0,0.0,0.0,0.0,-5.4059,-5.3704,-5.3501,-5.3501,-5.3501,-5.3501,-5.3501,-5.3501,-5.3501,0.0,0.0,0.0,0.0,0.0,0.0,0.0,-3.2616,-3.2665,-3.3154,-3.3199,-3.3075,-3.2811,-3.2761,-3.2648,-3.2366,0.0,0.0,0.0,0.0,0.0,0.0,0.0,0.0,0.0,-3.2594,-3.2983,-3.2983,-3.3271,-3.3643,-3.4083,-3.437,-3.4742,0.0,0.0,0.0,0.0,0.0,0.0,0.0,0.0,0.0,-3.565,0.0,0.0,0.0,0.0,0.0,0.0,0.0,0.0,0.0,0.0,0.0,0.0,0.0,-4.0096,0.0,0.0,-4.0096,-4.0096,-4.0096,-4.0096,0.0,0.0,-4.0096,-4.0096,-4.0096,-4.0096,-4.0096,-4.0096,-4.0096,-4.0265,-4.0696,-4.1018,0.0,0.0,0.0,0.0,0.0,0.0,0.0,0.0,0.0,0.0,0.0,0.0,0.0,0.0,0.0,-5.3501,-5.3501,-5.3501,-5.3501,-5.3501,-5.3501,-5.3501,-5.3501,-5.3501,-5.3501,-5.3518,-5.3974,0.0,0.0,0.0,0.0,0.0,-5.3687,-5.3501,-5.3501,-5.3501,-5.3501,-5.3501,-5.3501,-5.3501,-5.3501,0.0,0.0,0.0,0.0,0.0,0.0,0.0,0.0,0.0,0.0,-3.3079,-3.3082,-3.3136,-3.3184,-3.3199,0.0,0.0,0.0,0.0,0.0,0.0,0.0,0.0,0.0,0.0,-3.187,-3.2226,-3.2226,-3.2899,-3.3271,-3.3339,-3.4015,-3.437,-3.4438,-3.5199,-3.5549,-3.56,-3.56,-3.56,-3.56,-3.56,-3.56,0.0,0.0,0.0,0.0,0.0,0.0,0.0,0.0,0.0,0.0,0.0,0.0,0.0,0.0,0.0,0.0,0.0,0.0,0.0,0.0,0.0,0.0,0.0,-4.0096,0.0,-4.0096,-4.0096,-4.0096,-4.0096,-4.0096,-4.0096,-4.0096,-4.0663,0.0,0.0,0.0,0.0,0.0,0.0,0.0,0.0,0.0,0.0,0.0,0.0,0.0,0.0,0.0,-5.3501,-5.3501,-5.3501,-5.3501,-5.3501,-5.3501,-5.3501,-5.3501,-5.3501,-5.3501,-5.3501,-5.3501,0.0,0.0,0.0,0.0,0.0,-5.3501,-5.3501,-5.3501,-5.3501,-5.3501,-5.3501,-5.3501,-5.3501,-5.3501,0.0,0.0,0.0,0.0,0.0,0.0,0.0,0.0,0.0,0.0,0.0,-3.2054,-3.2593,-3.2983,0.0,0.0,0.0,0.0,0.0,0.0,0.0,0.0,0.0,0.0,0.0,-3.136,-3.1464,-3.1464,-3.163,-3.2002,-3.2564,-3.275,-3.3119,-3.3694,-3.4438,-3.5081,-3.56,-3.56,-3.56,-3.56,-3.56,-3.56,0.0,0.0,0.0,0.0,-3.6592,-3.7032,0.0,0.0,0.0,0.0,0.0,0.0,0.0,0.0,-4.0096,-4.0096,-4.0096,0.0,-4.0096,-4.0096,-4.0096,-4.0096,0.0,-4.0096,-4.0096,-4.0096,0.0,-4.0096,-4.0096,-4.0096,-4.0096,0.0,0.0,0.0,0.0,0.0,0.0,0.0,0.0,0.0,0.0,0.0,0.0,0.0,0.0,0.0,0.0,0.0,-5.3501,-5.3501,-5.3501,-5.3501,-5.3501,-5.3501,-5.3501,-5.3501,-5.3501,-5.3501,-5.3501,-5.3501,0.0,0.0,0.0,0.0,-5.3501,-5.3501,-5.3501,-5.3501,-5.3501,-5.3501,-5.3501,-5.3501,-5.3501,-5.3416,0.0,0.0,0.0,0.0,0.0,0.0,0.0,0.0,0.0,0.0,0.0,0.0,0.0,0.0,0.0,0.0,0.0,0.0,0.0,0.0,0.0,0.0,0.0,0.0,-3.119,-3.119,-3.119,-3.119,-3.119,-3.1393,-3.1802,-3.2141,-3.2513,-3.2933,-3.4015,-3.4726,-3.5131,-3.5447,-3.56,-3.56,-3.56,0.0,0.0,0.0,0.0,0.0,-3.6096,-3.6508,0.0,-3.8108,-3.8717,-3.9123,0.0,0.0,0.0,0.0,-4.0096,-4.0096,-4.0096,-4.0096,-4.0096,-4.0096,-4.0096,-4.0096,-4.0096,0.0,0.0,0.0,0.0,0.0,0.0,0.0,0.0,0.0,0.0,0.0,0.0,0.0,0.0,0.0,0.0,0.0,0.0,0.0,0.0,0.0,0.0,0.0,0.0,-5.3501,-5.3501,-5.3501,-5.3501,-5.3501,-5.3501,-5.3501,-5.3501,-5.3501,-5.3501,-5.3501,-5.3501,-5.3501,-5.3501,0.0,0.0,0.0,-5.3501,-5.3501,-5.3501,-5.3501,-5.3501,-5.3501,-5.3467,-5.3095,-5.2959,-5.2841,0.0,0.0,0.0,0.0,0.0,0.0,0.0,0.0,0.0,0.0,0.0,0.0,0.0,0.0,0.0,0.0,0.0,0.0,0.0,0.0,0.0,0.0,0.0,-3.119,-3.119,-3.1252,-3.1291,-3.1291,-3.1351,-3.1351,-3.1308,-3.1919,-3.2255,-3.2361,-3.3681,-3.4355,-3.4561,-3.5232,-3.557,-3.56,-3.56,0.0,0.0,0.0,0.0,0.0,0.0,0.0,0.0,-3.7483,-3.8227,-3.8954,-3.9706,0.0,0.0,0.0,0.0,0.0,-4.0096,-4.0096,-4.0096,-4.0096,-4.0096,-4.0096,-4.0096,0.0,0.0,0.0,0.0,0.0,0.0,0.0,0.0,0.0,0.0,0.0,0.0,0.0,0.0,0.0,0.0,0.0,0.0,0.0,0.0,0.0,0.0,0.0,0.0,-5.3162,-5.3213,-5.3315,-5.3315,-5.3382,-5.3501,-5.3501,-5.3501,-5.3501,-5.3501,-5.3501,-5.3501,-5.3501,-5.3501,0.0,0.0,0.0,-5.3501,-5.3501,-5.3501,-5.3501,-5.3501,-5.3433,-5.323,-5.2553,-5.2232,-5.2029,0.0,0.0,0.0,0.0,0.0,0.0,0.0,0.0,0.0,0.0,0.0,0.0,0.0,0.0,0.0,0.0,0.0,0.0,0.0,0.0,0.0,0.0,-3.1389,-3.119,-3.119,-3.1528,-3.1715,-3.1715,-3.2109,-3.2092,-3.1715,-3.1818,-3.2023,-3.233,-3.2956,-3.3699,-3.4532,-3.5042,-3.5386,-3.56,-3.56,0.0,0.0,0.0,0.0,0.0,0.0,0.0,0.0,-3.6688,-3.7449,-3.821,-3.8937,0.0,0.0,0.0,0.0,0.0,-4.0096,-4.0096,-4.0096,-4.0096,-4.0096,-4.0096,-4.0096,0.0,0.0,0.0,0.0,0.0,0.0,0.0,0.0,0.0,0.0,0.0,0.0,0.0,0.0,0.0,0.0,0.0,0.0,0.0,0.0,0.0,0.0,0.0,0.0,0.0,-5.186,-5.2469,-5.2486,-5.2807,-5.3501,-5.3501,-5.3501,-5.3501,-5.3501,-5.3501,-5.3501,-5.3501,-5.3501,0.0,0.0,-5.3501,-5.3501,-5.3501,-5.3501,-5.3501,-5.3501,-5.3078,-5.2469,-5.235,-5.1911,-5.1268,0.0,0.0,0.0,0.0,0.0,0.0,0.0,0.0,0.0,0.0,0.0,0.0,0.0,0.0,0.0,0.0,0.0,0.0,0.0,0.0,0.0,-3.1843,-3.1623,-3.1509,-3.1509,-3.1715,-3.1915,-3.2179,-3.2383,-3.2401,-3.2161,-3.1915,-3.1869,-3.2059,-3.2717,-3.3268,-3.3774,-3.4766,-3.5128,-3.5069,0.0,0.0,0.0,0.0,0.0,0.0,0.0,0.0,0.0,0.0,-3.7032,-3.7499,-3.8633,0.0,0.0,0.0,0.0,0.0,-4.0096,-4.0096,-4.0096,-4.0096,-4.0096,-4.0096,-4.0096,0.0,0.0,0.0,0.0,0.0,0.0,0.0,0.0,0.0,0.0,0.0,0.0,0.0,0.0,0.0,0.0,0.0,0.0,0.0,0.0,0.0,0.0,0.0,0.0,0.0,-5.1369,-5.1708,-5.1725,-5.1894,-5.2266,-5.2266,-5.2689,-5.3501,-5.3501,-5.3501,-5.3501,-5.3501,-5.3501,-5.3501,0.0,-5.3501,-5.3501,-5.3501,-5.3501,-5.3467,-5.3027,-5.2638,-5.2198,-5.1403,-5.0642,-4.9965,0.0,0.0,0.0,0.0,0.0,0.0,0.0,0.0,0.0,0.0,0.0,0.0,0.0,0.0,0.0,0.0,0.0,0.0,0.0,0.0,-3.2768,-3.2144,-3.2022,-3.1897,-3.1807,-3.1897,-3.2196,-3.2665,-3.2761,-3.2761,-3.2648,-3.2074,-3.1861,-3.1986,-3.2613,-3.2922,-3.309,-3.4501,-3.4918,-3.4798,0.0,0.0,0.0,0.0,0.0,0.0,0.0,0.0,0.0,0.0,0.0,0.0,0.0,0.0,0.0,-3.9893,-4.0096,-4.0096,-4.0096,-4.0096,-4.0096,-4.0096,0.0,-4.0096,-4.0096,-4.0096,0.0,0.0,0.0,0.0,0.0,0.0,0.0,0.0,0.0,0.0,0.0,0.0,0.0,0.0,0.0,0.0,0.0,0.0,0.0,0.0,0.0,0.0,0.0,0.0,-5.0777,-5.0947,-5.0947,-5.1048,-5.1185,-5.1185,-5.1777,-5.2976,-5.2976,-5.2976,-5.2976,-5.2976,-5.3061,-5.323,-5.323,-5.323,-5.323,-5.323,-5.3129,-5.2909,-5.2283,-5.1944,-5.1623,-5.0321,-4.9475,-4.9001,0.0,0.0,0.0,0.0,0.0,0.0,0.0,0.0,0.0,0.0,0.0,0.0,0.0,0.0,0.0,0.0,0.0,0.0,0.0,0.0,-3.2785,-3.3103,-3.2681,-3.2248,-3.1825,-3.223,-3.2681,-3.3154,-3.3522,-3.3522,-3.3139,-3.223,-3.2022,-3.2451,-3.2504,-3.2704,-3.3074,-3.4231,-3.4928,-3.5322,-3.6084,0.0,0.0,0.0,0.0,0.0,0.0,0.0,0.0,0.0,0.0,0.0,0.0,0.0,-3.914,-3.9893,-4.0096,-4.0096,-4.0096,-4.0096,-4.0096,-4.0096,-4.0096,0.0,-4.0096,-4.0096,0.0,-4.0096,0.0,0.0,0.0,0.0,0.0,0.0,0.0,0.0,0.0,0.0,0.0,0.0,0.0,0.0,0.0,0.0,0.0,0.0,0.0,0.0,0.0,0.0,0.0,-5.0152,-5.0168,-5.0507,-5.1185,-5.1185,-5.1268,-5.1386,-5.1386,-5.1386,-5.1386,-5.1386,-5.1758,-5.2384,-5.2384,-5.2384,-5.2384,-5.2384,-5.1995,-5.1369,-5.1286,-5.0862,-5.0152,-4.9373,-4.9052,-4.9001,0.0,0.0,0.0,0.0,0.0,0.0,0.0,0.0,0.0,0.0,0.0,0.0,0.0,0.0,0.0,0.0,0.0,0.0,0.0,0.0,-3.2552,-3.2459,-3.2762,-3.2856,-3.2663,-3.2567,-3.2856,-3.3564,-3.3721,-3.3592,-3.3199,-3.284,-3.2777,-3.2937,-3.2937,-3.2841,-3.2809,-3.4477,-3.496,-3.4781,-3.6603,-3.756,0.0,0.0,0.0,0.0,0.0,0.0,0.0,0.0,-3.6586,-3.6947,0.0,-3.8091,-3.8548,-3.9757,-4.0096,-4.0096,-4.0096,-4.0096,-4.0096,-4.0096,-4.0096,0.0,0.0,-4.0096,-4.0096,-4.0096,-4.0096,0.0,0.0,0.0,0.0,0.0,0.0,0.0,0.0,0.0,0.0,0.0,0.0,0.0,0.0,0.0,0.0,0.0,0.0,0.0,0.0,0.0,0.0,-4.9407,-4.9424,-4.9543,-4.9847,-4.9847,-4.9847,-4.9847,-5.0777,-5.1185,-5.1185,-5.1185,-5.1369,-5.164,-5.164,-5.164,-5.164,-5.164,-5.1471,-5.1134,-5.071,-5.0067,-4.9373,-4.9103,-4.9001,-4.9001,0.0,0.0,0.0,0.0,0.0,0.0,0.0,0.0,0.0,0.0,0.0,0.0,0.0,0.0,0.0,0.0,0.0,0.0,0.0,-3.1476,-3.2203,-3.2182,-3.2842,-3.3258,-3.3375,-3.295,-3.309,-3.3807,-3.3807,-3.3666,-3.3375,-3.3258,-3.3273,-3.3375,-3.3258,-3.3014,-3.2836,-3.4718,-3.5183,-3.4834,-3.7004,-3.7997,0.0,0.0,0.0,0.0,0.0,0.0,0.0,0.0,-3.6643,0.0,0.0,0.0,0.0,-3.9885,-4.0343,-4.0311,-4.0146,-4.036,-4.0563,-4.0196,0.0,0.0,-4.0146,-4.0096,-4.0096,-4.0096,-4.0096,0.0,0.0,0.0,0.0,0.0,0.0,0.0,0.0,0.0,0.0,0.0,0.0,0.0,0.0,0.0,0.0,0.0,0.0,0.0,0.0,0.0,0.0,0.0,-4.9001,-4.9001,-4.9001,-4.9001,-4.9001,-4.9018,-5.0033,-5.0524,-5.0524,-5.0524,-5.0642,-5.0862,-5.0862,-5.0862,-5.0862,-5.0862,-5.0727,-5.0473,-4.9949,-4.9441,-4.9001,-4.9001,-4.9001,-4.9001,0.0,0.0,0.0,0.0,0.0,0.0,0.0,0.0,0.0,0.0,0.0,0.0,0.0,0.0,0.0,0.0,0.0,0.0,-3.0136,-3.0944,-3.1751,-3.2546,-3.2986,-3.339,-3.3775,-3.3404,-3.339,-3.3807,-3.3807,-3.3807,-3.3775,-3.339,-3.3422,-3.3775,-3.3375,-3.3214,-3.3307,-3.4846,-3.5548,-3.5758,-3.7279,-3.8234,-3.8643,0.0,0.0,0.0,0.0,0.0,0.0,0.0,-3.7209,-3.7381,0.0,0.0,0.0,-4.0325,-4.0903,-4.078,-4.0237,-4.0914,-4.153,0.0,0.0,0.0,-4.0229,-4.0096,-4.0096,-4.0096,0.0,0.0,0.0,0.0,0.0,0.0,0.0,0.0,0.0,0.0,0.0,0.0,0.0,0.0,0.0,0.0,0.0,0.0,0.0,0.0,0.0,0.0,0.0,0.0,-4.9001,-4.9001,-4.9001,-4.9001,-4.9001,-4.9001,-4.9001,-4.9001,-4.9001,-4.9001,-4.9407,-5.0084,-5.0084,-5.0084,-5.0084,-5.0084,-4.9661,-4.9001,-4.9001,-4.9001,-4.9001,-4.9001,-4.9001,-4.9001,0.0,0.0,0.0,0.0,0.0,0.0,0.0,0.0,0.0,0.0,0.0,0.0,0.0,0.0,0.0,0.0,0.0,0.0,0.0,-3.0632,-3.1507,-3.1751,-3.2948,-3.368,-3.3807,-3.3694,-3.368,-3.3807,-3.3807,-3.3807,-3.3807,-3.368,-3.3694,-3.3788,-3.368,-3.3775,-3.4135,-3.5478,-3.6212,-3.6568,-3.7915,-3.8562,-3.8673,0.0,0.0,0.0,0.0,0.0,0.0,0.0,0.0,0.0,0.0,0.0,0.0,-4.1051,-4.1534,-4.1402,-4.0803,-4.092,0.0,0.0,0.0,0.0,0.0,-4.0368,0.0,0.0,0.0,0.0,0.0,0.0,0.0,0.0,0.0,0.0,0.0,0.0,0.0,0.0,0.0,0.0,0.0,0.0,0.0,0.0,0.0,0.0,0.0,0.0,0.0,0.0,-4.9001,-4.9001,-4.9001,-4.9001,-4.9001,-4.9001,-4.9001,-4.9001,-4.9001,-4.9001,-4.912,-4.9323,-4.9323,-4.9323,-4.9323,-4.9323,-4.9204,-4.9001,-4.9001,-4.9001,-4.9001,-4.9001,-4.9001,-4.9001,0.0,0.0,0.0,0.0,0.0,0.0,0.0,0.0,0.0,0.0,0.0,0.0,0.0,0.0,0.0,0.0,0.0,0.0,0.0,0.0,-3.1397,-3.1397,-3.2944,-3.3807,-3.3807,-3.3807,-3.3807,-3.3807,-3.3807,-3.3807,-3.3807,-3.3807,-3.3807,-3.3807,-3.3807,-3.4105,-3.4706,-3.5817,-3.6607,-3.7155,-3.8266,-3.8707,-3.8707,0.0,0.0,0.0,0.0,0.0,0.0,0.0,0.0,0.0,0.0,0.0,0.0,-4.1637,-4.2162,-4.2038,-4.1424,0.0,0.0,0.0,0.0,0.0,0.0,0.0,0.0,0.0,0.0,0.0,0.0,0.0,0.0,0.0,0.0,0.0,0.0,0.0,0.0,0.0,0.0,0.0,0.0,0.0,0.0,0.0,0.0,0.0,0.0,0.0,0.0,0.0,-4.9001,-4.9001,-4.9001,-4.9001,-4.9001,-4.9001,-4.9001,-4.9001,-4.9001,-4.9001,-4.9001,-4.9001,-4.9001,-4.9001,-4.9001,-4.9001,-4.9001,-4.9001,-4.9001,-4.9001,-4.9001,-4.9001,-4.9001,-4.9001,0.0,0.0,0.0,0.0,0.0,0.0,0.0,0.0,0.0,0.0,0.0,0.0,0.0,0.0,0.0,0.0,0.0,0.0,0.0,0.0,-3.1397,-3.1397,-3.2944,-3.3807,-3.3807,-3.3807,-3.3807,-3.3807,-3.3807,-3.3807,-3.3807,-3.3807,-3.3807,-3.3807,-3.388,-3.4362,-3.5188,-3.6046,-3.6868,-3.7676,-3.8414,-3.8707,-3.8707,-3.8707,0.0,0.0,0.0,0.0,0.0,0.0,0.0,0.0,0.0,-4.0089,-4.0159,-4.2185,-4.2769,-4.2655,-4.2041,0.0,0.0,0.0,0.0,0.0,0.0,0.0,0.0,0.0,0.0,0.0,0.0,0.0,0.0,0.0,0.0,0.0,0.0,0.0,0.0,0.0,0.0,0.0,0.0,0.0,0.0,0.0,0.0,0.0,0.0,0.0,0.0,0.0,-4.8978,-4.8978,-4.8978,-4.8978,-4.8968,0.0,-4.8975,-4.8995,-4.9001,-4.9001,-4.9001,-4.9001,-4.9001,-4.9001,-4.9001,-4.9001,-4.9001,-4.9001,-4.9001,-4.9001,-4.9001,-4.9001,-4.9001,-4.9001,0.0,0.0,0.0,0.0,0.0,0.0,0.0,0.0,0.0,0.0,0.0,0.0,0.0,0.0,0.0,0.0,0.0,0.0,0.0,0.0,-3.1397,-3.1397,-3.2944,-3.3807,-3.3807,-3.3807,-3.3807,-3.3807,-3.3807,-3.3807,-3.3807,-3.3807,-3.3807,-3.3825,-3.4454,-3.5224,-3.6064,-3.6905,-3.7713,-3.8469,-3.8634,-3.8707,-3.8707,-3.8707,-3.8707,0.0,0.0,0.0,0.0,0.0,0.0,0.0,-4.0615,-4.1279,-4.1902,-4.3011,-4.3339,-4.3214,0.0,-4.2693,0.0,0.0,0.0,0.0,0.0,0.0,0.0,0.0,0.0,0.0,0.0,0.0,0.0,0.0,0.0,0.0,0.0,0.0,0.0,0.0,0.0,0.0,0.0,0.0,0.0,0.0,0.0,0.0,0.0,0.0,0.0,-4.8767,-4.8767,-4.8767,-4.8767,-4.8767,-4.8789,0.0,-4.8839,-4.891,-4.9001,-4.9001,-4.9001,-4.9001,-4.9001,-4.9001,-4.9001,-4.9001,-4.9001,-4.9001,-4.9001,-4.9001,-4.9001,-4.9001,-4.9001,-4.9001,0.0,0.0,0.0,0.0,0.0,0.0,0.0,0.0,0.0,0.0,0.0,0.0,0.0,0.0,0.0,0.0,0.0,0.0,0.0,0.0,0.0,-3.2522,-3.3348,-3.3807,-3.3807,-3.3807,-3.3807,-3.3807,-3.3807,-3.3807,0.0,0.0,0.0,-3.438,-3.4821,-3.5701,-3.6905,-3.7327,-3.797,-3.8707,-3.8707,-3.8707,-3.8707,-3.8707,-3.8707,-3.8707,-3.8707,0.0,0.0,0.0,0.0,0.0,0.0,0.0,-4.2451,-4.3259,-4.3515,-4.3444,0.0,0.0,0.0,0.0,0.0,0.0,0.0,0.0,0.0,0.0,0.0,0.0,0.0,0.0,0.0,0.0,0.0,0.0,0.0,0.0,0.0,0.0,0.0,0.0,0.0,0.0,0.0,0.0,0.0,0.0,0.0,-4.8169,-4.8346,-4.8692,-4.8692,-4.8692,-4.8692,-4.8692,-4.8727,-4.8749,-4.8749,-4.898,-4.9417,-4.9133,-4.9001,-4.9001,-4.9001,-4.9001,-4.9001,-4.9001,-4.9001,-4.9001,-4.9001,-4.9001,-4.9001,-4.9001,-4.9001,-4.9001,0.0,0.0,0.0,0.0,0.0,0.0,0.0,0.0,0.0,0.0,0.0,0.0,0.0,0.0,0.0,0.0,0.0,0.0,0.0,0.0,0.0,0.0,-3.3807,-3.3807,-3.3807,-3.3807,-3.3807,-3.3807,0.0,0.0,0.0,0.0,0.0,-3.5023,0.0,-3.6083,-3.7511,-3.7658,-3.8083,-3.8707,-3.8707,-3.8707,-3.8707,-3.8707,-3.8707,-3.8707,-3.8707,-3.8799,-3.8909,-3.8909,0.0,0.0,0.0,0.0,-4.2635,-4.3313,-4.3515,-4.3515,0.0,0.0,0.0,0.0,0.0,0.0,0.0,0.0,0.0,0.0,0.0,0.0,0.0,0.0,0.0,0.0,0.0,0.0,0.0,0.0,0.0,0.0,0.0,0.0,0.0,0.0,0.0,0.0,0.0,0.0,-4.7689,-4.7725,-4.801,-4.8609,-4.8645,-4.8645,-4.8645,-4.8645,-4.8626,-4.8671,-4.8689,-4.9046,-4.9674,-4.9166,-4.9091,-4.9359,-4.9359,-4.9359,-4.9359,-4.9359,-4.9359,-4.9359,-4.9359,-4.9359,-4.9346,-4.9212,-4.9182,-4.9168,0.0,0.0,0.0,0.0,0.0,0.0,0.0,0.0,0.0,0.0,0.0,0.0,0.0,0.0,0.0,0.0,0.0,0.0,-3.1195,0.0,0.0,-3.3752,-3.3807,-3.3807,-3.3807,-3.3807,-3.3807,-3.3807,0.0,0.0,0.0,0.0,0.0,-3.5041,0.0,-3.6633,-3.7547,-3.823,-3.8597,-3.8707,-3.8707,-3.8707,-3.8707,-3.8707,-3.8707,-3.8707,-3.8707,-3.9148,-3.9735,-3.9735,-4.0744,0.0,0.0,0.0,-4.3368,-4.3478,-4.3515,-4.3515,0.0,0.0,0.0,0.0,0.0,0.0,0.0,0.0,0.0,0.0,0.0,0.0,0.0,0.0,0.0,0.0,0.0,0.0,0.0,0.0,0.0,0.0,0.0,0.0,0.0,0.0,0.0,0.0,0.0,0.0,-4.8201,-4.8219,-4.8256,-4.8346,-4.8346,-4.8346,-4.8346,-4.8346,-4.8408,-4.8538,-4.8644,-4.8763,-4.8869,-4.878,-4.9495,-5.0823,-5.0823,-5.0823,-5.0823,-5.0823,-5.0823,-5.0823,-5.0823,-5.0823,-5.0743,-5.0118,-4.9879,-4.9763,0.0,0.0,0.0,0.0,0.0,0.0,0.0,0.0,0.0,0.0,0.0,0.0,0.0,0.0,0.0,-3.0173,-3.0613,-3.1201,-3.2027,-3.2834,-3.344,-3.377,-3.3807,-3.3807,-3.3807,-3.3807,-3.3807,0.0,0.0,0.0,0.0,-3.4472,-3.4912,0.0,0.0,0.0,0.0,-3.856,-3.8707,-3.8707,-3.8707,-3.8707,-3.8762,-3.9203,-3.9368,-3.9423,-3.9866,-4.0286,-4.0579,-4.0579,-4.135,-4.2304,-4.2304,0.0,0.0,0.0,-4.3515,0.0,0.0,0.0,0.0,0.0,0.0,0.0,0.0,0.0,0.0,0.0,0.0,0.0,0.0,0.0,0.0,0.0,0.0,0.0,0.0,0.0,0.0,0.0,0.0,0.0,0.0,0.0,0.0,0.0,0.0,-4.8306,-4.8306,-4.8306,-4.8306,-4.8306,-4.8306,-4.8306,-4.8306,-4.8306,-4.8335,-4.8384,-4.8442,-4.8732,-4.9205,-4.9205,-4.9649,-5.0423,-5.0423,-5.0696,-5.1086,-5.1086,-5.1086,-5.1086,-5.1086,-5.1086,-5.106,-5.0743,-5.0608,-5.0581,0.0,0.0,0.0,0.0,0.0,0.0,0.0,0.0,0.0,0.0,0.0,0.0,0.0,0.0,0.0,0.0,-3.1366,-3.2045,-3.2839,-3.3476,-3.3807,-3.3807,-3.3807,-3.3807,-3.3807,-3.3807,0.0,0.0,0.0,0.0,-3.5004,-3.5224,-3.5789,0.0,-3.7235,-3.7936,0.0,0.0,0.0,0.0,-3.8707,-3.8707,-3.8799,-3.9588,-3.99,-4.001,-4.0802,-4.1224,-4.1389,-4.1389,-4.1937,-4.2598,-4.2598,-4.302,0.0,0.0,0.0,0.0,0.0,0.0,0.0,0.0,0.0,0.0,0.0,0.0,0.0,0.0,0.0,0.0,0.0,0.0,0.0,0.0,0.0,0.0,0.0,0.0,0.0,0.0,0.0,0.0,0.0,0.0,0.0,0.0,0.0,-4.8306,-4.8306,-4.8306,-4.8306,-4.8306,-4.8306,-4.8306,-4.8306,-4.8306,-4.8306,-4.8306,-4.8306,-4.8636,-4.928,-4.928,-4.9468,-4.9829,-5.0026,-5.0461,-5.1021,-5.1021,-5.1021,-5.1021,-5.1021,-5.1146,-5.129,-5.0877,-5.088,-5.1015,0.0,0.0,0.0,0.0,0.0,0.0,0.0,0.0,0.0,0.0,0.0,0.0,-3.0136,-3.0852,-3.1641,-3.2399,-3.2509,-3.2876,-3.3678,-3.377,-3.3807,-3.3807,-3.3807,0.0,-3.3807,-3.3807,0.0,0.0,0.0,0.0,-3.5023,-3.5862,-3.6666,-3.7437,-3.7474,-3.7936,-3.8707,0.0,0.0,0.0,0.0,0.0,0.0,0.0,0.0,0.0,0.0,-4.1589,-4.2249,-4.2249,-4.2763,-4.3441,-4.3441,-4.3478,-4.3515,0.0,0.0,0.0,0.0,0.0,0.0,0.0,0.0,0.0,0.0,0.0,0.0,0.0,0.0,0.0,0.0,0.0,0.0,0.0,0.0,0.0,0.0,0.0,0.0,0.0,0.0,0.0,0.0,0.0,0.0,0.0,0.0,-4.8306,-4.8306,-4.8306,-4.8306,-4.8306,-4.8306,-4.8306,-4.8306,-4.8306,-4.8306,-4.8306,-4.8306,-4.8324,-4.8379,-4.8379,-4.8818,-4.9658,-5.0428,-5.0794,-5.081,-5.081,-5.081,-5.081,-5.081,-5.1289,-5.1776,-5.0299,-5.0258,-5.0818,0.0,0.0,0.0,0.0,0.0,0.0,0.0,0.0,0.0,0.0,0.0,0.0,0.0,-3.1696,-3.2302,-3.2564,-3.306,-3.3495,-3.377,-3.3807,-3.3807,-3.3807,-3.3807,-3.3807,-3.3807,-3.3807,0.0,0.0,0.0,-3.5004,-3.5862,-3.667,-3.7511,-3.8267,-3.8267,-3.8432,-3.8707,-3.8707,0.0,0.0,0.0,0.0,0.0,0.0,0.0,0.0,0.0,0.0,0.0,-4.3057,-4.3259,-4.3515,-4.3515,-4.3515,-4.3515,-4.3515,-4.3515,0.0,0.0,0.0,0.0,0.0,0.0,0.0,0.0,0.0,0.0,0.0,0.0,0.0,0.0,0.0,0.0,0.0,0.0,0.0,0.0,0.0,0.0,0.0,0.0,0.0,0.0,0.0,0.0,0.0,0.0,0.0,-4.7498,-4.7516,-4.7755,-4.8288,-4.8306,-4.8306,-4.8306,-4.8306,-4.8306,-4.8306,-4.8306,-4.8306,-4.8306,-4.8306,-4.8471,-4.8783,-4.9077,-4.9811,-5.0802,-5.0802,-5.0802,-5.0802,-5.0802,-5.0986,-5.1167,-5.0613,-5.0584,-5.08,0.0,0.0,0.0,0.0,0.0,0.0,0.0,0.0,0.0,0.0,0.0,0.0,0.0,0.0,-3.2999,-3.2999,-3.3495,-3.3807,-3.3807,-3.3807,-3.3807,-3.3807,-3.3807,-3.3807,-3.3807,-3.3807,-3.3935,0.0,0.0,0.0,0.0,-3.7348,-3.8015,-3.8707,-3.8707,-3.8707,0.0,0.0,0.0,-3.9918,0.0,0.0,-4.1187,0.0,0.0,0.0,0.0,0.0,0.0,0.0,-4.3515,-4.3515,-4.3515,-4.3515,-4.3515,-4.3515,0.0,0.0,0.0,0.0,0.0,0.0,0.0,0.0,0.0,0.0,0.0,0.0,0.0,0.0,0.0,0.0,0.0,0.0,0.0,0.0,0.0,0.0,0.0,0.0,0.0,0.0,0.0,0.0,0.0,0.0,0.0,0.0,-4.6654,-4.6691,-4.7058,-4.7865,-4.7901,-4.8031,-4.8306,-4.8306,-4.8306,-4.8306,-4.8306,-4.8306,-4.8306,-4.8306,-4.8306,-4.8306,-4.8306,-4.893,-4.9958,-4.9958,-4.9958,-4.9958,-4.9958,-5.0141,-5.0362,-5.0068,-5.0141,-5.0398,0.0,0.0,0.0,0.0,0.0,0.0,0.0,0.0,0.0,-3.1342,0.0,0.0,0.0,0.0,0.0,-3.3807,-3.3807,-3.3807,-3.3807,-3.3807,-3.3807,-3.3807,-3.3839,-3.3839,-3.3839,-3.387,-3.4274,0.0,0.0,0.0,0.0,0.0,-3.8201,-3.8707,-3.8707,-3.8707,-3.8799,0.0,-3.9918,-4.0029,0.0,-4.115,-4.126,0.0,0.0,0.0,-4.3222,-4.3515,0.0,0.0,0.0,0.0,0.0,0.0,0.0,0.0,0.0,0.0,0.0,0.0,0.0,0.0,0.0,0.0,0.0,0.0,0.0,0.0,0.0,0.0,0.0,0.0,0.0,0.0,0.0,0.0,0.0,0.0,0.0,0.0,0.0,0.0,0.0,0.0,0.0,0.0,0.0,-4.5847,-4.5865,-4.5883,-4.6269,-4.7039,-4.7058,-4.7443,-4.8269,-4.8269,-4.8288,-4.8306,-4.8306,-4.8306,-4.8306,-4.8306,-4.8306,-4.8306,-4.8306,-4.8306,-4.8306,-4.8306,-4.8306,-4.8306,-4.8306,-4.882,-4.9463,-4.8618,-4.8838,-4.9555,0.0,0.0,0.0,0.0,0.0,0.0,0.0,0.0,0.0,0.0,0.0,0.0,-3.3403,-3.3678,-3.3807,-3.3807,-3.3807,-3.3807,-3.3807,-3.3807,-3.3807,-3.3807,-3.4598,-3.5027,-3.5027,-3.5846,-3.6374,0.0,0.0,0.0,0.0,0.0,0.0,0.0,-3.8707,-3.9019,-3.957,-3.9808,0.0,0.0,-4.1882,-4.2323,0.0,0.0,0.0,0.0,0.0,-4.3515,-4.3515,0.0,-4.3515,-4.3515,0.0,0.0,0.0,0.0,0.0,0.0,-4.3515,0.0,0.0,0.0,0.0,0.0,0.0,0.0,0.0,0.0,0.0,0.0,0.0,0.0,0.0,0.0,0.0,0.0,0.0,0.0,0.0,0.0,0.0,0.0,0.0,0.0,0.0,0.0,-4.403,-4.4415,-4.5002,-4.5571,-4.5993,-4.6232,-4.6232,-4.6636,-4.7424,-4.7424,-4.7718,-4.8306,-4.8306,-4.8306,-4.8306,-4.8306,-4.8306,-4.8306,-4.8306,-4.8306,-4.8306,-4.8306,-4.8306,-4.8306,-4.8306,-4.8453,-4.8636,-4.8398,-4.8453,-4.8655,0.0,0.0,0.0,0.0,0.0,0.0,0.0,0.0,0.0,0.0,0.0,0.0,-3.3765,-3.3807,-3.3855,-3.3961,-3.4301,-3.4562,-3.468,-3.502,-3.5225,-3.5225,-3.5846,-3.6212,-3.6212,-3.6861,0.0,0.0,0.0,0.0,0.0,0.0,0.0,0.0,0.0,0.0,0.0,0.0,0.0,0.0,-4.2671,0.0,0.0,-4.3515,-4.3515,0.0,0.0,0.0,-4.3515,-4.3515,-4.3515,0.0,0.0,0.0,0.0,0.0,0.0,0.0,0.0,0.0,0.0,0.0,0.0,0.0,0.0,-4.3515,0.0,0.0,0.0,0.0,0.0,0.0,0.0,0.0,0.0,0.0,0.0,0.0,0.0,0.0,0.0,0.0,0.0,0.0,0.0,-4.3515,-4.3515,-4.3699,-4.4176,-4.4635,-4.5039,-4.5388,-4.5406,-4.5792,-4.6581,-4.6599,-4.6984,-4.7791,-4.7791,-4.7994,-4.8306,-4.8306,-4.8306,-4.8306,-4.8306,-4.8306,-4.8306,-4.8306,-4.8306,-4.8306,-4.8306,-4.8306,-4.8306,-4.8306,-4.8306,-4.8306,0.0,0.0,0.0,0.0,0.0,0.0,0.0,0.0,0.0,0.0,-3.4434,-3.4184,-3.4005,-3.4023,-3.4166,-3.4496,-3.5245,-3.5784,-3.6036,-3.6766,-3.7192,-3.7192,-3.7318,-3.7396,-3.7396,-3.7522,0.0,0.0,0.0,0.0,0.0,0.0,0.0,0.0,0.0,0.0,0.0,0.0,0.0,-4.2506,-4.3221,-4.3515,0.0,0.0,-4.3515,0.0,-4.3515,-4.3515,-4.3515,-4.3515,-4.3515,0.0,0.0,0.0,0.0,0.0,-4.3515,0.0,0.0,0.0,0.0,0.0,0.0,0.0,-4.3515,-4.3515,-4.3515,0.0,0.0,0.0,0.0,0.0,0.0,0.0,0.0,0.0,0.0,0.0,0.0,0.0,0.0,0.0,0.0,-4.3515,-4.3515,-4.3515,-4.3515,-4.3515,-4.3515,-4.3515,-4.3828,-4.4526,-4.458,-4.4947,-4.5755,-4.5773,-4.6177,-4.6966,-4.6966,-4.7388,-4.8177,-4.8177,-4.8233,-4.8306,-4.8306,-4.8306,-4.8306,-4.8306,-4.8306,-4.8306,-4.8306,-4.8306,-4.8306,-4.8306,-4.8306,-4.8306,-3.2872,0.0,0.0,0.0,0.0,0.0,0.0,0.0,0.0,0.0,-3.4643,-3.476,-3.5137,-3.5364,-3.5794,-3.6548,-3.6767,-3.6882,-3.6936,-3.7116,-3.7192,-3.7192,-3.8089,-3.8575,-3.8575,-3.9416,0.0,0.0,0.0,0.0,0.0,0.0,0.0,0.0,0.0,0.0,0.0,0.0,0.0,-4.3277,-4.3441,0.0,-4.3515,-4.3515,-4.3515,-4.3515,-4.3515,-4.3515,-4.3515,0.0,-4.3515,-4.3515,0.0,0.0,0.0,0.0,0.0,0.0,0.0,0.0,0.0,0.0,0.0,0.0,-4.3515,-4.3515,-4.3515,0.0,0.0,0.0,0.0,0.0,0.0,0.0,0.0,0.0,0.0,0.0,0.0,0.0,0.0,0.0,0.0,-4.3515,-4.3515,-4.3515,-4.3515,-4.3515,-4.3515,-4.3515,-4.357,-4.3718,-4.3718,-4.4121,-4.4929,-4.4947,-4.5351,-4.614,-4.614,-4.6562,-4.7333,-4.7333,-4.7681,-4.8306,-4.8306,-4.8306,-4.8306,-4.8306,-4.8306,-4.8306,-4.8306,-4.8306,-4.8306,-4.8306,-4.8306,-4.8306,-3.4122,0.0,0.0,0.0,0.0,0.0,0.0,0.0,0.0,-3.5088,-3.5323,-3.5721,-3.628,-3.6473,-3.678,-3.7347,-3.7803,-3.8109,-3.824,-3.8612,-3.885,-3.885,-3.9397,-3.9698,-3.9698,-4.0218,0.0,0.0,0.0,0.0,0.0,0.0,0.0,0.0,0.0,0.0,0.0,0.0,-4.3229,-4.3742,-4.3563,0.0,-4.3515,-4.3515,-4.3515,-4.3515,-4.3515,-4.3515,-4.3515,-4.3515,-4.3515,0.0,0.0,-4.3515,-4.3515,0.0,-4.3515,-4.3515,0.0,0.0,0.0,-4.3515,0.0,0.0,0.0,-4.3515,0.0,0.0,0.0,0.0,0.0,0.0,0.0,0.0,0.0,0.0,0.0,0.0,0.0,0.0,0.0,0.0,0.0,-4.3515,-4.3515,-4.3515,-4.3515,-4.3515,-4.3515,-4.3515,-4.3515,-4.3515,-4.3515,-4.3681,-4.4103,-4.4103,-4.4507,-4.5296,-4.5296,-4.5718,-4.6526,-4.6911,-4.7314,-4.7718,-4.8141,-4.8306,-4.8306,-4.8306,-4.8306,-4.8306,-4.8306,-4.8306,-4.8306,-4.8306,-4.8306,-4.8306,-3.5365,0.0,0.0,0.0,0.0,0.0,0.0,0.0,0.0,0.0,-3.6227,-3.6859,-3.7447,0.0,0.0,0.0,-3.8798,-3.9289,0.0,0.0,0.0,-4.0496,-4.0496,-4.0496,-4.0496,-4.0496,-4.0496,0.0,0.0,0.0,0.0,0.0,0.0,0.0,0.0,0.0,0.0,0.0,0.0,-4.4087,0.0,-4.3662,-4.3597,-4.3513,-4.3515,-4.3515,-4.3515,-4.3515,-4.3515,-4.3515,0.0,-4.3515,-4.3515,-4.3515,0.0,0.0,0.0,0.0,0.0,0.0,0.0,0.0,0.0,-4.3515,0.0,0.0,0.0,0.0,0.0,0.0,0.0,0.0,0.0,0.0,0.0,0.0,0.0,0.0,0.0,0.0,0.0,0.0,0.0,-4.3515,-4.3515,-4.3515,-4.3515,-4.3515,-4.3515,-4.3515,-4.3515,-4.3515,-4.3515,-4.3515,-4.3515,-4.3515,-4.3828,-4.447,-4.447,-4.4892,-4.5681,-4.6324,-4.6709,-4.6911,-4.7718,-4.8086,-4.8067,-4.8251,-4.8306,-4.8306,-4.8306,-4.8306,-4.8306,-4.8306,-4.8306,-4.8306,-3.5481,-3.55,0.0,0.0,0.0,0.0,0.0,0.0,0.0,0.0,0.0,0.0,0.0,0.0,0.0,0.0,0.0,0.0,-4.0362,0.0,0.0,0.0,0.0,0.0,-4.0496,-4.0496,-4.0496,0.0,0.0,0.0,0.0,0.0,0.0,0.0,-4.3745,0.0,0.0,0.0,-4.4501,0.0,-4.4487,-4.4266,0.0,-4.3595,-4.3515,-4.3515,-4.3515,-4.3515,-4.3515,0.0,-4.3515,-4.3515,0.0,-4.3515,0.0,0.0,0.0,0.0,0.0,0.0,0.0,0.0,-4.3515,0.0,0.0,0.0,0.0,0.0,0.0,0.0,0.0,0.0,0.0,0.0,0.0,0.0,0.0,0.0,0.0,0.0,0.0,0.0,0.0,0.0,-4.3515,-4.3515,-4.3515,-4.3515,-4.3515,-4.3515,-4.3515,-4.3515,-4.3515,-4.3515,-4.3515,-4.3515,-4.3551,-4.3626,-4.3626,-4.4066,-4.4838,-4.4947,-4.5369,-4.6085,-4.6874,-4.7241,-4.7278,-4.8012,-4.8306,-4.8306,-4.8306,-4.8306,-4.8306,-4.8306,-4.8306,-4.8306,-3.55,-3.55,0.0,0.0,0.0,0.0,0.0,0.0,0.0,0.0,0.0,0.0,0.0,0.0,0.0,0.0,0.0,-4.0496,0.0,0.0,0.0,0.0,0.0,0.0,0.0,-4.0989,-4.1258,-4.1258,-4.1758,0.0,0.0,0.0,0.0,0.0,-4.4468,0.0,-4.5074,0.0,0.0,0.0,0.0,0.0,0.0,-4.4001,-4.3679,-4.3515,-4.3515,-4.3515,-4.3515,0.0,-4.3515,0.0,0.0,0.0,0.0,0.0,0.0,0.0,0.0,0.0,0.0,0.0,0.0,0.0,0.0,0.0,-4.3515,0.0,0.0,0.0,0.0,0.0,0.0,0.0,0.0,0.0,0.0,0.0,0.0,0.0,0.0,0.0,0.0,0.0,0.0,0.0,0.0,-4.3515,-4.3515,-4.3515,-4.3515,-4.3515,-4.3515,-4.3515,-4.3515,-4.3515,-4.3515,-4.3515,-4.3515,-4.368,-4.4011,-4.4488,-4.4892,-4.5259,-4.6049,-4.6654,-4.7131,-4.7461,-4.7865,-4.8306,-4.8306,-4.8306,-4.8306,-4.8306,-4.8306,-4.8306,-3.6192,0.0,0.0,0.0,0.0,0.0,0.0,0.0,0.0,0.0,0.0,0.0,-4.0439,-4.0708,0.0,0.0,0.0,-4.1112,0.0,0.0,-4.0997,0.0,0.0,0.0,0.0,0.0,0.0,-4.2162,0.0,0.0,0.0,0.0,0.0,0.0,0.0,-4.5232,-4.5222,0.0,0.0,-4.5222,-4.4966,-4.4966,-4.5011,-4.4271,-4.3788,-4.3515,-4.3515,-4.3515,-4.3515,-4.3515,-4.3515,0.0,-4.3515,0.0,0.0,0.0,0.0,0.0,-4.3515,0.0,0.0,0.0,0.0,0.0,0.0,0.0,0.0,0.0,0.0,0.0,0.0,0.0,0.0,0.0,0.0,0.0,0.0,0.0,0.0,0.0,0.0,0.0,0.0,0.0,0.0,0.0,-4.3515,-4.3515,-4.3515,-4.3515,-4.3515,-4.3515,-4.3515,-4.3515,-4.3515,-4.3515,-4.3515,-4.3515,-4.3515,-4.3515,-4.3533,-4.4103,-4.4378,-4.4415,-4.5223,-4.5902,-4.647,-4.6911,-4.7443,-4.7975,-4.8214,-4.8306,-4.8306,-4.8306,-4.8306,-4.8306,-3.7911,-3.6615,0.0,0.0,0.0,0.0,0.0,0.0,0.0,0.0,0.0,0.0,0.0,0.0,0.0,0.0,0.0,-4.2662,-4.1808,0.0,-4.2258,0.0,0.0,-4.2624,0.0,0.0,0.0,0.0,0.0,0.0,0.0,0.0,0.0,0.0,0.0,-4.5577,-4.5577,-4.5577,-4.5577,-4.5577,-4.5577,-4.539,-4.5011,0.0,-4.3788,-4.3515,-4.3515,0.0,0.0,-4.3515,-4.3515,0.0,0.0,0.0,0.0,0.0,0.0,0.0,0.0,0.0,0.0,-4.3515,0.0,0.0,0.0,0.0,-4.3515,0.0,0.0,0.0,0.0,0.0,0.0,0.0,0.0,0.0,0.0,0.0,0.0,0.0,0.0,0.0,0.0,0.0,0.0,-4.3515,-4.3515,-4.3515,-4.3515,-4.3515,-4.3515,-4.3515,-4.3515,-4.3515,-4.3515,-4.3515,-4.3515,-4.3515,-4.3515,-4.3515,-4.3515,-4.3533,-4.3551,-4.3588,-4.4397,-4.4746,-4.4893,-4.6452,-4.7113,-4.7223,-4.8012,-4.8306,-4.8306,-4.8306,-4.8306,-4.8306,0.0,0.0,0.0,0.0,0.0,0.0,0.0,-3.9554,0.0,0.0,0.0,0.0,0.0,0.0,-4.2662,0.0,0.0,-4.297,-4.2681,-4.2931,0.0,0.0,0.0,-4.297,0.0,0.0,0.0,0.0,0.0,0.0,0.0,0.0,0.0,0.0,0.0,-4.5594,0.0,0.0,0.0,0.0,0.0,-4.54,-4.5052,0.0,0.0,-4.4242,-4.4242,-4.4242,0.0,-4.4242,-4.4242,-4.4242,-4.4242,-4.4242,-4.4184,-4.3912,-4.402,0.0,0.0,0.0,-4.415,-4.3896,0.0,0.0,0.0,0.0,0.0,0.0,0.0,0.0,0.0,0.0,0.0,0.0,0.0,0.0,0.0,0.0,0.0,0.0,0.0,0.0,0.0,0.0,0.0,-4.3515,-4.3515,-4.3515,0.0,-4.3515,-4.3515,-4.3515,-4.3515,-4.3515,-4.3515,-4.3515,-4.3515,-4.3515,-4.3515,-4.3515,-4.3515,-4.3515,-4.3515,-4.3533,-4.3791,-4.4213,-4.4728,-4.5278,-4.614,-4.7131,-4.7388,-4.7828,-4.8306,-4.8306,-4.8306,-4.8306,-3.8892,0.0,0.0,0.0,0.0,0.0,0.0,0.0,0.0,0.0,-4.145,0.0,-4.2239,0.0,-4.3528,0.0,-4.3816,-4.3855,-4.3547,-4.3816,0.0,-4.3124,-4.3662,0.0,0.0,0.0,0.0,0.0,0.0,-4.5594,0.0,0.0,0.0,0.0,0.0,0.0,0.0,0.0,-4.5594,0.0,0.0,-4.5476,0.0,0.0,-4.4806,-4.4593,0.0,-4.4593,-4.4593,-4.4593,-4.4593,-4.4593,-4.4593,-4.4593,-4.454,-4.4276,-4.4406,-4.454,-4.4276,-4.4387,0.0,-4.4276,-4.4204,0.0,-4.3946,0.0,0.0,0.0,0.0,0.0,0.0,0.0,0.0,0.0,0.0,0.0,0.0,-4.371,0.0,0.0,0.0,0.0,0.0,0.0,-4.3629,-4.3515,-4.3614,-4.3631,0.0,0.0,-4.3515,-4.3515,-4.3515,-4.3515,-4.3515,-4.3515,-4.3515,-4.3515,-4.3515,-4.3515,-4.3515,-4.3515,-4.3515,-4.3515,-4.3515,-4.3791,-4.4305,-4.458,-4.548,-4.6691,-4.6984,-4.759,-4.8306,-4.8306,-4.8306,-4.8306,0.0,0.0,0.0,0.0,-3.9996,0.0,0.0,0.0,-4.0873,0.0,-4.1904,-4.2239,-4.3066,-4.3874,-4.4355,-4.4355,-4.5133,0.0,-4.4412,-4.5152,0.0,0.0,-4.4748,-4.521,-4.4374,0.0,0.0,0.0,0.0,0.0,0.0,0.0,0.0,0.0,-4.5594,0.0,-4.5594,-4.5594,-4.5594,-4.5594,-4.5594,-4.5594,-4.5594,-4.5594,-4.5192,-4.4644,-4.4644,-4.4644,-4.4644,-4.4644,-4.4644,-4.4644,-4.4644,-4.4644,-4.4663,-4.4618,-4.465,-4.4663,-4.4618,-4.465,-4.4663,-4.4618,0.0,0.0,0.0,0.0,-4.4593,0.0,0.0,0.0,0.0,0.0,0.0,0.0,0.0,0.0,0.0,0.0,0.0,0.0,0.0,0.0,0.0,-4.3788,-4.3833,-4.3513,-4.382,0.0,0.0,0.0,-4.3513,-4.3515,-4.3515,-4.3515,-4.3515,-4.3515,-4.3515,-4.3515,-4.3515,-4.3515,-4.3515,-4.3515,-4.3515,-4.3515,-4.3515,-4.3515,-4.357,-4.4323,-4.5149,-4.5975,-4.6727,-4.7553,-4.8306,-4.8306,-4.8306,-4.8306,-4.0496,-4.0496,-4.0439,0.0,-4.0362,-4.0727,0.0,0.0,0.0,0.0,-4.3297,-4.3739,-4.397,-4.4739,-4.5267,-4.5267,-4.5479,0.0,0.0,0.0,0.0,-4.4979,-4.5364,-4.5498,-4.5267,-4.5498,0.0,-4.5594,0.0,0.0,-4.5594,0.0,0.0,0.0,0.0,0.0,-4.5594,-4.5594,-4.5594,-4.5594,-4.5594,-4.5594,0.0,0.0,-4.5495,-4.5342,-4.5342,-4.5342,-4.5342,-4.5342,-4.5342,-4.5342,-4.5342,-4.5342,-4.5283,-4.5033,-4.514,-4.5283,-4.5041,-4.515,-4.5273,-4.5022,-4.4966,-4.4908,0.0,0.0,0.0,0.0,0.0,0.0,0.0,0.0,0.0,0.0,0.0,0.0,0.0,0.0,0.0,0.0,0.0,0.0,0.0,-4.358,-4.3597,-4.3515,-4.382,0.0,0.0,0.0,0.0,-4.3515,-4.3515,-4.3515,-4.3515,-4.3515,-4.3515,-4.3515,-4.3515,-4.3515,-4.3515,-4.3515,-4.3515,-4.3515,-4.3515,-4.3515,-4.3533,-4.3718,-4.4617,-4.592,-4.6122,-4.7076,-4.8306,-4.8306,-4.8306,-4.8306,-4.0496,0.0,0.0,-4.1066,0.0,0.0,-4.1769,0.0,0.0,-4.3508,-4.4028,0.0,-4.4816,-4.5306,-4.5594,-4.5594,-4.5594,0.0,0.0,0.0,0.0,-4.5594,-4.5594,-4.5594,-4.5594,-4.5594,0.0,-4.5594,0.0,0.0,-4.5594,0.0,0.0,0.0,0.0,-4.5594,0.0,-4.5594,-4.5594,-4.5594,-4.5594,0.0,0.0,-4.5594,-4.5594,-4.5594,-4.5594,-4.5594,-4.5594,-4.5594,-4.5594,-4.5594,-4.5594,-4.5594,-4.5568,-4.5362,-4.5448,-4.5559,-4.5362,-4.5467,-4.554,-4.5381,-4.5322,-4.5263,-4.5085,-4.5033,-4.5033,0.0,0.0,0.0,0.0,0.0,0.0,0.0,0.0,0.0,0.0,0.0,0.0,0.0,0.0,0.0,0.0,0.0,0.0,0.0,0.0,0.0,0.0,0.0,0.0,-4.3992,-4.3992,-4.3899,-4.3726,-4.3726,-4.3646,-4.3515,-4.3515,-4.358,-4.3726,-4.3726,-4.3804,-4.3992,-4.3992,-4.3992,-4.3992,-4.3992,-4.4925,-4.6452,-4.6974,-4.7666,-4.8306,-4.8306,-4.8306,-4.8306,0.0,0.0,0.0,0.0,0.0,0.0,0.0,-4.2777,0.0,-4.4355,0.0,-4.4759,-4.5518,-4.5594,-4.5594,-4.5594,0.0,-4.5594,-4.5594,-4.5594,-4.5594,-4.5594,-4.5594,-4.5594,-4.5594,-4.5594,0.0,0.0,0.0,0.0,0.0,0.0,0.0,0.0,0.0,0.0,0.0,-4.5594,-4.5594,0.0,-4.5594,-4.5594,-4.5594,-4.5594,-4.5594,-4.5594,-4.5594,-4.5594,-4.5594,-4.5594,-4.5594,-4.5594,-4.5594,-4.5594,-4.5594,-4.5594,-4.5594,-4.5594,-4.5594,-4.5594,-4.5594,-4.5594,-4.5594,-4.5594,-4.5594,-4.5594,-4.5594,-4.5594,-4.5594,-4.5594,0.0,0.0,0.0,0.0,0.0,0.0,0.0,0.0,0.0,0.0,0.0,0.0,0.0,0.0,0.0,0.0,0.0,0.0,0.0,0.0,0.0,-4.458,-4.4593,0.0,-4.4073,0.0,-4.3943,-4.3647,-4.358,-4.3726,-4.4001,-4.3955,-4.4136,-4.4447,-4.4447,-4.4447,-4.4447,-4.4447,-4.5406,-4.6999,-4.831,-4.8622,-4.8306,-4.8364,-4.8345,-4.8306,0.0,0.0,0.0,0.0,0.0,-4.4047,-4.3893,-4.3989,-4.4393,-4.5267,-4.5364,-4.5441,-4.5575,-4.5594,-4.5594,-4.5594,-4.5594,0.0,0.0,0.0,0.0,-4.5594,-4.5594,-4.5594,-4.5594,-4.5594,-4.5594,0.0,0.0,0.0,0.0,0.0,0.0,0.0,0.0,0.0,-4.5594,-4.5594,0.0,-4.5594,-4.5594,-4.5594,-4.5594,-4.5594,-4.5594,-4.5594,-4.5594,-4.5594,-4.5594,-4.5594,-4.5594,-4.5594,-4.5594,-4.5594,-4.5594,-4.5594,-4.5594,-4.5594,-4.5594,-4.5594,-4.5594,-4.5594,-4.5594,-4.5594,-4.5594,-4.5594,-4.5594,-4.5594,-4.5594,-4.5594,-4.5594,0.0,0.0,0.0,0.0,0.0,0.0,0.0,0.0,0.0,0.0,0.0,0.0,0.0,0.0,0.0,0.0,0.0,0.0,0.0,0.0,0.0,-4.4593,0.0,0.0,0.0,-4.446,-4.4406,-4.4076,-4.394,-4.4001,-4.371,-4.3631,-4.3695,-4.3695,-4.3695,-4.3695,-4.3695,-4.4638,-4.6262,-4.7813,-4.8364,-4.8326,-4.8675,-4.8586,-4.8306,0.0,0.0,0.0,0.0,0.0,0.0,0.0,-4.4979,0.0,-4.5556,-4.5594,-4.5594,-4.5594,-4.5594,-4.5594,-4.5594,-4.5594,-4.5594,-4.5594,-4.5594,-4.5594,-4.5594,-4.5594,0.0,-4.5594,-4.5594,-4.5594,-4.5594,0.0,0.0,0.0,0.0,0.0,0.0,0.0,-4.5594,0.0,0.0,0.0,-4.5594,-4.5594,-4.5594,-4.5594,-4.5594,-4.5594,-4.5594,-4.5594,-4.5594,-4.5594,-4.5594,-4.5594,-4.5594,-4.5594,-4.5594,-4.5594,-4.5594,-4.5594,-4.5594,-4.5594,-4.5594,-4.5594,-4.5594,-4.5594,-4.5594,-4.5594,-4.5594,-4.5594,-4.5594,-4.5594,-4.5594,-4.5594,-4.5594,0.0,0.0,0.0,0.0,0.0,0.0,0.0,0.0,0.0,0.0,0.0,0.0,0.0,0.0,0.0,0.0,0.0,0.0,0.0,0.0,0.0,0.0,0.0,0.0,0.0,-4.4612,-4.4387,-4.4401,-4.4574,-4.4401,-4.4409,-4.4594,-4.4594,-4.4594,-4.4669,-4.5532,-4.6209,-4.6911,-4.8577,-4.911,-4.8965,-4.9139,-4.9094,-4.888,0.0,-4.4143,0.0,0.0,-4.5152,0.0,-4.5594,-4.5594,-4.5594,-4.5594,-4.5594,-4.5594,-4.5594,-4.5594,-4.5594,-4.5594,-4.5594,-4.5594,-4.5594,-4.5594,-4.5594,-4.5594,-4.5594,-4.5594,-4.5594,-4.5594,-4.5594,0.0,0.0,0.0,0.0,0.0,0.0,0.0,0.0,0.0,0.0,0.0,-4.5594,-4.5594,-4.5594,-4.5594,-4.5594,-4.5594,-4.5594,-4.5594,-4.5594,-4.5594,-4.5594,-4.5594,-4.5594,-4.5594,-4.5594,-4.5594,-4.5594,-4.5594,-4.5594,-4.5594,-4.5594,-4.5594,-4.5594,-4.5594,-4.5594,-4.5594,-4.5594,-4.5594,-4.5594,-4.5594,-4.5594,-4.5594,-4.5594,-4.5594,0.0,0.0,0.0,0.0,0.0,0.0,0.0,0.0,0.0,0.0,0.0,0.0,0.0,0.0,0.0,0.0,0.0,0.0,0.0,0.0,0.0,-4.5457,-4.5211,0.0,-4.5074,0.0,-4.4732,-4.4849,-4.5096,-4.503,-4.5129,-4.54,-4.54,-4.54,-4.5515,-4.7173,-4.7677,-4.7559,-4.9296,-4.9773,-4.9504,-4.9608,-4.9561,-4.946,0.0,0.0,0.0,0.0,0.0,0.0,0.0,-4.5594,-4.5594,-4.5594,-4.5594,-4.5594,-4.5594,-4.5594,-4.5594,-4.5594,-4.5594,-4.5594,-4.5594,-4.5594,-4.5594,-4.5594,-4.5594,-4.5594,-4.5594,-4.5594,-4.5594,0.0,0.0,0.0,0.0,0.0,0.0,0.0,0.0,0.0,0.0,-4.5594,-4.5594,-4.5594,-4.5594,-4.5594,-4.5594,-4.5594,-4.5594,-4.5594,-4.5594,-4.5594,-4.5594,-4.5594,-4.5594,-4.5594,-4.5594,-4.5594,-4.5594,-4.5594,-4.5594,-4.5594,-4.5594,-4.5594,-4.5594,-4.5594,-4.5594,-4.5594,-4.5594,-4.5594,-4.5594,-4.5594,-4.5594,-4.5594,-4.5594,-4.5594,-4.5594,0.0,0.0,0.0,0.0,0.0,0.0,0.0,0.0,0.0,0.0,0.0,0.0,0.0,0.0,0.0,0.0,0.0,0.0,-4.4297,0.0,-4.5586,-4.5559,-4.5559,-4.555,-4.5504,-4.5201,-4.5074,-4.5085,-4.4788,-4.4657,-4.4695,-4.4695,-4.4695,-4.4815,-4.6441,-4.7076,-4.7205,-4.8905,-4.9532,-4.9532,-4.9911,-4.9813,-4.9566,0.0,0.0,0.0,0.0,0.0,0.0,0.0,-4.5594,-4.5594,-4.5594,-4.5594,-4.5594,-4.5594,-4.5594,-4.5594,-4.5594,-4.5594,-4.5594,-4.5594,-4.5594,-4.5594,-4.5594,-4.5594,-4.5594,-4.5594,-4.5594,-4.5594,0.0,0.0,0.0,0.0,0.0,0.0,0.0,0.0,-4.5594,-4.5594,-4.5594,-4.5594,-4.5594,-4.5594,-4.5594,-4.5594,-4.5594,-4.5594,-4.5594,-4.5594,-4.5594,-4.5594,-4.5594,-4.5594,-4.5594,-4.5594,-4.5594,-4.5594,-4.5594,-4.5594,-4.5594,-4.5594,-4.5594,-4.5594,-4.5594,-4.5594,-4.5594,-4.5594,-4.5594,-4.5594,-4.5594,-4.5594,-4.5594,-4.5594,-4.5594,-4.5594,0.0,0.0,0.0,0.0,0.0,0.0,0.0,0.0,0.0,0.0,0.0,0.0,0.0,0.0,0.0,0.0,0.0,0.0,-4.4278,0.0,-4.5594,-4.5594,-4.5594,-4.5594,-4.5594,-4.5457,-4.54,-4.54,-4.5263,-4.5192,-4.5192,-4.5192,-4.5192,-4.5326,-4.6978,-4.7665,-4.7837,-4.9557,-5.0225,-5.0249,-5.0399,-5.0358,-5.0249,-4.5832,0.0,-4.5684,0.0,-4.5684,-4.5684,-4.5684,-4.5684,-4.5684,-4.5684,-4.5684,-4.5677,-4.5612,-4.5594,-4.5594,-4.5594,-4.5594,-4.5594,-4.5594,-4.5594,-4.5594,-4.5594,-4.5594,0.0,-4.5594,-4.5594,-4.5594,-4.5594,-4.5594,0.0,0.0,0.0,0.0,0.0,-4.5594,-4.5594,-4.5594,-4.5594,-4.5594,-4.5594,-4.5594,-4.5594,-4.5594,-4.5594,-4.5594,-4.5594,-4.5594,-4.5594,-4.5594,-4.5594,-4.5594,-4.5594,-4.5594,-4.5594,-4.5594,-4.5594,-4.5594,-4.5594,-4.5594,-4.5594,-4.5594,-4.5594,-4.5594,-4.5594,-4.5594,-4.5594,-4.5594,-4.5594,-4.5594,-4.5594,-4.5594,-4.5594,-4.5594,-4.5594,0.0,0.0,0.0,0.0,0.0,0.0,0.0,-4.3374,-4.1942,0.0,0.0,0.0,0.0,0.0,0.0,0.0,0.0,0.0,0.0,0.0,0.0,-4.5594,-4.5594,-4.5594,-4.5594,-4.5594,-4.5594,-4.5594,-4.5594,-4.5594,-4.5594,-4.5594,-4.5729,-4.7413,-4.8105,-4.8279,-5.001,-5.0712,-5.0712,-5.0712,-5.0712,-5.0712,-4.5899,-4.5899,-4.5894,-4.5894,-4.5894,-4.5894,-4.5894,-4.5894,-4.5894,-4.5894,-4.5894,-4.5814,-4.5618,-4.5594,-4.5594,-4.5594,-4.5594,-4.5594,-4.5594,-4.5594,-4.5594,0.0,0.0,-4.5594,-4.5594,-4.5594,-4.5594,-4.5594,0.0,0.0,-4.4316,0.0,-4.4778,-4.5594,-4.5594,-4.5594,-4.5594,-4.5594,-4.5594,-4.5594,-4.5594,-4.5594,-4.5594,-4.5594,-4.5594,-4.5594,-4.5594,-4.5594,-4.5594,-4.5594,-4.5594,-4.5594,-4.5594,-4.5594,-4.5594,-4.5594,-4.5594,-4.5594,-4.5594,-4.5594,-4.5594,-4.5594,-4.5594,-4.5594,-4.5594,-4.5594,-4.5594,-4.5594,-4.5594,-4.5594,-4.5594,-4.5594,-4.5594,-4.5594,0.0,0.0,0.0,0.0,0.0,0.0,-4.3605,-4.2777,-4.1885,0.0,0.0,0.0,0.0,0.0,0.0,0.0,0.0,-4.4278,-4.5152,0.0,-4.5594,-4.5594,-4.5594,-4.5594,-4.5594,-4.5594,-4.5594,-4.5594,-4.5594,-4.5594,-4.5594,-4.5594,-4.5729,-4.7413,-4.8105,-4.8279,-5.001,-5.0712,-5.0712,-5.0712,-5.0712,-5.0712,-4.6919,-4.7322,-4.7663,-4.7663,-4.7663,-4.7469,-4.688,-4.6783,-4.6565,-4.5977,-4.5899,-4.5872,-4.5803,-4.577,-4.5733,0.0,-4.564,-4.5594,0.0,-4.5594,-4.5594,-4.5594,-4.5594,-4.5594,-4.5594,-4.5594,-4.5594,-4.5594,0.0,0.0,0.0,-4.519,-4.5325,-4.5594,-4.5594,-4.5594,-4.5594,-4.5594,-4.5594,-4.5594,-4.5594,-4.5594,-4.5594,-4.5594,-4.5594,-4.5594,-4.5594,-4.5594,-4.5594,-4.5594,-4.5594,-4.5594,-4.5594,-4.5594,-4.5594,-4.5594,-4.5594,-4.5594,-4.5594,-4.5594,-4.5594,-4.5594,-4.5594,-4.5594,-4.5594,-4.5594,-4.5594,-4.5594,-4.5594,-4.5594,-4.5594,-4.5594,-4.5594,-4.5594,-4.5594,0.0,0.0,0.0,0.0,0.0,0.0,-4.3585,0.0,-4.2431,0.0,0.0,0.0,0.0,0.0,0.0,0.0,0.0,-4.546,0.0,-4.5594,-4.5594,-4.5594,-4.5594,-4.5594,-4.5594,-4.5594,-4.5594,-4.5594,-4.5594,-4.5594,-4.5594,-4.5729,-4.7413,-4.8105,-4.8279,-5.001,-5.0712,-5.0712,-5.0712,-5.0712,-5.0712,-4.7952,-4.8322,-4.8647,-4.8647,-4.8647,-4.8471,-4.7922,-4.7552,-4.714,-4.6613,-4.6242,-4.6045,-4.6045,-4.5963,0.0,-4.5836,-4.5757,-4.5715,-4.5715,-4.5715,-4.5715,-4.5715,-4.5681,-4.568,-4.568,0.0,0.0,-4.5594,-4.5594,-4.5594,-4.5594,-4.5594,-4.5594,-4.5594,-4.5594,-4.5594,-4.5594,-4.5594,-4.5594,-4.5594,-4.5594,-4.5594,-4.5594,-4.5594,-4.5594,-4.5594,-4.5594,-4.5594,-4.5594,-4.5594,-4.5594,-4.5594,-4.5594,-4.5594,-4.5594,-4.5594,-4.5594,-4.5594,-4.5594,-4.5594,-4.5594,-4.5594,-4.5594,-4.5594,-4.5594,-4.5594,-4.5594,-4.5594,-4.5594,-4.5594,-4.5594,-4.5594,-4.5594,-4.5594,-4.5594,-4.5594,-4.5594,0.0,0.0,0.0,0.0,0.0,0.0,-4.3278,0.0,0.0,0.0,0.0,0.0,0.0,0.0,-4.5575,-4.5594,0.0,-4.5594,-4.5594,-4.5594,-4.5594,-4.5594,-4.5594,-4.5594,-4.5594,-4.5594,-4.5594,-4.5594,-4.5594,-4.5729,-4.7413,-4.8105,-4.8279,-5.001,-5.0712,-5.0712,-5.0712,-5.0712,-5.0712,-4.8984,-4.9043,0.0,0.0,-4.9062,0.0,-4.9004,-4.8242,-4.7676,-4.7617,-4.6836,-4.6308,-4.6308,-4.6198,-4.6053,-4.5932,0.0,0.0,0.0,-4.5899,-4.5899,-4.5899,-4.5842,-4.5816,-4.5816,-4.5685,-4.5618,-4.5618,-4.562,-4.562,-4.5612,-4.5603,-4.5594,-4.5594,-4.5594,-4.5594,-4.5594,-4.5594,-4.5594,-4.5594,-4.5594,-4.5594,-4.5594,-4.5594,-4.5594,-4.5594,-4.5594,-4.5594,-4.5594,-4.5594,-4.5594,-4.5594,-4.5594,-4.5594,-4.5594,-4.5594,-4.5594,-4.5594,-4.5594,-4.5594,-4.5594,-4.5594,-4.5594,-4.5594,-4.5594,-4.5594,-4.5594,-4.5594,-4.5594,-4.5594,-4.5594,-4.5594,-4.5594,-4.5594,-4.5594,-4.5594,-4.5594,0.0,0.0,0.0,0.0,0.0,0.0,-4.3701,-4.3585,0.0,0.0,0.0,0.0,0.0,-4.4759,-4.5575,-4.5594,-4.5594,-4.5594,-4.5594,-4.5594,-4.5594,-4.5594,-4.5594,-4.5594,-4.5594,-4.5594,-4.5594,-4.5594,-4.5594,-4.5729,-4.7413,-4.8105,-4.8279,-5.001,-5.0712,-5.0712,-5.0712,-5.0712,-5.0712,0.0,0.0,-5.0801,-5.0801,-5.0801,-5.0605,-4.998,-4.9141,-4.8359,-4.7695,-4.6836,-4.6308,-4.6308,-4.6268,-4.6246,-4.6202,-4.6027,-4.5899,-4.5899,-4.5899,-4.5899,-4.5899,-4.5872,-4.5877,-4.5877,-4.5846,-4.5825,-4.5825,-4.5783,-4.5754,-4.5754,-4.5651,-4.5594,-4.5594,-4.5594,-4.5594,-4.5594,-4.5594,-4.5594,-4.5594,-4.5594,-4.5594,-4.5594,-4.5594,-4.5594,-4.5594,-4.5594,-4.5594,-4.5594,-4.5594,-4.5594,-4.5594,-4.5594,-4.5594,-4.5594,-4.5594,-4.5594,-4.5594,-4.5594,-4.5594,-4.5594,-4.5594,-4.5594,-4.5594,-4.5594,-4.5594,-4.5594,-4.5594,-4.5594,-4.5594,-4.5594,-4.5594,-4.5594,-4.5594,-4.5594,-4.5594,-4.5594,-4.5594,0.0,0.0,-4.5421,-4.5287,-4.5287,-4.5114,-4.5094,0.0,0.0,0.0,0.0,-4.5402,-4.5383,-4.5594,-4.5594,-4.5594,-4.5594,-4.5594,-4.5594,-4.5594,-4.5594,-4.5594,-4.5594,-4.5594,-4.5594,-4.5594,-4.5594,-4.5594,-4.5729,-4.7413,-4.8105,-4.8279,-5.001,-5.0712,-5.0712,-5.0712,-5.0712,-5.0712,-5.0742,-5.1094,-5.1406,-5.1406,-5.1406,-5.125,-5.082,-4.9707,-4.873,-4.8262,-4.709,-4.6308,-4.6308,-4.6308,-4.6308,-4.6308,-4.6173,-4.6082,-4.6082,-4.6082,-4.6082,-4.6082,-4.6011,-4.5992,-4.5992,-4.5928,-4.5899,-4.5899,-4.5852,-4.5853,-4.5847,-4.5764,-4.5737,-4.5737,-4.5703,-4.5685,-4.5696,-4.5637,-4.5594,-4.5594,-4.5594,-4.5594,-4.5594,-4.5594,-4.5594,-4.5594,-4.5594,-4.5594,-4.5594,-4.5594,-4.5594,-4.5594,-4.5594,-4.5594,-4.5594,-4.5594,-4.5594,-4.5594,-4.5594,-4.5594,-4.5594,-4.5594,-4.5594,-4.5594,-4.5594,-4.5594,-4.5594,-4.5594,-4.5594,-4.5594,-4.5594,-4.5594,-4.5594,-4.5594,-4.5594,-4.5594,-4.5594,-4.5594,0.0,-4.5594,-4.5594,-4.5594,-4.5594,-4.5594,-4.5594,-4.5594,0.0,0.0,-4.5594,-4.5594,-4.5594,-4.5594,-4.5594,-4.5594,-4.5594,-4.5594,-4.5594,-4.5594,-4.5594,-4.5594,-4.5594,-4.5594,-4.5594,-4.5594,-4.5594,-4.5594,-4.5729,-4.7413,-4.8105,-4.8279,-5.001,-5.0712,-5.0712,-5.0712,-5.0712,-5.0712,-5.1406,-5.1406,-5.1406,-5.1406,-5.1406,-5.1406,-5.1406,-5.0098,-4.9043,-4.8926,-4.75,-4.6445,-4.6308,-4.6308,-4.6308,-4.6308,-4.6308,-4.6308,-4.6308,-4.6308,-4.6308,-4.6308,-4.6198,-4.612,-4.612,-4.6027,-4.5967,-4.5967,-4.5932,-4.5924,-4.5924,-4.5907,-4.5899,-4.5894,-4.5842,-4.5821,-4.5809,-4.5688,-4.5657,-4.5657,-4.5657,-4.5657,-4.5657,-4.5657,-4.5632,-4.5627,-4.5627,-4.562,-4.5594,-4.5594,-4.5594,-4.5594,-4.5594,-4.5594,-4.5594,-4.5594,-4.5594,-4.5594,-4.5594,-4.5594,-4.5594,-4.5594,-4.5594,-4.5594,-4.5594,-4.5594,-4.5594,-4.5594,-4.5594,-4.5594,-4.5594,-4.5594,-4.5594,-4.5594,-4.5594,-4.5594,-4.5594,0.0,-4.5594,-4.5594,-4.5594,-4.5594,-4.5594,-4.5594,-4.5594,-4.5594,-4.5594,-4.5594,0.0,-4.5594,-4.5594,-4.5594,-4.5594,-4.5594,-4.5594,-4.5594,-4.5594,-4.5594,-4.5594,-4.5594,-4.5594,-4.5594,-4.5594,-4.5594,-4.5594,-4.5594,-4.5729,-4.7278,-4.799,-4.8259,-4.9875,-5.0577,-5.0712,-5.0712,-5.0712,-5.0712,-5.1406,-5.1406,-5.1406,-5.1406,-5.1406,-5.1406,-5.1406,-5.0605,-4.9726,-4.9004,-4.8027,-4.7129,-4.6387,-4.6308,-4.6308,-4.6308,-4.6308,-4.6308,-4.6308,-4.6308,-4.6308,-4.6308,-4.6289,-4.6268,-4.6268,-4.6247,-4.6246,-4.6246,-4.6119,-4.6075,-4.6075,-4.5944,-4.5899,-4.5899,-4.5881,-4.5872,-4.5872,-4.5852,-4.5842,-4.5842,-4.5842,-4.5842,-4.5842,-4.5842,-4.5825,-4.5775,-4.5775,-4.5692,-4.5594,-4.5594,-4.5594,-4.5594,-4.5594,-4.5594,-4.5594,-4.5594,-4.5594,-4.5594,-4.5594,-4.5594,-4.5594,-4.5594,-4.5594,-4.5594,-4.5594,-4.5594,-4.5594,-4.5594,-4.5594,-4.5594,-4.5594,-4.5594,-4.5594,-4.5594,-4.5594,-4.5594,-4.5594,0.0,-4.5594,-4.5594,-4.5594,-4.5594,-4.5594,-4.5594,-4.5594,-4.5594,-4.5594,-4.5594,-4.5594,-4.5594,-4.5594,-4.5594,-4.5594,-4.5594,-4.5594,-4.5594,-4.5594,-4.5594,-4.5594,-4.5594,-4.5594,-4.5594,-4.5594,-4.5594,-4.5594,-4.5594,-4.5691,-4.6682,-4.749,-4.8202,-4.9202,-5.0048,-5.0712,-5.0712,-5.0712,-5.0712,-5.1406,-5.1406,-5.1406,-5.1406,-5.1406,-5.1406,-5.1406,-5.0723,-4.9883,-4.9004,-4.8144,-4.7266,-4.6406,-4.6308,-4.6308,-4.6308,-4.6308,-4.6308,-4.6308,-4.6308,-4.6308,-4.6308,-4.6308,-4.6308,-4.6308,-4.6308,-4.6308,-4.6308,-4.6246,-4.6202,-4.6201,-4.6145,-4.6115,-4.6115,-4.6039,-4.6001,-4.5998,-4.5924,-4.5899,-4.5899,-4.5899,-4.5899,-4.5899,-4.5899,-4.5886,-4.585,-4.585,-4.5805,-4.5764,-4.5764,-4.5764,-4.5764,-4.5725,-4.5722,-4.5745,-4.5718,-4.5668,-4.5594,-4.5594,-4.5594,-4.5594,-4.5594,-4.5594,-4.5594,-4.5594,-4.5594,-4.5594,-4.5594,-4.5594,-4.5594,-4.5594,-4.5594,-4.5594,-4.5594,-4.5594,0.0,0.0,-4.5594,-4.5594,-4.5594,-4.5594,-4.5594,-4.5594,-4.5594,-4.5594,-4.5594,-4.5594,-4.5594,-4.5594,-4.5594,-4.5594,-4.5594,-4.5594,-4.5594,-4.5594,-4.5594,-4.5594,-4.5594,-4.5594,-4.5594,-4.5594,-4.5594,-4.5594,-4.5594,-4.5594,-4.5594,-4.5671,-4.6547,-4.7375,-4.8144,-4.8548,-4.9221,-4.9933,-4.9471,-4.9298,-4.9298,-5.1406,-5.1406,-5.1406,-5.1406,-5.1406,-5.1406,-5.1406,-5.0879,-5.0176,-4.9316,-4.8437,-4.7578,-4.6699,-4.6426,-4.6308,-4.6308,-4.6308,-4.6308,-4.6308,-4.6308,-4.6308,-4.6308,-4.6308,-4.6308,-4.6308,-4.6308,-4.6308,-4.6308,-4.6308,-4.6308,-4.6308,-4.6308,-4.6308,-4.6308,-4.6199,-4.6147,-4.6144,-4.6039,-4.5992,-4.5992,-4.5992,-4.5992,-4.5992,-4.5992,-4.5978,-4.5959,-4.5959,-4.5924,-4.5899,-4.5899,-4.5899,-4.5885,-4.5836,-4.5861,-4.5881,-4.5836,-4.5743,-4.5665,-4.5665,-4.5665,-4.5665,-4.5665,-4.5665,-4.5665,-4.5665,-4.5665,-4.5665,-4.5665,-4.5665,-4.5665,-4.5665,-4.5665,-4.5665,-4.5665,0.0,0.0,0.0,-4.5665,-4.5665,-4.5665,-4.5665,-4.5665,-4.5665,-4.5665,-4.5665,-4.5665,-4.5665,-4.5665,-4.5665,-4.5665,-4.5665,-4.5665,-4.5627,-4.5594,-4.5594,-4.5594,-4.5594,-4.5594,-4.5594,-4.5594,-4.5594,-4.5594,-4.5594,-4.5594,-4.5594,-4.5594,-4.5652,-4.6317,-4.7086,-4.7817,-4.7817,-4.8336,-4.9029,-4.8355,-4.8105,-4.8105,-5.1406,-5.1406,-5.1406,-5.1406,-5.1406,-5.1406,-5.1406,-5.1348,-5.1016,-5.0215,-4.9355,-4.8476,-4.7598,-4.6777,-4.6308,-4.6308,-4.6308,-4.6308,-4.6308,-4.6308,-4.6308,-4.6308,-4.6308,-4.6308,-4.6308,-4.6308,-4.6308,-4.6308,-4.6308,-4.6308,-4.6308,-4.6308,-4.6308,-4.6308,-4.6289,-4.6289,-4.6289,-4.6269,-4.6268,-4.6268,-4.6268,-4.6268,-4.6268,-4.6268,-4.6199,-4.6082,-4.6082,-4.6018,-4.5899,-4.5899,-4.5899,-4.5899,-4.589,-4.5894,-4.5899,-4.589,-4.5881,-4.5872,-4.5872,-4.5872,-4.5872,-4.5872,-4.5872,-4.5872,-4.5872,-4.5872,-4.5872,-4.5872,-4.5872,-4.5872,-4.5872,-4.5872,-4.5872,-4.5872,0.0,0.0,-4.5872,-4.5872,-4.5872,-4.5872,-4.5872,-4.5872,-4.5872,-4.5872,-4.5872,-4.5872,-4.5872,-4.5872,-4.5872,-4.5872,-4.5872,-4.5872,-4.5699,-4.5594,-4.5594,-4.5594,-4.5594,-4.5594,-4.5594,-4.5594,-4.5594,-4.5594,-4.5594,-4.5594,-4.5594,-4.5594,-4.5594,-4.5671,-4.6201,-4.6981,-4.6981,-4.749,-4.8202,-4.8125,-4.8105,-4.8105,-5.1406,-5.1406,-5.1406,-5.1406,-5.1406,-5.1406,-5.1406,-5.1406,-5.1113,-5.0312,-4.9902,-4.918,-4.7754,-4.7305,-4.6894,-4.6348,-4.6308,-4.6308,-4.6308,-4.6308,-4.6308,-4.6308,-4.6308,-4.6308,-4.6308,-4.6308,-4.6308,-4.6308,-4.6308,-4.6308,-4.6308,-4.6308,-4.6308,-4.6308,-4.6308,-4.6308,-4.6308,-4.6308,-4.6308,-4.6308,-4.6308,-4.6308,-4.6308,-4.6308,-4.6268,-4.6224,-4.6224,-4.6198,-4.6147,-4.6147,-4.6147,-4.6122,-4.6045,-4.608,-4.6147,-4.6147,-4.6147,-4.6147,-4.6147,-4.6033,-4.5899,-4.5899,-4.5899,-4.5899,-4.5899,-4.5899,-4.5899,-4.5899,-4.5899,-4.5899,-4.5899,-4.5899,-4.5899,-4.5899,0.0,-4.5899,-4.5899,-4.5899,-4.5899,-4.5899,-4.5899,-4.5899,-4.5899,-4.5899,-4.5899,-4.5899,-4.5899,-4.5899,-4.5899,-4.5899,-4.5899,-4.5899,-4.5825,-4.577,-4.5718,-4.5643,-4.5594,-4.5594,-4.5594,-4.5594,-4.5594,-4.5594,-4.5594,-4.5594,-4.5594,-4.5594,-4.5594,-4.5594,-4.6105,-4.6846,-4.6297,-4.6605,-4.7298,-4.674,-4.6547,-4.6547,-5.1406,-5.1406,-5.1406,-5.1406,-5.1406,-5.1406,-5.1406,-5.1406,-5.1191,-5.0644,-5.0351,-4.9746,-4.8555,-4.793,-4.7363,-4.6758,-4.6465,-4.6308,-4.6308,-4.6308,-4.6308,-4.6308,-4.6308,-4.6308,-4.6308,-4.6308,-4.6308,-4.6308,-4.6308,-4.6308,-4.6308,-4.6308,-4.6308,-4.6308,-4.6308,-4.6308,-4.6308,-4.6308,-4.6308,-4.6308,-4.6308,-4.6308,-4.6308,-4.6308,-4.6308,-4.6308,-4.6308,-4.6308,-4.6308,-4.6308,-4.6308,-4.6289,-4.6199,-4.6224,-4.6308,-4.6308,-4.6308,-4.6308,-4.6308,-4.6171,-4.603,-4.603,-4.603,-4.603,-4.603,-4.603,-4.603,-4.603,-4.603,-4.603,-4.603,-4.603,-4.603,-4.603,-4.603,-4.603,-4.603,-4.603,-4.603,-4.603,-4.603,-4.603,-4.603,-4.603,-4.603,-4.603,-4.603,-4.603,-4.603,-4.603,-4.603,-4.603,-4.5985,-4.5935,-4.589,-4.5751,-4.5699,-4.5699,-4.5699,-4.5699,-4.5699,-4.5699,-4.5699,-4.5699,-4.5699,-4.5699,-4.5699,-4.5699,-4.6058,-4.6534,-4.5923,-4.6058,-4.6515,-4.5904,-4.5699,-4.5699,-5.1406,-5.1406,-5.1406,-5.1406,-5.1406,-5.1406,-5.1406,-5.1406,-5.1406,-5.1406,-5.0703,-5.0215,-5.0195,-4.8652,-4.7617,-4.7598,-4.6816,-4.6308,-4.6308,-4.6308,-4.6308,-4.6308,-4.6308,-4.6308,-4.6308,-4.6308,-4.6308,-4.6308,-4.6308,-4.6308,-4.6308,-4.6308,-4.6308,-4.6308,-4.6308,-4.6308,-4.6308,-4.6308,-4.6308,-4.6308,-4.6308,-4.6308,-4.6308,-4.6308,-4.6308,-4.6308,-4.6308,-4.6308,-4.6308,-4.6308,-4.6308,-4.6308,-4.6308,-4.6308,-4.6308,-4.6308,-4.6308,-4.6308,-4.6308,-4.6308,-4.6308,-4.6308,-4.6308,-4.6308,-4.6308,-4.6308,-4.6308,-4.6308,-4.6308,-4.6308,-4.6308,-4.6308,-4.6308,-4.6308,-4.6308,-4.6308,-4.6308,-4.6308,-4.6308,-4.6308,-4.6308,-4.6308,-4.6308,-4.6308,-4.6308,-4.6308,-4.6308,-4.6308,-4.6308,-4.6308,-4.6308,-4.6308,-4.6173,-4.611,-4.611,-4.5974,-4.5899,-4.5899,-4.5899,-4.5899,-4.5899,-4.5899,-4.5899,-4.5899,-4.5899,-4.5899,-4.5899,-4.5899,-4.5899,-4.5899,-4.5899,-4.5899,-4.5899,-4.5899,-4.5899,-4.5899,-5.1406,-5.1406,-5.1406,-5.1406,-5.1406,-5.1406,-5.1406,-5.1406,-5.1406,-5.1406,-5.1191,-5.082,-5.0254,-4.9746,-4.8926,-4.7715,-4.7363,-4.6953,-4.6348,-4.6308,-4.6308,-4.6308,-4.6308,-4.6308,-4.6308,-4.6308,-4.6308,-4.6308,-4.6308,-4.6308,-4.6308,-4.6308,-4.6308,-4.6308,-4.6308,-4.6308,-4.6308,-4.6308,-4.6308,-4.6308,-4.6308,-4.6308,-4.6308,-4.6308,-4.6308,-4.6308,-4.6308,-4.6308,-4.6308,-4.6308,-4.6308,-4.6308,-4.6308,-4.6308,-4.6308,-4.6308,-4.6308,-4.6308,-4.6308,-4.6308,-4.6308,-4.6308,-4.6308,-4.6308,-4.6308,-4.6308,-4.6308,-4.6308,-4.6308,-4.6308,-4.6308,-4.6308,-4.6308,-4.6308,-4.6308,-4.6308,-4.6308,-4.6308,-4.6308,-4.6308,-4.6308,-4.6308,-4.6308,-4.6308,-4.6308,-4.6308,-4.6308,-4.6308,-4.6308,-4.6308,-4.6308,-4.6308,-4.6268,-4.6246,-4.6246,-4.6005,-4.5899,-4.5899,-4.5899,-4.5899,-4.5899,-4.5899,-4.5899,-4.5899,-4.5899,-4.5899,-4.5899,-4.5899,-4.5899,-4.5899,-4.5899,-4.5899,-4.5899,-4.5899,-4.5899,-4.5899,-5.1406,-5.1406,-5.1406,-5.1406,-5.1406,-5.1406,-5.1406,-5.1406,-5.1406,-5.1406,-5.1406,-5.1211,-5.0723,-5.0391,-4.9785,-4.8711,-4.8008,-4.7226,-4.6367,-4.6308,-4.6308,-4.6308,-4.6308,-4.6308,-4.6308,-4.6308,-4.6308,-4.6308,-4.6308,-4.6308,-4.6308,-4.6308,-4.6308,-4.6308,-4.6308,-4.6308,-4.6308,-4.6308,-4.6308,-4.6308,-4.6308,-4.6308,-4.6308,-4.6308,-4.6308,-4.6308,-4.6308,-4.6308,-4.6308,-4.6308,-4.6308,-4.6308,-4.6308,-4.6308,-4.6308,-4.6308,-4.6308,-4.6308,-4.6308,-4.6308,-4.6308,-4.6308,-4.6308,-4.6308,-4.6308,-4.6308,-4.6308,-4.6308,-4.6308,-4.6308,-4.6308,-4.6308,-4.6308,-4.6308,-4.6308,-4.6308,-4.6308,-4.6308,-4.6308,-4.6308,-4.6308,-4.6308,-4.6308,-4.6308,-4.6308,-4.6308,-4.6308,-4.6308,-4.6308,-4.6308,-4.6308,-4.6308,-4.6308,-4.6308,-4.6308,-4.6144,-4.6069,-4.6069,-4.6069,-4.6069,-4.6069,-4.6069,-4.6069,-4.6069,-4.6069,-4.6069,-4.6069,-4.6069,-4.6069,-4.6069,-4.6069,-4.6069,-4.6069,-4.6069,-4.6069,-4.6069,-5.1406,-5.1406,-5.1406,-5.1406,-5.1406,-5.1406,-5.1406,-5.1406,-5.1406,-5.1406,-5.1406,-5.1406,-5.1406,-5.0742,-5.0273,-5.0215,-4.8613,-4.7266,-4.6465,-4.6348,-4.6308,-4.6308,-4.6308,-4.6308,-4.6308,-4.6308,-4.6308,-4.6308,-4.6308,-4.6308,-4.6308,-4.6308,-4.6308,-4.6308,-4.6308,-4.6308,-4.6308,-4.6308,-4.6308,-4.6308,-4.6308,-4.6308,-4.6308,-4.6308,-4.6308,-4.6308,-4.6308,-4.6308,-4.6308,-4.6308,-4.6308,-4.6308,-4.6308,-4.6308,-4.6308,-4.6308,-4.6308,-4.6308,-4.6308,-4.6308,-4.6308,-4.6308,-4.6308,-4.6308,-4.6308,-4.6308,-4.6308,-4.6308,-4.6308,-4.6308,-4.6308,-4.6308,-4.6308,-4.6308,-4.6308,-4.6308,-4.6308,-4.6308,-4.6308,-4.6308,-4.6308,-4.6308,-4.6308,-4.6308,-4.6308,-4.6308,-4.6308,-4.6308,-4.6308,-4.6308,-4.6308,-4.6308,-4.6308,-4.6308,-4.6308,-4.6308,-4.6308,-4.6308,-4.6308,-4.6308,-4.6308,-4.6308,-4.6308,-4.6308,-4.6308,-4.6308,-4.6308,-4.6308,-4.6308,-4.6308,-4.6308,-4.6308,-4.6308,-4.6308,-4.6308,-4.6308,-5.1406,-5.1406,-5.1406,-5.1406,-5.1406,-5.1406,-5.1406,-5.1406,-5.1406,-5.1406,-5.1406,-5.1406,-5.1406,-5.123,-5.0898,-5.0254,-4.8613,-4.7519,-4.7324,-4.668,-4.6308,-4.6308,-4.6308,-4.6308,-4.6308,-4.6308,-4.6308,-4.6308,-4.6308,-4.6308,-4.6308,-4.6308,-4.6308,-4.6308,-4.6308,-4.6308,-4.6308,-4.6308,-4.6308,-4.6308,-4.6308,-4.6308,-4.6308,-4.6308,-4.6308,-4.6308,-4.6308,-4.6308,-4.6308,-4.6308,-4.6308,-4.6308,-4.6308,-4.6308,-4.6308,-4.6308,-4.6308,-4.6308,-4.6308,-4.6308,-4.6308,-4.6308,-4.6308,-4.6308,-4.6308,-4.6308,-4.6308,-4.6308,-4.6308,-4.6308,-4.6308,-4.6308,-4.6308,-4.6308,-4.6308,-4.6308,-4.6308,-4.6308,-4.6308,-4.6308,-4.6308,-4.6308,-4.6308,-4.6308,-4.6308,-4.6308,-4.6308,-4.6308,-4.6308,-4.6308,-4.6308,-4.6308,-4.6308,-4.6308,-4.6308,-4.6308,-4.6308,-4.6308,-4.6308,-4.6308,-4.6308,-4.6308,-4.6308,-4.6308,-4.6308,-4.6308,-4.6308,-4.6308,-4.6308,-4.6308,-4.6308,-4.6308,-4.6308,-4.6308,-4.6308,-4.6308,-5.1406,-5.1406,-5.1406,-5.1406,-5.1406,-5.1406,-5.1406,-5.1406,-5.1406,-5.1406,-5.1406,-5.1406,-5.1406,-5.1406,-5.1074,-5.0273,-4.9375,-4.8496,-4.7656,-4.7168,-4.6738,-4.6328,-4.6308,-4.6308,-4.6308,-4.6308,-4.6308,-4.6308,-4.6308,-4.6308,-4.6308,-4.6308,-4.6308,-4.6308,-4.6308,-4.6308,-4.6308,-4.6308,-4.6308,-4.6308,-4.6308,-4.6308,-4.6308,-4.6308,-4.6308,-4.6308,-4.6308,-4.6308,-4.6308,-4.6308,-4.6308,-4.6308,-4.6308,-4.6308,-4.6308,-4.6308,-4.6308,-4.6308,-4.6308,-4.6308,-4.6308,-4.6308,-4.6308,-4.6308,-4.6308,-4.6308,-4.6308,-4.6308,-4.6308,-4.6308,-4.6308,-4.6308,-4.6308,-4.6308,-4.6308,-4.6308,-4.6308,-4.6308,-4.6308,-4.6308,-4.6308,-4.6308,-4.6308,-4.6308,-4.6308,-4.6308,-4.6308,-4.6308,-4.6308,-4.6308,-4.6308,-4.6308,-4.6308,-4.6308,-4.6308,-4.6308,-4.6308,-4.6308,-4.6308,-4.6308,-4.6308,-4.6308,-4.6308,-4.6308,-4.6308,-4.6308,-4.6308,-4.6308,-4.6308,-4.6308,-4.6308,-4.6308,-4.6308,-4.6308,-4.6308,-4.6308,-5.1342,-5.1364,-5.1365,-5.1342,-5.1342,-5.1342,-5.1342,-5.1342,-5.1343,-5.1366,-5.1366,-5.1366,-5.1406,-5.1406,-5.1133,-5.0469,-5.0273,-4.959,-4.8144,-4.7773,-4.7285,-4.6543,-4.6387,-4.6308,-4.6308,-4.6308,-4.6308,-4.6308,-4.6308,-4.6308,-4.6308,-4.6308,-4.6308,-4.6308,-4.6308,-4.6308,-4.6308,-4.6308,-4.6308,-4.6308,-4.6308,-4.6308,-4.6308,-4.6308,-4.6308,-4.6308,-4.6308,-4.6308,-4.6308,-4.6308,-4.6308,-4.6308,-4.6308,-4.6308,-4.6308,-4.6308,-4.6308,-4.6308,-4.6308,-4.6308,-4.6308,-4.6308,-4.6308,-4.6308,-4.6308,-4.6308,-4.6308,-4.6308,-4.6308,-4.6308,-4.6308,-4.6308,-4.6308,-4.6308,-4.6308,-4.6308,-4.6308,-4.6308,-4.6308,-4.6308,-4.6308,-4.6308,-4.6308,-4.6308,-4.6308,-4.6308,-4.6308,-4.6308,-4.6308,-4.6308,-4.6308,-4.6308,-4.6308,-4.6308,-4.6308,-4.6308,-4.6308,-4.6308,-4.6308,-4.6308,-4.6308,-4.6308,-4.6308,-4.6308,-4.6308,-4.6308,-4.6308,-4.6308,-4.6308,-4.6308,-4.6308,-4.6308,-4.6308,-4.6308,-4.6308,-4.6308,-5.1141,-5.1193,-5.1216,-5.116,-5.1139,-5.1139,-5.1139,-5.1139,-5.1156,-5.1228,-5.1234,-5.127,-5.1386,-5.1406,-5.1367,-5.125,-5.0605,-5.0098,-4.9863,-4.8437,-4.7558,-4.7422,-4.6699,-4.6308,-4.6308,-4.6308,-4.6308,-4.6308,-4.6308,-4.6308,-4.6308,-4.6308,-4.6308,-4.6308,-4.6308,-4.6308,-4.6308,-4.6308,-4.6308,-4.6308,-4.6308,-4.6308,-4.6308,-4.6308,-4.6308,-4.6308,-4.6308,-4.6308,-4.6308,-4.6308,-4.6308,-4.6308,-4.6308,-4.6308,-4.6308,-4.6308,-4.6308,-4.6308,-4.6308,-4.6308,-4.6308,-4.6308,-4.6308,-4.6308,-4.6308,-4.6308,-4.6308,-4.6308,-4.6308,-4.6308,-4.6308,-4.6308,-4.6308,-4.6308,-4.6308,-4.6308,-4.6308,-4.6308,-4.6308,-4.6308,-4.6308,-4.6308,-4.6308,-4.6308,-4.6308,-4.6308,-4.6308,-4.6308,-4.6308,-4.6308,-4.6308,-4.6308,-4.6308,-4.6308,-4.6308,-4.6308,-4.6308,-4.6308,-4.6308,-4.6308,-4.6308,-4.6308,-4.6308,-4.6308,-4.6308,-4.6308,-4.6308,-4.6308,-4.6308,-4.6308,-4.6308,-4.6308,-4.6308,-4.6308,-4.6308,-4.6308,-5.1103,-5.1116,-5.1137,-5.1103,-5.1089,-5.1089,-5.1089,-5.1089,-5.1113,-5.1145,-5.1133,-5.1167,-5.1224,-5.1279,-5.1294,-5.1294,-5.1033,-5.0469,-4.9531,-4.875,-4.7891,-4.6914,-4.6504,-4.6308,-4.6308,-4.6308,-4.6308,-4.6308,-4.6308,-4.6308,-4.6308,-4.6308,-4.6308,-4.6308,-4.6308,-4.6308,-4.6308,-4.6308,-4.6308,-4.6308,-4.6308,-4.6308,-4.6308,-4.6308,-4.6308,-4.6308,-4.6308,-4.6308,-4.6308,-4.6308,-4.6308,-4.6308,-4.6308,-4.6308,-4.6308,-4.6308,-4.6308,-4.6308,-4.6308,-4.6308,-4.6308,-4.6308,-4.6308,-4.6308,-4.6308,-4.6308,-4.6308,-4.6308,-4.6308,-4.6308,-4.6308,-4.6308,-4.6308,-4.6308,-4.6308,-4.6308,-4.6308,-4.6308,-4.6308,-4.6308,-4.6308,-4.6308,-4.6308,-4.6308,-4.6308,-4.6308,-4.6308,-4.6308,-4.6308,-4.6308,-4.6308,-4.6308,-4.6308,-4.6308,-4.6308,-4.6308,-4.6308,-4.6308,-4.6308,-4.6308,-4.6308,-4.6308,-4.6308,-4.6308,-4.6308,-4.6308,-4.6308,-4.6308,-4.6308,-4.6308,-4.6308,-4.6308,-4.6308,-4.6308,-4.6308,-4.6308]},{"header":{"parameterUnit":"m.s-1","parameterCategory":1,"la1":30.6,"la2":28.766,"lo1":-90.7593,"lo2":-88.6598,"dy":0.0162,"dx":0.0183,"nx":116,"ny":114,"refTime":"2023-07-16T12:00:00:Z","depth":0,"parameterNumber":3,"parameterNumberName":"V-component_of_WINDS"},"data":[0.0,0.0,0.0,0.0,0.0,0.0,0.0,0.0,0.0,0.0,0.0,0.0,0.0,0.0,0.0,0.0,0.0,0.0,0.0,0.0,0.0,0.0,0.0,0.0,0.0,0.0,0.0,0.0,0.0,0.0,0.0,0.0,0.0,0.0,0.0,0.0,0.0,0.0,0.0,0.0,0.0,0.0,0.0,0.0,0.0,0.0,0.0,0.0,0.0,0.0,0.0,0.0,0.0,0.0,0.0,0.0,0.0,0.0,0.0,0.0,0.0,0.0,0.0,0.0,0.0,0.0,0.0,0.0,0.0,0.0,0.0,0.0,0.0,0.0,0.0,0.0,0.0,0.0,0.0,0.0,0.0,0.0,0.0,0.0,0.0,0.0,0.0,0.0,0.0,0.0,0.0,0.0,0.0,0.0,0.0,0.0,0.0,0.0,0.0,0.0,0.0,0.0,0.0,0.0,0.0,0.0,0.0,0.0,0.0,0.0,0.0,0.0,0.0,0.0,0.0,0.0,0.0,0.0,0.0,0.0,0.0,0.0,0.0,0.0,0.0,0.0,0.0,0.0,0.0,0.0,0.0,0.0,0.0,0.0,0.0,0.0,0.0,0.0,0.0,0.0,0.0,0.0,0.0,0.0,0.0,0.0,0.0,0.0,0.0,0.0,0.0,0.0,0.0,0.0,0.0,0.0,0.0,0.0,0.0,0.0,0.0,0.0,0.0,0.0,0.0,0.0,0.0,0.0,0.0,0.0,0.0,0.0,0.0,0.0,0.0,0.0,0.0,0.0,0.0,0.0,0.0,0.0,0.0,0.0,0.0,0.0,0.0,0.0,0.0,0.0,0.0,0.0,0.0,0.0,0.0,0.0,0.0,0.0,0.0,0.0,0.0,0.0,0.0,0.0,0.0,0.0,0.0,0.0,0.0,0.0,0.0,0.0,0.0,0.0,0.0,0.0,0.0,0.0,0.0,0.0,0.0,0.0,0.0,0.0,0.0,0.0,0.0,0.0,0.0,0.0,0.0,0.0,0.0,0.0,0.0,0.0,0.0,0.0,0.0,0.0,0.0,0.0,0.0,0.0,0.0,0.0,0.0,0.0,0.0,0.0,0.0,0.0,0.0,0.0,0.0,0.0,0.0,0.0,0.0,0.0,0.0,0.0,0.0,0.0,0.0,0.0,0.0,0.0,0.0,0.0,0.0,0.0,0.0,0.0,0.0,0.0,0.0,0.0,0.0,0.0,0.0,0.0,0.0,0.0,0.0,0.0,0.0,0.0,0.0,0.0,0.0,0.0,0.0,0.0,0.0,0.0,0.0,0.0,0.0,0.0,0.0,0.0,0.0,0.0,0.0,0.0,0.0,0.0,0.0,0.0,0.0,0.0,0.0,0.0,0.0,0.0,0.0,0.0,0.0,0.0,0.0,0.0,0.0,0.0,0.0,0.0,0.0,0.0,0.0,0.0,0.0,0.0,0.0,0.0,0.0,0.0,0.0,0.0,0.0,0.0,0.0,0.0,0.0,0.0,0.0,0.0,0.0,0.0,0.0,0.0,0.0,0.0,0.0,0.0,0.0,0.0,0.0,0.0,0.0,0.0,0.0,0.0,0.0,0.0,0.0,0.0,0.0,0.0,0.0,0.0,0.0,0.0,0.0,0.0,0.0,0.0,0.0,0.0,0.0,0.0,0.0,0.0,0.0,0.0,0.0,0.0,0.0,0.0,0.0,0.0,0.0,0.0,0.0,0.0,0.0,0.0,0.0,0.0,0.0,0.0,0.0,0.0,0.0,0.0,0.0,0.0,0.0,0.0,0.0,0.0,0.0,0.0,0.0,0.0,0.0,0.0,0.0,0.0,0.0,0.0,0.0,0.0,0.0,0.0,0.0,0.0,0.0,0.0,0.0,0.0,0.0,0.0,0.0,0.0,0.0,0.0,0.0,0.0,0.0,0.0,0.0,0.0,0.0,0.0,0.0,0.0,0.0,0.0,0.0,0.0,0.0,0.0,0.0,0.0,0.0,0.0,0.0,0.0,0.0,0.0,0.0,0.0,0.0,0.0,0.0,0.0,0.0,0.0,0.0,0.0,0.0,0.0,0.0,0.0,0.0,0.0,0.0,0.0,0.0,0.0,0.0,0.0,0.0,0.0,0.0,0.0,0.0,0.0,0.0,0.0,0.0,0.0,0.0,0.0,0.0,0.0,0.0,0.0,0.0,0.0,0.0,0.0,0.0,0.0,0.0,0.0,0.0,0.0,0.0,0.0,0.0,0.0,0.0,0.0,0.0,0.0,0.0,0.0,0.0,0.0,0.0,0.0,0.0,0.0,0.0,0.0,0.0,0.0,0.0,0.0,0.0,0.0,0.0,0.0,0.0,0.0,0.0,0.0,0.0,0.0,0.0,0.0,0.0,0.0,0.0,0.0,0.0,0.0,0.0,0.0,0.0,0.0,0.0,0.0,0.0,0.0,0.0,0.0,0.0,0.0,0.0,0.0,0.0,0.0,0.0,0.0,0.0,0.0,0.0,0.0,0.0,0.0,0.0,0.0,0.0,0.0,0.0,0.0,0.0,0.0,0.0,0.0,0.0,0.0,0.0,0.0,0.0,0.0,0.0,0.0,0.0,0.0,0.0,0.0,0.0,0.0,0.0,0.0,0.0,0.0,0.0,0.0,0.0,0.0,0.0,0.0,0.0,0.0,0.0,0.0,0.0,0.0,0.0,0.0,0.0,0.0,0.0,0.0,0.0,0.0,0.0,0.0,0.0,0.0,0.0,0.0,0.0,0.0,0.0,0.0,0.0,0.0,0.0,0.0,0.0,0.0,0.0,0.0,0.0,0.0,0.0,0.0,0.0,0.0,0.0,0.0,0.0,0.0,0.0,0.0,0.0,0.0,0.0,0.0,0.0,0.0,0.0,0.0,0.0,0.0,0.0,0.0,0.0,0.0,0.0,0.0,0.0,0.0,0.0,0.0,0.0,0.0,0.0,0.0,0.0,0.0,0.0,0.0,0.0,0.0,0.0,0.0,0.0,0.0,0.0,0.0,0.0,0.0,0.0,0.0,0.0,0.0,0.0,0.0,0.0,0.0,0.0,0.0,0.0,0.0,0.0,0.0,0.0,0.0,0.0,0.0,0.0,0.0,0.0,0.0,0.0,0.0,0.0,0.0,0.0,0.0,0.0,0.0,0.0,0.0,0.0,0.0,0.0,0.0,0.0,0.0,0.0,0.0,0.0,0.0,0.0,0.0,0.0,0.0,0.0,0.0,0.0,0.0,0.0,0.0,0.0,0.0,0.0,0.0,0.0,0.0,0.0,0.0,0.0,0.0,0.0,0.0,0.0,0.0,0.0,0.0,0.0,0.0,0.0,0.0,0.0,0.0,0.0,0.0,0.0,0.0,0.0,0.0,0.0,0.0,0.0,0.0,0.0,0.0,0.0,0.0,0.0,0.0,0.0,0.0,0.0,0.0,0.0,0.0,0.0,0.0,0.0,0.0,0.0,0.0,0.0,0.0,0.0,0.0,0.0,0.0,0.0,0.0,0.0,0.0,0.0,0.0,0.0,0.0,0.0,0.0,0.0,0.0,0.0,0.0,0.0,0.0,0.0,0.0,0.0,0.0,0.0,0.0,0.0,0.0,0.0,0.0,0.0,0.0,0.0,0.0,0.0,0.0,0.0,0.0,0.0,0.0,0.0,0.0,0.0,0.0,0.0,0.0,0.0,0.0,0.0,0.0,0.0,0.0,0.0,0.0,0.0,0.0,0.0,0.0,0.0,0.0,0.0,0.0,0.0,0.0,0.0,0.0,0.0,0.0,0.0,0.0,0.0,0.0,0.0,0.0,0.0,0.0,0.0,0.0,0.0,0.0,0.0,0.0,0.0,0.0,0.0,0.0,0.0,0.0,0.0,0.0,0.0,0.0,0.0,0.0,0.0,0.0,0.0,0.0,0.0,0.0,0.0,0.0,0.0,0.0,0.0,0.0,0.0,0.0,0.0,0.0,0.0,0.0,0.0,0.0,0.0,0.0,0.0,0.0,0.0,0.0,0.0,0.0,0.0,0.0,0.0,0.0,0.0,0.0,0.0,0.0,0.0,0.0,0.0,0.0,0.0,0.0,0.0,0.0,0.0,0.0,0.0,0.0,0.0,0.0,0.0,0.0,0.0,0.0,0.0,0.0,0.0,0.0,0.0,0.0,0.0,0.0,0.0,0.0,0.0,0.0,0.0,0.0,0.0,0.0,0.0,0.0,0.0,0.0,0.0,0.0,0.0,0.0,0.0,0.0,0.0,0.0,0.0,0.0,0.0,0.0,0.0,0.0,0.0,0.0,0.0,0.0,0.0,0.0,0.0,0.0,0.0,0.0,0.0,0.0,0.0,0.0,0.0,0.0,0.0,0.0,0.0,0.0,0.0,0.0,0.0,0.0,0.0,0.0,0.0,0.0,0.0,0.0,0.0,0.0,0.0,0.0,0.0,0.0,0.0,0.0,0.0,0.0,0.0,0.0,0.0,0.0,0.0,0.0,0.0,0.0,0.0,0.0,0.0,0.0,0.0,0.0,0.0,0.0,0.0,0.0,0.0,0.0,0.0,0.0,0.0,0.0,0.0,0.0,0.0,0.0,0.0,0.0,0.0,0.0,0.0,0.0,0.0,0.0,0.0,0.0,0.0,0.0,0.0,0.0,0.0,0.0,0.0,0.0,0.0,0.0,0.0,0.0,0.0,0.0,0.0,0.0,0.0,0.0,0.0,0.0,0.0,0.0,0.0,0.0,0.0,0.0,0.0,0.0,0.0,0.0,0.0,0.0,0.0,0.0,0.0,0.0,0.0,0.0,0.0,0.0,0.0,0.0,0.0,0.0,0.0,0.0,0.0,0.0,0.0,0.0,0.0,0.0,0.0,0.0,0.0,0.0,0.0,0.0,0.0,0.0,0.0,0.0,0.0,0.0,0.0,0.0,0.0,0.0,0.0,0.0,0.0,0.0,0.0,0.0,0.0,0.0,0.0,0.0,0.0,0.0,0.0,0.0,0.0,0.0,0.0,0.0,0.0,0.0,0.0,0.0,0.0,0.0,0.0,0.0,0.0,0.0,0.0,0.0,0.0,0.0,0.0,0.0,0.0,0.0,0.0,0.0,0.0,0.0,0.0,0.0,0.0,0.0,0.0,0.0,0.0,0.0,0.0,0.0,0.0,0.0,0.0,0.0,0.0,0.0,0.0,0.0,0.0,0.0,0.0,0.0,0.0,0.0,0.0,0.0,0.0,0.0,0.0,0.0,0.0,0.0,0.0,0.0,0.0,0.0,0.0,0.0,0.0,0.0,0.0,0.0,0.0,0.0,0.0,0.0,0.0,0.0,0.0,0.0,0.0,0.0,0.0,0.0,0.0,0.0,0.0,0.0,0.0,0.0,0.0,0.0,0.0,0.0,0.0,0.0,0.0,0.0,0.0,0.0,0.0,0.0,0.0,0.0,0.0,0.0,0.0,0.0,0.0,0.0,0.0,0.0,0.0,0.0,0.0,0.0,0.0,0.0,0.0,0.0,0.0,0.0,0.0,0.0,0.0,0.0,0.0,0.0,0.0,0.0,0.0,0.0,0.0,0.0,0.0,0.0,0.0,0.0,0.0,0.0,0.0,0.0,0.0,0.0,0.0,0.0,0.0,0.0,0.0,0.0,0.0,0.0,0.0,0.0,0.0,0.0,0.0,0.0,0.0,0.0,0.0,0.0,0.0,0.0,0.0,0.0,0.0,0.0,0.0,0.0,0.0,0.0,0.0,0.0,0.0,0.0,0.0,0.0,0.0,0.0,0.0,0.0,0.0,0.0,0.0,0.0,0.0,0.0,0.0,0.0,0.0,0.0,0.0,0.0,0.0,0.0,0.0,0.0,0.0,0.0,0.0,0.0,0.0,0.0,0.0,0.0,0.0,0.0,0.0,0.0,0.0,0.0,0.0,0.0,0.0,0.0,0.0,0.0,0.0,0.0,0.0,0.0,0.0,0.0,0.0,0.0,0.0,0.0,0.0,0.0,0.0,0.0,0.0,0.0,0.0,0.0,0.0,0.0,0.0,0.0,0.0,0.0,0.0,0.0,0.0,0.0,0.0,0.0,0.0,0.0,-2.9428,0.0,0.0,0.0,0.0,0.0,0.0,0.0,0.0,0.0,0.0,0.0,0.0,0.0,0.0,0.0,0.0,0.0,0.0,0.0,0.0,0.0,0.0,0.0,0.0,0.0,0.0,0.0,0.0,0.0,0.0,0.0,0.0,0.0,0.0,0.0,0.0,0.0,0.0,0.0,0.0,0.0,0.0,0.0,0.0,0.0,0.0,0.0,0.0,0.0,0.0,0.0,0.0,0.0,0.0,0.0,0.0,0.0,0.0,0.0,0.0,0.0,0.0,0.0,0.0,0.0,0.0,0.0,0.0,0.0,0.0,0.0,0.0,0.0,0.0,0.0,0.0,0.0,0.0,0.0,0.0,0.0,0.0,0.0,0.0,0.0,0.0,0.0,0.0,0.0,0.0,0.0,0.0,0.0,0.0,0.0,0.0,0.0,0.0,0.0,0.0,0.0,0.0,0.0,0.0,0.0,0.0,0.0,0.0,0.0,0.0,0.0,0.0,0.0,0.0,0.0,0.0,-2.9792,0.0,0.0,0.0,0.0,0.0,0.0,0.0,0.0,0.0,0.0,0.0,0.0,0.0,0.0,0.0,0.0,0.0,0.0,0.0,0.0,0.0,0.0,0.0,0.0,0.0,0.0,0.0,0.0,0.0,0.0,0.0,0.0,0.0,0.0,0.0,0.0,0.0,0.0,0.0,0.0,0.0,0.0,0.0,0.0,0.0,0.0,0.0,0.0,0.0,0.0,0.0,0.0,0.0,0.0,0.0,0.0,0.0,0.0,0.0,0.0,0.0,0.0,0.0,0.0,0.0,0.0,0.0,0.0,0.0,0.0,0.0,0.0,0.0,0.0,0.0,0.0,0.0,0.0,0.0,0.0,0.0,0.0,0.0,0.0,0.0,0.0,0.0,0.0,0.0,0.0,0.0,0.0,0.0,0.0,0.0,0.0,0.0,0.0,0.0,0.0,0.0,0.0,0.0,0.0,0.0,0.0,0.0,0.0,-2.9792,-2.9792,-2.9792,-2.9792,-2.9792,-2.9792,-2.9792,-2.9792,-2.9792,0.0,0.0,0.0,0.0,0.0,0.0,0.0,0.0,0.0,0.0,0.0,0.0,0.0,0.0,0.0,0.0,0.0,0.0,0.0,0.0,0.0,0.0,0.0,0.0,0.0,0.0,0.0,0.0,0.0,0.0,0.0,0.0,0.0,0.0,0.0,0.0,0.0,0.0,0.0,-2.9679,-2.9754,-2.9716,-2.9578,-2.9578,0.0,0.0,0.0,0.0,0.0,0.0,0.0,0.0,0.0,0.0,0.0,0.0,0.0,0.0,0.0,0.0,0.0,0.0,0.0,0.0,0.0,0.0,0.0,0.0,0.0,0.0,0.0,0.0,0.0,0.0,0.0,0.0,0.0,0.0,0.0,0.0,0.0,0.0,0.0,0.0,0.0,0.0,0.0,-2.6659,-2.7838,0.0,0.0,0.0,0.0,0.0,0.0,0.0,0.0,0.0,0.0,0.0,0.0,0.0,-2.9754,-2.9679,-2.9754,-2.9792,-2.9792,-2.9792,-2.9792,-2.9792,-2.9792,-2.9792,-2.9792,-2.9792,0.0,-2.9792,-2.9792,0.0,0.0,0.0,0.0,0.0,0.0,0.0,0.0,0.0,0.0,0.0,0.0,0.0,0.0,0.0,0.0,0.0,0.0,0.0,0.0,0.0,0.0,0.0,0.0,0.0,0.0,0.0,0.0,0.0,0.0,0.0,0.0,0.0,0.0,0.0,0.0,-2.9666,-2.9792,-2.9792,-2.9792,-2.9792,-2.9792,-2.9792,-2.9654,-2.9415,-2.9415,0.0,0.0,0.0,0.0,0.0,0.0,0.0,0.0,0.0,0.0,0.0,0.0,0.0,0.0,0.0,0.0,0.0,0.0,0.0,0.0,0.0,0.0,0.0,0.0,0.0,0.0,0.0,0.0,0.0,0.0,0.0,0.0,0.0,0.0,0.0,0.0,0.0,0.0,0.0,-2.693,-2.7706,-2.8449,-2.8561,-2.8699,0.0,0.0,0.0,0.0,0.0,0.0,0.0,0.0,0.0,-2.9792,-3.0093,-3.0256,-3.0256,-3.0545,-3.0696,-3.0696,-3.0696,-3.0696,-3.0696,-3.0696,-3.0696,-3.0696,-3.0696,-3.0696,-3.0645,-3.0043,-2.9792,-2.9792,0.0,0.0,0.0,0.0,-2.9792,-2.9792,0.0,0.0,0.0,0.0,0.0,0.0,0.0,0.0,0.0,0.0,0.0,0.0,0.0,0.0,0.0,-2.6418,0.0,0.0,0.0,0.0,0.0,0.0,0.0,0.0,0.0,0.0,0.0,-2.9792,-2.9792,-2.9792,-2.9792,-2.9792,-2.9792,-2.9792,-2.9792,-2.9792,-2.9792,-2.9792,-2.9792,0.0,0.0,0.0,0.0,0.0,0.0,0.0,0.0,0.0,0.0,0.0,0.0,0.0,0.0,0.0,0.0,0.0,0.0,0.0,0.0,0.0,0.0,0.0,0.0,0.0,0.0,0.0,0.0,0.0,0.0,0.0,0.0,0.0,0.0,0.0,0.0,0.0,0.0,-2.7965,-2.8687,-2.9063,-2.9113,-2.9315,0.0,0.0,0.0,0.0,0.0,0.0,-2.9993,-3.0005,-3.0068,-3.0193,-3.0595,-3.0884,-3.1022,-3.1411,-3.1675,-3.1813,-3.1813,-3.1813,-3.1813,-3.1813,-3.1738,-3.1599,-3.1599,-3.1524,-3.1311,-3.0382,-3.0005,-2.9993,-2.9842,-2.9792,-2.9792,-2.9792,-2.9792,-2.9792,0.0,0.0,0.0,0.0,0.0,0.0,0.0,0.0,0.0,0.0,0.0,0.0,0.0,0.0,-2.6452,-2.6499,-2.6499,-2.6713,0.0,0.0,0.0,0.0,0.0,0.0,0.0,0.0,0.0,-2.9792,-2.9792,-2.9792,-2.9792,-2.9792,-2.9792,-2.9792,-2.9792,-2.9792,-2.9792,-2.9792,-2.9792,-2.9792,0.0,0.0,0.0,0.0,0.0,0.0,0.0,0.0,0.0,0.0,0.0,0.0,0.0,0.0,0.0,0.0,0.0,0.0,0.0,0.0,0.0,0.0,0.0,0.0,0.0,0.0,0.0,0.0,0.0,0.0,0.0,0.0,0.0,0.0,0.0,0.0,0.0,0.0,0.0,-2.9741,-2.9741,0.0,0.0,0.0,0.0,-2.9792,-2.9792,-3.0018,-3.0545,-3.057,-3.0796,-3.1298,-3.1336,-3.1599,-3.2127,-3.2152,-3.2453,-3.2993,-3.2993,-3.2993,-3.2993,-3.2993,-3.2692,-3.2177,-3.2177,-3.1876,-3.1348,-3.0796,-3.057,-3.052,-2.9993,-2.9792,-2.9792,-2.9792,-2.9792,-2.9792,0.0,0.0,0.0,0.0,0.0,0.0,0.0,0.0,0.0,0.0,0.0,0.0,0.0,-2.628,-2.6499,-2.6499,-2.6499,-2.6725,-2.7243,0.0,0.0,0.0,0.0,0.0,0.0,0.0,-2.9792,-2.9792,-2.9792,-2.9792,-2.9792,-2.9792,-2.9792,-2.9792,-2.9792,-2.9792,-2.9792,-2.9792,-2.9792,-2.9792,-2.9792,-2.9792,0.0,0.0,0.0,0.0,0.0,0.0,0.0,0.0,0.0,0.0,0.0,0.0,0.0,0.0,0.0,0.0,0.0,0.0,0.0,0.0,0.0,0.0,0.0,0.0,0.0,0.0,0.0,0.0,0.0,0.0,0.0,0.0,0.0,0.0,0.0,0.0,0.0,-2.9792,-2.9792,0.0,-2.9792,-3.0118,-3.0319,-3.0319,-3.0633,-3.0909,-3.1097,-3.1449,-3.1725,-3.1913,-3.2629,-3.3106,-3.3294,-3.3658,-3.3935,-3.4135,-3.4135,-3.4135,-3.4135,-3.4135,-3.4022,-3.3834,-3.3834,-3.3721,-3.3495,-3.2955,-3.2089,-3.1097,-3.0896,-3.0821,-3.0821,-3.0821,-3.0821,-3.0821,0.0,0.0,0.0,0.0,0.0,0.0,0.0,0.0,0.0,0.0,0.0,-2.5769,-2.6418,-2.6499,-2.6499,-2.6499,-2.6499,-2.6801,-2.7507,0.0,0.0,0.0,0.0,0.0,0.0,-2.9792,-2.9792,-2.9792,-2.9792,-2.9792,-2.9792,-2.9792,-2.9792,-2.9792,-2.9792,-2.9792,-2.9792,-2.9792,-2.9792,-2.9792,-2.9792,-2.9792,-2.9702,0.0,0.0,0.0,0.0,0.0,0.0,0.0,0.0,0.0,0.0,0.0,0.0,0.0,0.0,0.0,0.0,0.0,0.0,0.0,0.0,0.0,0.0,0.0,0.0,0.0,0.0,0.0,0.0,0.0,0.0,0.0,0.0,0.0,0.0,0.0,-2.9792,-2.9792,-2.9955,-3.0068,-3.0068,-3.0557,-3.0959,-3.1135,-3.1474,-3.1838,-3.2215,-3.2579,-3.2867,-3.3056,-3.3784,-3.4274,-3.4449,-3.4768,-3.509,-3.5278,-3.5278,-3.5278,-3.5278,-3.5278,-3.5177,-3.4956,-3.4956,-3.4856,-3.4655,-3.4324,-3.352,-3.2453,-3.1888,-3.1549,-3.1386,-3.1386,-3.1386,-3.1386,0.0,0.0,0.0,0.0,0.0,0.0,0.0,0.0,0.0,0.0,-2.5908,-2.6499,-2.6499,-2.6499,-2.6499,-2.6499,-2.6512,-2.6977,-2.8034,-2.8122,0.0,0.0,0.0,0.0,-2.9792,-2.9792,-2.9792,-2.9792,-2.9792,-2.9792,-2.9792,-2.9792,-2.9792,-2.9792,-2.9792,-2.9792,-2.9792,-2.9792,-2.9792,-2.9792,-2.9792,-2.9792,-2.9792,0.0,0.0,0.0,0.0,0.0,0.0,0.0,0.0,0.0,0.0,0.0,0.0,0.0,0.0,0.0,0.0,0.0,0.0,0.0,0.0,0.0,0.0,0.0,0.0,0.0,0.0,0.0,0.0,0.0,0.0,0.0,0.0,0.0,-2.9792,-2.9804,-2.9817,-2.9817,-3.0306,-3.0645,-3.067,-3.1135,-3.1675,-3.2227,-3.2277,-3.278,-3.3884,-3.3972,-3.4223,-3.4776,-3.4768,-3.5031,-3.5571,-3.5571,-3.5881,-3.6455,-3.6455,-3.6455,-3.6455,-3.6455,-3.6119,-3.5571,-3.5558,-3.5245,-3.4801,-3.4776,-3.4718,-3.4542,-3.293,-3.1964,-3.1486,-3.1486,-3.1486,-3.1486,0.0,0.0,0.0,0.0,0.0,0.0,0.0,0.0,0.0,0.0,-2.6314,-2.6499,-2.6499,-2.6499,-2.6499,-2.6499,-2.6864,-2.7356,-2.8059,0.0,0.0,0.0,0.0,0.0,-2.9792,-2.9792,-2.9792,-2.9792,-2.9792,-2.9792,-2.9792,-2.9792,-2.9792,-2.9792,-2.9792,-2.9792,-2.9792,-2.9792,-2.9792,-2.9792,-2.9792,-2.9792,-2.9792,0.0,0.0,0.0,0.0,0.0,0.0,0.0,0.0,0.0,0.0,0.0,0.0,0.0,0.0,0.0,0.0,0.0,0.0,0.0,0.0,0.0,0.0,0.0,0.0,0.0,0.0,0.0,0.0,0.0,0.0,0.0,0.0,-3.0256,-2.9842,-3.0131,-3.0394,-3.0394,-3.0846,-3.1336,-3.1738,-3.229,-3.2842,-3.3395,-3.3809,-3.4304,-3.5006,-3.5466,-3.5943,-3.6496,-3.6897,-3.7174,-3.7324,-3.7324,-3.7412,-3.755,-3.755,-3.755,-3.755,-3.755,-3.7475,-3.7312,-3.691,-3.6646,-3.6471,-3.6069,-3.568,-3.5194,-3.4317,-3.3935,-3.3809,-3.3809,-3.3809,-3.3746,0.0,0.0,0.0,0.0,0.0,0.0,0.0,0.0,0.0,0.0,-2.6245,-2.6499,-2.6499,-2.6499,-2.6499,-2.6499,-2.7002,-2.7519,-2.8072,0.0,0.0,0.0,0.0,-2.9792,-2.9792,-2.9792,-2.9792,-2.9792,-2.9792,-2.9792,-2.9792,-2.9792,-2.9792,-2.9792,-2.9792,-2.9792,-2.9792,-2.9792,-2.9792,-2.9792,-2.9792,-2.9792,-2.9792,-2.9792,-2.9209,-2.8462,-2.8949,-2.8791,-2.8422,-2.8422,0.0,0.0,0.0,0.0,0.0,0.0,0.0,0.0,0.0,0.0,0.0,0.0,0.0,0.0,0.0,0.0,0.0,0.0,0.0,0.0,0.0,0.0,0.0,0.0,-3.0407,-3.0583,-3.0482,-3.0733,-3.1022,-3.126,-3.1763,-3.2315,-3.2867,-3.3432,-3.4085,-3.4876,-3.5228,-3.5742,-3.6486,-3.6885,-3.7199,-3.7525,-3.7839,-3.8002,-3.8002,-3.8002,-3.8002,-3.8002,-3.8002,-3.8002,-3.8002,-3.8002,-3.8002,0.0,-3.7663,-3.7525,-3.75,-3.7186,-3.686,0.0,0.0,0.0,0.0,0.0,-3.468,-3.4675,0.0,0.0,0.0,0.0,0.0,0.0,0.0,0.0,0.0,0.0,0.0,-2.6499,-2.6499,-2.6499,-2.6499,-2.6499,-2.7052,-2.7645,0.0,0.0,0.0,-2.9624,-2.974,-2.9753,-2.9624,-2.974,-2.9792,-2.9792,-2.9792,-2.9792,-2.9792,-2.9792,-2.9792,-2.9792,-2.9792,-2.9792,-2.9792,-2.9792,-2.9792,-2.9792,-2.9663,-2.9702,-2.9792,-2.9792,-2.8502,-2.6801,-2.7775,-2.7412,-2.6524,-2.6524,0.0,0.0,0.0,0.0,0.0,0.0,0.0,0.0,0.0,0.0,0.0,0.0,0.0,0.0,0.0,0.0,0.0,0.0,0.0,0.0,0.0,0.0,0.0,0.0,-3.0771,-3.1047,-3.1512,-3.1687,-3.1901,-3.2265,-3.2867,-3.3483,-3.4035,-3.4587,-3.5341,-3.6417,-3.6556,-3.7059,-3.8052,0.0,0.0,0.0,0.0,-3.8203,-3.8203,-3.8203,-3.8203,-3.8203,-3.8203,-3.8203,-3.8203,-3.8203,-3.8203,-3.8191,-3.814,-3.8103,-3.8103,-3.804,-3.8002,-3.7852,-3.6285,-3.5345,-3.4901,-3.4901,-3.4901,-3.4901,0.0,0.0,0.0,0.0,0.0,0.0,0.0,0.0,0.0,-2.4862,-2.5886,-2.6499,-2.6499,-2.6499,-2.6499,-2.6499,-2.7369,-2.8373,0.0,0.0,-2.9404,-2.8466,-2.9326,-2.9365,-2.8466,-2.9326,-2.9792,-2.9792,-2.9792,-2.9792,-2.9792,-2.9792,-2.9792,-2.9792,-2.9792,-2.9792,-2.9792,-2.9792,-2.9792,-2.9702,-2.8806,-2.8976,-2.9792,-2.9792,-2.8949,-2.7804,-2.8016,-2.7412,-2.6524,-2.6524,-2.6648,-2.6924,-2.7562,0.0,0.0,0.0,0.0,0.0,0.0,0.0,0.0,0.0,0.0,0.0,0.0,0.0,0.0,0.0,0.0,0.0,0.0,0.0,0.0,-3.0595,-3.1738,-3.2629,-3.2742,-3.352,-3.3784,-3.3006,-3.3796,-3.4625,-3.5132,-3.5717,-3.6367,-3.6973,-3.7437,-3.7977,-3.8668,-3.8705,0.0,-3.9358,-3.9371,-3.9371,-3.9371,-3.9371,-3.9371,-3.9371,0.0,0.0,-3.9371,-3.9371,-3.9371,-3.9346,-3.8894,-3.8705,-3.8668,-3.8203,-3.8002,-3.7927,-3.7161,-3.6521,-3.6091,-3.6091,-3.6091,-3.5981,0.0,0.0,0.0,0.0,0.0,0.0,0.0,0.0,0.0,0.0,-2.4361,-2.4981,-2.4981,-2.5429,-2.5734,-2.5734,-2.7206,0.0,0.0,-2.8937,-2.8688,-2.8124,-2.8119,-2.841,-2.8937,-2.8937,-2.8937,-2.8937,-2.9534,-2.9495,-2.8976,-2.9534,-2.9792,-2.9792,-2.9792,-2.9482,-2.8937,-2.8937,-2.8937,-2.8858,-2.7735,-2.7947,-2.8937,-2.8937,-2.8279,-2.7279,-2.7279,-2.6584,-2.5546,-2.4978,-2.5179,-2.563,-2.5619,-2.5994,-2.6356,0.0,0.0,0.0,0.0,0.0,0.0,0.0,0.0,0.0,0.0,0.0,0.0,0.0,0.0,-2.934,0.0,0.0,-3.1185,-3.175,-3.2541,-3.3269,-3.3822,-3.4568,-3.4881,-3.4374,-3.4756,-3.5408,-3.6282,-3.6609,-3.7172,-3.7965,-3.8278,-3.868,-3.9245,-3.9283,-3.9408,-3.9685,-3.9697,-3.9697,-3.9697,-3.9697,-3.9697,-3.9697,-3.9697,-3.9697,-3.9697,-3.9697,-3.9697,-3.9685,-3.9408,-3.9283,-3.9207,-3.8206,-3.7592,-3.7222,-3.6207,-3.6365,-3.7149,-3.692,-3.682,-3.6744,0.0,0.0,0.0,0.0,0.0,0.0,0.0,0.0,0.0,0.0,-2.2888,-2.3514,-2.3514,-2.4228,-2.479,0.0,0.0,0.0,0.0,-2.7804,-2.7683,-2.747,-2.683,-2.7221,-2.8779,-2.8347,-2.8016,-2.7804,-2.8897,-2.8897,-2.7804,-2.874,-2.917,-2.917,-2.9365,-2.8976,-2.8124,-2.8347,-2.8426,-2.8307,-2.7005,-2.7128,-2.8096,-2.7884,-2.725,-2.6524,-2.6524,-2.5755,-2.4628,-2.3464,-2.3844,-2.4617,-2.3714,-2.4211,-2.5083,-2.4872,-2.4787,0.0,0.0,0.0,0.0,0.0,0.0,0.0,0.0,0.0,-2.7218,-2.8208,-2.9476,-3.0425,-3.0425,-3.111,-3.2014,-3.2973,-3.3345,-3.3872,-3.4705,-3.5307,-3.5658,-3.5658,-3.5658,-3.6094,-3.7086,-3.7274,-3.7764,-3.8844,-3.902,-3.922,-3.9672,-3.9697,-3.9697,-3.9697,-3.9798,-3.9848,-3.9848,-3.9961,-4.0011,-4.0011,-4.0011,-3.9842,-3.9556,-3.9556,-3.9337,-3.8964,-3.8853,-3.8868,-3.8752,-3.7583,-3.6844,-3.6297,-3.5061,-3.5777,-3.7453,-3.706,-3.7081,-3.7274,0.0,0.0,0.0,0.0,0.0,0.0,0.0,0.0,0.0,0.0,0.0,0.0,0.0,0.0,0.0,0.0,0.0,0.0,-2.661,-2.6678,-2.6213,-2.5199,-2.6005,-2.6141,-2.5368,-2.7145,-2.7643,-2.6678,-2.7775,-2.7735,-2.6678,-2.6812,-2.6894,-2.6894,-2.7867,-2.8215,-2.8176,-2.9197,-2.9624,-2.9417,-2.7342,-2.7128,-2.8016,-2.7046,-2.6595,-2.6524,-2.6524,-2.5755,-2.4628,-2.3464,-2.3844,-2.4787,-2.467,-2.5378,-2.6099,-2.5083,0.0,-2.4628,-2.3714,-2.3387,-2.3854,-2.6099,-2.6389,-2.6843,0.0,0.0,-2.871,-2.9308,-2.9576,-2.9708,-2.9708,-3.1466,-3.293,-3.3056,-3.4311,-3.527,-3.5395,-3.5918,-3.6317,-3.6317,-3.6317,-3.6556,-3.7123,-3.7626,-3.8178,-3.8869,-3.932,-3.9634,-3.9697,-3.9697,-3.9697,-3.9697,-4.0174,-4.0425,-4.0425,-4.0862,-4.11,-4.11,-4.11,-4.035,-3.901,-3.901,-3.802,-3.6295,-3.5974,-3.5781,-3.5781,-3.5617,-3.5529,-3.5429,-3.5265,-3.534,-3.5617,-3.5883,-3.677,-3.7902,0.0,0.0,0.0,0.0,0.0,0.0,0.0,0.0,0.0,0.0,0.0,0.0,0.0,0.0,0.0,0.0,0.0,0.0,-2.5122,-2.5146,-2.5057,-2.4819,-2.4638,-2.4935,-2.5755,-2.6036,-2.5942,-2.5504,-2.6625,-2.6584,-2.5546,-2.6182,-2.6524,-2.6524,-2.6964,-2.6789,-2.6191,-2.6696,-2.6912,-2.6748,-2.5179,-2.5168,-2.6108,-2.5661,-2.5504,-2.5588,-2.6265,-2.5755,0.0,0.0,-2.343,-2.38,-2.38,-2.4135,-2.4435,-2.3973,-2.38,0.0,-2.4851,-2.4595,0.0,0.0,-2.6392,-2.5625,-2.828,-2.8054,-2.7466,-2.8305,-2.9324,-2.9942,-2.9435,-3.1685,-3.3249,0.0,-3.4015,-3.5058,-3.3824,-3.5208,-3.6108,-3.5319,-3.5918,-3.6757,-3.7575,-3.7877,-3.8379,-3.9283,-3.9559,-3.9697,-3.9697,-3.9697,-3.9835,-4.0162,-4.0388,-4.0214,-3.96,-4.0707,-4.0372,-3.8589,-3.9489,-3.9078,-3.7542,-3.7542,-3.7088,-3.6306,-3.5871,-3.5144,-3.4345,-3.4132,-3.4013,-3.3901,-3.3088,-3.381,-3.5374,-3.6057,-3.6732,-3.7333,0.0,0.0,0.0,0.0,0.0,0.0,0.0,0.0,0.0,0.0,0.0,0.0,0.0,0.0,0.0,0.0,0.0,0.0,0.0,-2.365,-2.3856,-2.4133,-2.3491,-2.3854,-2.5526,-2.5041,-2.467,-2.4339,-2.5462,-2.5473,-2.4339,-2.5179,-2.5557,-2.5557,-2.5891,-2.5588,-2.483,-2.5126,-2.5252,-2.5168,-2.4049,-2.4049,-2.4787,-2.4787,-2.4787,-2.4914,-2.5714,-2.5504,0.0,0.0,-2.3091,-2.3091,-2.3091,-2.3091,-2.3091,-2.3091,-2.3091,-2.3474,-2.5105,0.0,0.0,-2.731,-2.6141,-2.5035,-2.7393,-2.7079,-2.6549,-2.7465,-2.8967,-2.9821,-2.8916,-3.1407,0.0,-3.1581,-3.3206,-3.4066,-3.2537,-3.435,-3.5367,-3.397,-3.5139,-3.6246,-3.6808,-3.7169,-3.8053,-3.9609,-3.931,-3.9245,-3.9685,-3.9697,-3.9715,-3.9816,-3.9977,-3.9558,-3.8472,-3.9794,-3.9306,-3.7043,-3.8171,-3.7885,-3.6333,-3.5804,-3.5574,-3.5552,-3.5067,-3.4222,-3.3053,-3.2792,-3.2586,-3.2369,-3.1334,-3.2217,-3.4215,-3.5318,-3.5985,-3.6414,0.0,0.0,0.0,0.0,0.0,0.0,0.0,0.0,0.0,0.0,0.0,0.0,0.0,0.0,0.0,0.0,0.0,0.0,0.0,-2.2327,-2.2552,-2.2572,-2.292,-2.3135,-2.3222,-2.4253,-2.4253,-2.3135,-2.4296,-2.4253,-2.3135,-2.3178,-2.3222,-2.3266,-2.4372,-2.483,-2.4872,-2.5975,-2.6431,-2.6348,-2.521,-2.4787,-2.4787,-2.4787,-2.4787,-2.4787,-2.483,0.0,0.0,0.0,-2.3091,-2.3091,-2.3091,-2.3091,0.0,-2.3091,-2.3091,-2.3135,0.0,0.0,-2.4118,-2.5238,-2.5758,-2.6478,-2.8176,-2.7564,-2.6852,-2.75,-2.8601,-2.9074,-2.7861,-3.0437,-3.2348,-3.1137,-3.1742,-3.2359,-3.2331,-3.3563,-3.392,-3.2543,-3.3943,-3.4758,0.0,-3.5074,-3.6949,-3.9506,-3.836,-3.819,-3.9633,-3.9697,-3.9207,-3.8214,-3.8658,-3.8439,-3.7462,-3.7991,-3.8238,-3.8179,-3.8179,-3.7391,-3.5743,-3.3777,-3.2897,-3.2868,-3.2507,-3.2025,-3.1573,-3.1563,-3.1319,-3.0947,-3.0889,-3.0947,-3.1218,-3.268,-3.4103,-3.5321,0.0,0.0,0.0,0.0,0.0,0.0,0.0,0.0,0.0,0.0,0.0,0.0,0.0,0.0,0.0,0.0,0.0,0.0,0.0,-2.1541,-2.1882,-2.249,-2.2646,-2.2808,-2.3091,-2.3464,-2.3464,-2.3091,-2.3464,-2.3464,-2.3091,-2.3091,-2.3091,-2.3135,-2.3507,-2.3681,-2.3714,-2.4102,-2.4221,-2.4221,-2.3844,-2.3681,-2.3681,-2.3681,-2.3681,-2.3681,0.0,0.0,0.0,0.0,0.0,-2.3091,-2.3091,-2.3091,-2.3091,-2.3091,-2.3091,-2.3325,0.0,0.0,-2.4187,-2.5861,-2.5865,-2.5645,-2.6513,-2.634,-2.6104,-2.6312,-2.7352,-2.7909,-2.6966,-2.9137,-3.0547,-2.9019,-3.0504,-3.1372,-2.987,-3.1582,-3.2493,-3.1133,-3.2574,0.0,0.0,0.0,0.0,-3.6668,-3.6325,-3.6703,-3.819,-3.7317,-3.7371,-3.8603,-3.7833,-3.7068,-3.6342,-3.7597,-3.7144,-3.5046,-3.5046,-3.4746,-3.4185,-3.3513,-3.3213,-3.3193,-3.2764,-3.25,-3.2324,-3.1748,-3.1435,-3.1279,-3.0996,-3.0889,-3.0947,-3.1441,-3.194,-3.2654,0.0,0.0,0.0,0.0,0.0,0.0,0.0,0.0,0.0,0.0,0.0,0.0,0.0,0.0,0.0,0.0,0.0,0.0,0.0,0.0,-2.1512,-2.2256,-2.2432,-2.2672,-2.3081,-2.3091,-2.3091,-2.3091,-2.3091,-2.3091,-2.3091,-2.3091,-2.3091,-2.3091,-2.3091,-2.3091,-2.3091,-2.3091,-2.3091,-2.3091,-2.3091,-2.3091,-2.3091,-2.3091,-2.3091,0.0,0.0,0.0,0.0,0.0,0.0,-2.3091,-2.3091,-2.3091,-2.3091,-2.3091,-2.3208,-2.356,-2.4571,-2.4526,-2.4549,-2.5827,-2.5734,-2.5381,-2.5625,-2.5693,-2.5693,-2.5693,-2.6706,-2.7314,-2.634,-2.7973,-2.8973,-2.7457,-2.8941,-2.9751,-2.8282,-3.0119,-3.1071,-2.9765,-3.1285,0.0,0.0,0.0,0.0,-3.5211,-3.4792,-3.5178,-3.6649,-3.5836,-3.5813,-3.6996,-3.6289,-3.55,-3.4728,-3.5916,-3.5468,-3.3418,-3.3418,-3.3418,-3.3418,-3.3418,-3.3418,-3.3408,-3.3135,-3.293,-3.2744,-3.2041,-3.166,-3.1475,-3.1055,-3.0889,-3.0889,-3.0889,-3.0889,-3.117,0.0,0.0,0.0,0.0,0.0,0.0,0.0,0.0,0.0,0.0,0.0,0.0,0.0,0.0,0.0,0.0,0.0,0.0,0.0,0.0,0.0,-2.1836,-2.2236,-2.2613,-2.3052,-2.3062,-2.3071,-2.3091,-2.3091,-2.3091,-2.3091,-2.3091,-2.3091,-2.3091,-2.3091,-2.3091,-2.3091,-2.3091,-2.3091,-2.3091,-2.3091,-2.3091,-2.3091,-2.3091,0.0,0.0,0.0,0.0,0.0,0.0,0.0,0.0,0.0,-2.3091,-2.3101,-2.312,-2.3467,-2.3799,-2.3838,-2.4443,-2.5116,-2.5145,-2.543,-2.5693,-2.5693,-2.5674,-2.5654,-2.5654,-2.6607,-2.7063,0.0,0.0,-2.7695,-2.6566,-2.707,-2.7669,-2.7708,-2.9113,-2.9682,0.0,0.0,0.0,0.0,0.0,0.0,-3.4858,0.0,-3.3631,-3.5123,-3.5134,-3.4678,-3.3728,-3.4083,-3.3798,-3.2793,-3.3213,-3.3418,-3.3418,-3.3418,-3.3418,-3.3418,-3.3418,-3.3418,-3.3418,-3.3418,-3.3193,-3.2793,-3.2353,-3.1924,-3.1504,-3.1064,-3.0889,-3.0889,-3.0889,-3.0889,-3.0889,0.0,0.0,0.0,0.0,0.0,0.0,0.0,0.0,0.0,0.0,0.0,0.0,0.0,0.0,0.0,0.0,0.0,0.0,0.0,0.0,0.0,0.0,0.0,0.0,0.0,0.0,0.0,0.0,0.0,-2.3091,-2.3091,-2.3091,-2.3091,-2.3091,-2.3091,-2.3091,-2.3091,-2.3091,-2.3091,-2.3091,0.0,-2.3091,-2.3091,0.0,0.0,0.0,0.0,0.0,0.0,0.0,0.0,0.0,0.0,-2.3091,-2.3159,-2.3525,-2.3701,-2.3926,-2.457,-2.4949,-2.5194,-2.5478,-2.5606,-2.5693,-2.5693,-2.5478,-2.5244,-2.5244,-2.5253,-2.5208,0.0,0.0,0.0,-2.6329,-2.6572,0.0,-2.763,-2.8058,0.0,0.0,0.0,-2.9996,-2.9626,-3.0371,0.0,0.0,-3.1662,-3.2092,-3.3575,-3.2597,-3.2526,-3.367,-3.3072,-3.277,-3.2793,-3.3213,-3.3418,-3.3418,-3.3418,-3.3418,-3.3418,-3.3418,-3.3418,-3.3418,-3.3418,-3.3359,-3.3203,-3.2471,-3.21,-3.1934,-3.1182,-3.0889,-3.0889,-3.0889,-3.0889,-3.0889,0.0,0.0,0.0,0.0,0.0,0.0,0.0,0.0,0.0,0.0,0.0,0.0,0.0,0.0,0.0,0.0,0.0,0.0,0.0,0.0,0.0,0.0,0.0,0.0,0.0,0.0,0.0,0.0,0.0,0.0,0.0,-2.3091,-2.3091,-2.3091,-2.3091,-2.3091,-2.3091,-2.3091,0.0,0.0,0.0,0.0,0.0,0.0,0.0,0.0,0.0,0.0,0.0,0.0,0.0,-2.3091,-2.3091,-2.3091,-2.3179,-2.3662,0.0,-2.4209,-2.493,-2.5215,-2.543,-2.5625,-2.5693,-2.5635,-2.5488,-2.5244,-2.5057,-2.4824,-2.459,0.0,0.0,0.0,0.0,0.0,0.0,0.0,-2.7256,-2.7549,-2.7875,0.0,-2.9053,0.0,-2.9626,-3.0371,-3.0889,0.0,-3.0889,-3.1276,-3.2092,-3.1325,-3.1385,-3.2458,-3.2108,-3.2178,-3.2793,-3.3213,-3.3418,-3.3418,-3.3418,-3.3418,-3.3418,-3.3418,-3.3418,-3.3418,0.0,-3.3418,-3.3359,-3.2519,-3.2229,-3.208,-3.123,-3.0889,-3.0889,-3.0889,-3.0889,-3.0889,0.0,0.0,0.0,0.0,0.0,0.0,0.0,0.0,0.0,0.0,0.0,0.0,0.0,0.0,0.0,0.0,0.0,0.0,0.0,0.0,0.0,0.0,0.0,0.0,0.0,0.0,0.0,0.0,0.0,0.0,0.0,0.0,0.0,0.0,0.0,0.0,0.0,0.0,0.0,0.0,0.0,0.0,0.0,0.0,0.0,0.0,0.0,0.0,0.0,0.0,-2.3091,-2.3091,-2.3091,-2.3091,-2.3188,-2.373,-2.4131,-2.4521,-2.5019,-2.5439,-2.5693,-2.5693,-2.5645,-2.5547,-2.5156,-2.5028,-2.4795,-2.4414,0.0,-2.4394,-2.4893,0.0,-2.4707,-2.5547,0.0,-2.5986,-2.6894,-2.7344,-2.7754,-2.8232,-2.9053,-2.9626,-2.9626,-3.0371,-3.0889,-3.0889,-3.0889,-3.0889,-3.0889,-3.0889,-3.0918,-3.0976,-3.1328,-3.1934,-3.2793,-3.3154,-3.3369,-3.3418,-3.3418,-3.3418,-3.3418,-3.3418,-3.3418,-3.3418,0.0,0.0,-3.3359,-3.2519,-3.2229,-3.208,-3.123,-3.0889,-3.0889,-3.0889,-3.0889,-3.0889,0.0,0.0,0.0,0.0,0.0,0.0,0.0,0.0,0.0,0.0,0.0,0.0,0.0,0.0,0.0,0.0,0.0,0.0,0.0,0.0,0.0,0.0,0.0,0.0,0.0,0.0,0.0,0.0,0.0,0.0,0.0,0.0,0.0,0.0,0.0,0.0,0.0,0.0,0.0,0.0,0.0,0.0,0.0,0.0,0.0,0.0,0.0,0.0,0.0,0.0,-2.3091,-2.3091,-2.3091,-2.3091,-2.3247,-2.4072,-2.4365,-2.46,-2.54,-2.5625,-2.5693,-2.5693,-2.5459,-2.5213,-2.5135,-2.4521,0.0,0.0,0.0,-2.3549,-2.4385,-2.4473,0.0,-2.5547,0.0,0.0,0.0,0.0,-2.7412,0.0,0.0,0.0,0.0,0.0,0.0,0.0,0.0,-3.0889,-3.0889,-3.0889,-3.1055,-3.1396,-3.1475,-3.1934,-3.2793,-3.2871,-3.3076,-3.3418,-3.3418,-3.3418,-3.3418,-3.3418,-3.3418,-3.3418,-3.3418,0.0,-3.3359,-3.2519,-3.2229,-3.208,-3.123,-3.0889,-3.0889,-3.0889,-3.0889,-3.0889,0.0,0.0,0.0,0.0,0.0,0.0,0.0,0.0,0.0,0.0,-1.8184,-1.8354,0.0,0.0,0.0,0.0,0.0,0.0,0.0,0.0,0.0,0.0,0.0,0.0,0.0,0.0,0.0,0.0,0.0,0.0,0.0,0.0,0.0,0.0,0.0,0.0,0.0,0.0,0.0,0.0,0.0,0.0,0.0,0.0,0.0,0.0,0.0,0.0,0.0,0.0,-2.3091,-2.3091,-2.3091,-2.3091,-2.3218,-2.3906,-2.4248,-2.456,-2.5215,-2.5557,-2.5635,-2.5449,-2.5225,-2.4998,-2.4548,0.0,0.0,0.0,0.0,-2.3354,-2.4258,0.0,0.0,0.0,0.0,0.0,0.0,0.0,0.0,0.0,0.0,0.0,0.0,0.0,0.0,0.0,0.0,0.0,-3.0889,-3.0889,-3.0986,-3.1182,-3.1406,-3.1719,-3.2129,-3.2568,-3.29,-3.3096,-3.332,-3.3418,-3.3418,-3.3418,-3.3418,-3.3418,-3.3418,0.0,-3.3047,-3.2422,-3.2031,-3.1768,-3.1143,-3.0889,-3.0889,-3.0889,-3.0889,-3.0889,0.0,0.0,0.0,0.0,0.0,0.0,0.0,-1.7681,-1.7681,-1.7681,-1.7862,-1.8135,-1.8432,-1.8461,0.0,0.0,0.0,0.0,0.0,0.0,0.0,0.0,0.0,0.0,0.0,0.0,0.0,0.0,0.0,0.0,0.0,0.0,0.0,0.0,0.0,0.0,0.0,0.0,0.0,0.0,0.0,0.0,0.0,0.0,0.0,0.0,0.0,0.0,0.0,0.0,-2.3091,-2.3091,-2.3091,-2.3091,-2.3179,-2.3662,-2.4023,-2.4375,-2.4814,-2.5185,-2.5371,-2.5019,-2.491,-2.4619,-2.3945,-2.3721,0.0,0.0,-2.3091,-2.3325,-2.4141,0.0,0.0,0.0,0.0,0.0,0.0,0.0,0.0,0.0,0.0,0.0,0.0,0.0,0.0,0.0,0.0,0.0,-3.0889,-3.0889,-3.0889,-3.0889,-3.1211,-3.1426,-3.1514,-3.2187,-3.2617,-3.2803,-3.3135,-3.334,-3.3418,-3.3418,-3.3418,-3.3418,-3.3418,0.0,0.0,-3.2344,-3.1914,-3.1475,-3.1055,-3.0889,-3.0889,-3.0889,-3.0889,-3.0889,0.0,0.0,0.0,0.0,0.0,0.0,0.0,-1.674,-1.674,-1.674,-1.7467,-1.8027,-1.8057,-1.8066,0.0,0.0,0.0,0.0,0.0,0.0,0.0,0.0,0.0,0.0,0.0,0.0,0.0,0.0,0.0,0.0,0.0,0.0,0.0,0.0,0.0,0.0,0.0,0.0,0.0,0.0,0.0,0.0,0.0,0.0,0.0,0.0,0.0,0.0,0.0,0.0,0.0,-2.3091,-2.3091,-2.3091,-2.3179,-2.3662,0.0,0.0,-2.4365,-2.4512,-2.4521,-2.4482,-2.4189,-2.3887,-2.3809,0.0,0.0,-2.3101,-2.3091,-2.3237,-2.376,-2.4121,0.0,0.0,0.0,0.0,0.0,0.0,0.0,0.0,0.0,0.0,0.0,0.0,0.0,0.0,0.0,0.0,-3.0889,-3.0889,-3.0889,-3.0889,-3.0928,-3.1133,-3.1514,-3.1592,-3.2021,-3.2793,-3.2832,-3.3057,-3.3418,-3.3418,-3.3418,-3.3418,-3.3418,0.0,0.0,-3.2344,-3.1914,-3.1475,-3.1055,-3.0889,-3.0889,-3.0889,-3.0889,-3.0889,0.0,0.0,0.0,0.0,0.0,0.0,0.0,-1.6611,-1.6411,-1.5834,-1.6079,-1.6541,-1.7104,-1.7173,-1.7455,0.0,0.0,0.0,0.0,0.0,0.0,0.0,0.0,0.0,0.0,0.0,0.0,0.0,0.0,0.0,0.0,0.0,0.0,0.0,0.0,0.0,0.0,0.0,0.0,0.0,0.0,0.0,0.0,0.0,0.0,0.0,0.0,0.0,0.0,0.0,0.0,0.0,-2.3091,-2.3091,0.0,0.0,-2.3584,-2.3828,-2.3994,-2.4228,-2.4355,-2.4102,-2.3916,-2.3721,-2.3457,0.0,0.0,-2.3091,-2.3091,-2.3227,-2.3711,-2.3926,-2.4268,0.0,0.0,0.0,0.0,0.0,0.0,0.0,0.0,0.0,0.0,0.0,0.0,0.0,0.0,0.0,-3.0889,-3.0889,-3.0889,-3.0889,-3.0889,-3.0976,-3.1143,-3.1396,-3.1689,-3.2031,-3.2295,-3.25,-3.2676,-3.293,-3.3047,-3.3047,-3.3047,0.0,0.0,-3.1953,-3.1523,-3.1123,-3.0957,-3.0889,-3.0889,-3.0889,-3.0889,-3.0889,0.0,0.0,0.0,0.0,0.0,0.0,-1.6324,-1.6193,-1.5851,-1.4879,-1.5021,-1.5438,-1.6105,-1.6184,-1.6576,-1.7501,0.0,0.0,0.0,0.0,0.0,0.0,0.0,0.0,0.0,0.0,0.0,0.0,0.0,0.0,0.0,0.0,0.0,0.0,0.0,0.0,0.0,0.0,0.0,0.0,0.0,0.0,0.0,0.0,0.0,0.0,0.0,0.0,0.0,0.0,0.0,0.0,0.0,0.0,0.0,0.0,-2.3315,-2.3594,-2.3594,-2.3809,-2.3965,-2.3672,-2.3594,-2.3516,0.0,0.0,-2.3091,-2.3091,-2.3091,-2.3188,-2.3545,-2.3701,-2.3984,0.0,0.0,0.0,0.0,0.0,0.0,0.0,0.0,0.0,0.0,0.0,0.0,0.0,0.0,0.0,0.0,-3.0889,-3.0889,-3.0889,-3.0889,-3.0889,-3.0889,-3.1182,-3.1396,-3.1523,-3.1836,-3.2041,-3.2178,-3.2471,-3.2607,-3.2607,0.0,0.0,0.0,-3.1641,-3.1269,-3.0889,-3.0889,-3.0889,-3.0889,-3.0889,-3.0889,-3.0889,0.0,0.0,0.0,0.0,0.0,0.0,0.0,-1.5199,-1.4843,-1.3854,-1.4593,-1.5199,-1.5199,-1.5199,-1.5579,-1.6523,0.0,0.0,0.0,0.0,0.0,0.0,0.0,0.0,0.0,0.0,0.0,-1.9922,0.0,0.0,0.0,0.0,0.0,0.0,0.0,0.0,0.0,0.0,0.0,0.0,0.0,0.0,0.0,0.0,0.0,0.0,0.0,0.0,0.0,0.0,0.0,0.0,0.0,0.0,0.0,0.0,-2.3101,-2.3101,-2.3101,-2.311,-2.311,-2.3101,-2.3101,-2.3101,0.0,0.0,-2.3091,-2.3091,-2.3091,-2.3091,-2.3101,-2.3496,-2.3799,-2.3799,-2.4558,0.0,0.0,0.0,0.0,0.0,0.0,0.0,0.0,0.0,0.0,0.0,0.0,0.0,0.0,-3.0889,-3.0889,-3.0889,-3.0889,-3.0889,-3.0889,-3.0898,-3.1103,-3.1514,-3.1523,-3.1748,-3.2229,-3.2178,-3.2238,0.0,0.0,0.0,0.0,-3.1514,-3.1269,-3.0889,-3.0889,-3.0889,-3.0889,-3.0889,-3.0889,-3.0889,0.0,0.0,0.0,0.0,0.0,0.0,0.0,-1.5199,-1.4843,-1.3818,-1.3991,-1.4458,-1.5128,-1.5199,-1.5587,-1.6532,0.0,0.0,0.0,0.0,0.0,0.0,0.0,0.0,0.0,0.0,-1.9482,-1.9482,-1.9619,-1.9834,0.0,0.0,0.0,0.0,0.0,0.0,0.0,0.0,0.0,0.0,0.0,0.0,0.0,0.0,0.0,0.0,0.0,0.0,0.0,0.0,0.0,0.0,0.0,0.0,0.0,-2.3091,0.0,0.0,-2.3091,-2.3091,-2.3091,-2.3091,-2.3091,-2.3091,-2.3091,-2.3091,-2.3091,-2.3091,-2.3091,-2.3091,-2.3091,-2.3208,-2.3437,-2.374,-2.4014,0.0,0.0,0.0,0.0,0.0,0.0,0.0,0.0,0.0,0.0,0.0,0.0,0.0,0.0,-3.0889,-3.0889,-3.0889,-3.0889,-3.0889,-3.0889,-3.0889,-3.0957,-3.1094,-3.1094,-3.1162,-3.1299,-3.1592,0.0,0.0,0.0,0.0,0.0,-3.1211,-3.1006,-3.0889,-3.0889,-3.0889,-3.0889,-3.0889,-3.0889,-3.0889,0.0,0.0,0.0,0.0,0.0,0.0,0.0,-1.495,-1.4843,-1.3818,-1.3709,-1.3954,-1.4565,-1.4629,-1.4879,-1.5438,0.0,0.0,0.0,0.0,0.0,0.0,0.0,0.0,0.0,-1.8818,-1.9043,-1.9043,-1.9209,-1.9424,-1.9678,-1.9844,-2.0059,0.0,0.0,0.0,0.0,0.0,0.0,0.0,0.0,0.0,-2.0635,0.0,0.0,0.0,0.0,0.0,0.0,0.0,0.0,0.0,0.0,0.0,0.0,0.0,-2.3091,0.0,0.0,-2.3091,-2.3091,-2.3091,-2.3091,0.0,0.0,-2.3091,-2.3091,-2.3091,-2.3091,-2.3091,-2.3091,-2.3091,-2.3188,-2.3496,-2.3682,0.0,0.0,0.0,0.0,0.0,0.0,0.0,0.0,0.0,0.0,0.0,0.0,0.0,0.0,0.0,-3.0889,-3.0889,-3.0889,-3.0889,-3.0889,-3.0889,-3.0889,-3.0889,-3.0889,-3.0889,-3.0898,-3.1162,0.0,0.0,0.0,0.0,0.0,-3.0996,-3.0889,-3.0889,-3.0889,-3.0889,-3.0889,-3.0889,-3.0889,-3.0889,0.0,0.0,0.0,0.0,0.0,0.0,0.0,0.0,0.0,0.0,-1.3744,-1.3787,-1.381,-1.3745,-1.3709,0.0,0.0,0.0,0.0,0.0,0.0,0.0,0.0,0.0,0.0,-1.8354,-1.8559,-1.8559,-1.8994,-1.9209,-1.9248,-1.9639,-1.9844,-1.9883,-2.0322,-2.0576,-2.0605,-2.0605,-2.0605,-2.0605,-2.0605,-2.0605,0.0,0.0,0.0,0.0,0.0,0.0,0.0,0.0,0.0,0.0,0.0,0.0,0.0,0.0,0.0,0.0,0.0,0.0,0.0,0.0,0.0,0.0,0.0,-2.3091,0.0,-2.3091,-2.3091,-2.3091,-2.3091,-2.3091,-2.3091,-2.3091,-2.3477,0.0,0.0,0.0,0.0,0.0,0.0,0.0,0.0,0.0,0.0,0.0,0.0,0.0,0.0,0.0,-3.0889,-3.0889,-3.0889,-3.0889,-3.0889,-3.0889,-3.0889,-3.0889,-3.0889,-3.0889,-3.0889,-3.0889,0.0,0.0,0.0,0.0,0.0,-3.0889,-3.0889,-3.0889,-3.0889,-3.0889,-3.0889,-3.0889,-3.0889,-3.0889,0.0,0.0,0.0,0.0,0.0,0.0,0.0,0.0,0.0,0.0,0.0,-1.4439,-1.4811,-1.4171,0.0,0.0,0.0,0.0,0.0,0.0,0.0,0.0,0.0,0.0,0.0,-1.8105,-1.812,-1.812,-1.8262,-1.8477,-1.8754,-1.8861,-1.9121,-1.9453,-1.9883,-2.0254,-2.0605,-2.0605,-2.0605,-2.0605,-2.0605,-2.0605,0.0,0.0,0.0,0.0,-2.1073,-2.1327,0.0,0.0,0.0,0.0,0.0,0.0,0.0,0.0,-2.3091,-2.3091,-2.3091,0.0,-2.3091,-2.3091,-2.3091,-2.3091,0.0,-2.3091,-2.3091,-2.3091,0.0,-2.3091,-2.3091,-2.3091,-2.3091,0.0,0.0,0.0,0.0,0.0,0.0,0.0,0.0,0.0,0.0,0.0,0.0,0.0,0.0,0.0,0.0,0.0,-3.0889,-3.0889,-3.0889,-3.0889,-3.0889,-3.0889,-3.0889,-3.0889,-3.0889,-3.0889,-3.0889,-3.0889,0.0,0.0,0.0,0.0,-3.0889,-3.0889,-3.0889,-3.0889,-3.0889,-3.0889,-3.0889,-3.0889,-3.0889,-3.084,0.0,0.0,0.0,0.0,0.0,0.0,0.0,0.0,0.0,0.0,0.0,0.0,0.0,0.0,0.0,0.0,0.0,0.0,0.0,0.0,0.0,0.0,0.0,0.0,-1.8008,-1.8008,-1.8008,-1.8008,-1.8008,-1.8125,-1.8315,-1.851,-1.8724,-1.9014,-1.9639,-2.0049,-2.0283,-2.0517,-2.0605,-2.0605,-2.0605,0.0,0.0,0.0,0.0,0.0,-2.084,-2.1025,0.0,-2.2002,-2.2353,-2.2588,0.0,0.0,0.0,0.0,-2.3091,-2.3091,-2.3091,-2.3091,-2.3091,-2.3091,-2.3091,-2.3091,-2.3091,0.0,0.0,0.0,0.0,0.0,0.0,0.0,0.0,0.0,0.0,0.0,0.0,0.0,0.0,0.0,0.0,0.0,0.0,0.0,0.0,0.0,0.0,0.0,0.0,-3.0889,-3.0889,-3.0889,-3.0889,-3.0889,-3.0889,-3.0889,-3.0889,-3.0889,-3.0889,-3.0889,-3.0889,-3.0889,-3.0889,0.0,0.0,0.0,-3.0889,-3.0889,-3.0889,-3.0889,-3.0889,-3.0889,-3.0869,-3.0654,-3.0576,-3.0508,0.0,0.0,0.0,0.0,0.0,0.0,0.0,0.0,0.0,0.0,0.0,0.0,0.0,0.0,0.0,0.0,0.0,0.0,0.0,0.0,0.0,0.0,0.0,-1.8008,-1.8008,-1.7862,-1.7794,-1.7794,-1.7647,-1.7647,-1.7803,-1.8151,-1.8389,-1.8637,-1.9201,-1.9635,-1.9904,-2.0188,-2.0382,-2.0605,-2.0605,0.0,0.0,0.0,0.0,0.0,0.0,0.0,0.0,-2.1641,-2.207,-2.249,-2.2867,0.0,0.0,0.0,0.0,0.0,-2.3091,-2.3091,-2.3091,-2.3091,-2.3091,-2.3091,-2.3091,0.0,0.0,0.0,0.0,0.0,0.0,0.0,0.0,0.0,0.0,0.0,0.0,0.0,0.0,0.0,0.0,0.0,0.0,0.0,0.0,0.0,0.0,0.0,0.0,-3.0693,-3.0723,-3.0781,-3.0781,-3.082,-3.0889,-3.0889,-3.0889,-3.0889,-3.0889,-3.0889,-3.0889,-3.0889,-3.0889,0.0,0.0,0.0,-3.0889,-3.0889,-3.0889,-3.0889,-3.0889,-3.085,-3.0732,-3.0342,-3.0156,-3.0039,0.0,0.0,0.0,0.0,0.0,0.0,0.0,0.0,0.0,0.0,0.0,0.0,0.0,0.0,0.0,0.0,0.0,0.0,0.0,0.0,0.0,0.0,-1.7579,-1.8008,-1.8008,-1.7207,-1.6819,-1.6819,-1.6009,-1.6044,-1.6819,-1.6874,-1.7523,-1.8572,-1.7893,-1.8488,-1.9837,-1.9126,-1.9514,-2.0605,-2.0605,0.0,0.0,0.0,0.0,0.0,0.0,0.0,0.0,-2.1182,-2.1621,-2.206,-2.248,0.0,0.0,0.0,0.0,0.0,-2.3091,-2.3091,-2.3091,-2.3091,-2.3091,-2.3091,-2.3091,0.0,0.0,0.0,0.0,0.0,0.0,0.0,0.0,0.0,0.0,0.0,0.0,0.0,0.0,0.0,0.0,0.0,0.0,0.0,0.0,0.0,0.0,0.0,0.0,0.0,-2.9941,-3.0293,-3.0303,-3.0488,-3.0889,-3.0889,-3.0889,-3.0889,-3.0889,-3.0889,-3.0889,-3.0889,-3.0889,0.0,0.0,-3.0889,-3.0889,-3.0889,-3.0889,-3.0889,-3.0889,-3.0644,-3.0293,-3.0225,-2.9971,-2.96,0.0,0.0,0.0,0.0,0.0,0.0,0.0,0.0,0.0,0.0,0.0,0.0,0.0,0.0,0.0,0.0,0.0,0.0,0.0,0.0,0.0,-1.6532,-1.6991,-1.7242,-1.7242,-1.6819,-1.6349,-1.5825,-1.5403,-1.5411,-1.586,-1.6349,-1.6945,-1.7497,-1.7305,-1.7642,-1.8433,-1.8485,-1.9172,-2.0196,0.0,0.0,0.0,0.0,0.0,0.0,0.0,0.0,0.0,0.0,-2.1327,-2.165,-2.2305,0.0,0.0,0.0,0.0,0.0,-2.3091,-2.3091,-2.3091,-2.3091,-2.3091,-2.3091,-2.3091,0.0,0.0,0.0,0.0,0.0,0.0,0.0,0.0,0.0,0.0,0.0,0.0,0.0,0.0,0.0,0.0,0.0,0.0,0.0,0.0,0.0,0.0,0.0,0.0,0.0,-2.9658,-2.9853,-2.9863,-2.9961,-3.0176,-3.0176,-3.042,-3.0889,-3.0889,-3.0889,-3.0889,-3.0889,-3.0889,-3.0889,0.0,-3.0889,-3.0889,-3.0889,-3.0889,-3.0869,-3.0615,-3.0391,-3.0137,-2.9678,-2.9238,-2.8848,0.0,0.0,0.0,0.0,0.0,0.0,0.0,0.0,0.0,0.0,0.0,0.0,0.0,0.0,0.0,0.0,0.0,0.0,0.0,0.0,-1.4078,-1.5852,-1.614,-1.6384,-1.6602,-1.6384,-1.579,-1.4843,-1.4629,-1.4629,-1.4879,-1.6035,-1.6498,-1.6298,-1.6572,-1.6911,-1.7225,-1.7769,-1.8615,-1.9488,0.0,0.0,0.0,0.0,0.0,0.0,0.0,0.0,0.0,0.0,0.0,0.0,0.0,0.0,0.0,-2.2974,-2.3091,-2.3091,-2.3091,-2.3091,-2.3091,-2.3091,0.0,-2.3091,-2.3091,-2.3091,0.0,0.0,0.0,0.0,0.0,0.0,0.0,0.0,0.0,0.0,0.0,0.0,0.0,0.0,0.0,0.0,0.0,0.0,0.0,0.0,0.0,0.0,0.0,0.0,-2.9316,-2.9414,-2.9414,-2.9473,-2.9626,-2.9626,-2.9969,-3.0586,-3.0586,-3.0586,-3.0586,-3.0586,-3.0635,-3.0732,-3.0732,-3.0732,-3.0732,-3.0732,-3.0674,-3.0547,-3.0185,-2.999,-2.9805,-2.9053,-2.8564,-2.8291,0.0,0.0,0.0,0.0,0.0,0.0,0.0,0.0,0.0,0.0,0.0,0.0,0.0,0.0,0.0,0.0,0.0,0.0,0.0,0.0,-1.2585,-1.3839,-1.4807,-1.5728,-1.6567,-1.5763,-1.4807,-1.3818,-1.2952,-1.2952,-1.3854,-1.572,-1.614,-1.5305,-1.533,-1.6039,-1.7171,-1.6742,-1.7272,-1.8436,-1.8834,0.0,0.0,0.0,0.0,0.0,0.0,0.0,0.0,0.0,0.0,0.0,0.0,0.0,-2.2598,-2.2974,-2.3091,-2.3091,-2.3091,-2.3091,-2.3091,-2.3091,-2.3091,0.0,-2.3091,-2.3091,0.0,-2.3091,0.0,0.0,0.0,0.0,0.0,0.0,0.0,0.0,0.0,0.0,0.0,0.0,0.0,0.0,0.0,0.0,0.0,0.0,0.0,0.0,0.0,0.0,0.0,-2.8955,-2.8965,-2.916,-2.9626,-2.9626,-2.96,-2.9668,-2.9668,-2.9668,-2.9668,-2.9668,-2.9883,-3.0244,-3.0244,-3.0244,-3.0244,-3.0244,-3.0019,-2.9658,-2.9685,-2.9365,-2.8955,-2.8506,-2.832,-2.8291,0.0,0.0,0.0,0.0,0.0,0.0,0.0,0.0,0.0,0.0,0.0,0.0,0.0,0.0,0.0,0.0,0.0,0.0,0.0,0.0,-1.2373,-1.3403,-1.3991,-1.4414,-1.4799,-1.5057,-1.4414,-1.2842,-1.2482,-1.2769,-1.3709,-1.445,-1.4593,-1.4279,-1.4279,-1.488,-1.5914,-1.5576,-1.6395,-1.7866,-1.7214,-1.6429,0.0,0.0,0.0,0.0,0.0,0.0,0.0,0.0,-1.9096,-1.9542,0.0,-2.1992,-2.2256,-2.2896,-2.3091,-2.3091,-2.3091,-2.3091,-2.3091,-2.3091,-2.3091,0.0,0.0,-2.3091,-2.3091,-2.3091,-2.3091,0.0,0.0,0.0,0.0,0.0,0.0,0.0,0.0,0.0,0.0,0.0,0.0,0.0,0.0,0.0,0.0,0.0,0.0,0.0,0.0,0.0,0.0,-2.8525,-2.8535,-2.8603,-2.8779,-2.8779,-2.8779,-2.8779,-2.9316,-2.9626,-2.9626,-2.9626,-2.9658,-2.9814,-2.9814,-2.9814,-2.9814,-2.9814,-2.9717,-2.9597,-2.9277,-2.8906,-2.8506,-2.835,-2.8291,-2.8291,0.0,0.0,0.0,0.0,0.0,0.0,0.0,0.0,0.0,0.0,0.0,0.0,0.0,0.0,0.0,0.0,0.0,0.0,0.0,-1.1456,-1.208,-1.2839,-1.3394,-1.3564,-1.3273,-1.4199,-1.3918,-1.2305,-1.2305,-1.2629,-1.3273,-1.3564,-1.3528,-1.3273,-1.3564,-1.4099,-1.4748,-1.4782,-1.5527,-1.6661,-1.5994,-1.5496,0.0,0.0,0.0,0.0,0.0,0.0,0.0,0.0,-1.847,0.0,0.0,0.0,0.0,-2.2394,-2.2536,-2.2633,-2.3003,-2.2545,-2.2138,-2.2916,0.0,0.0,-2.3003,-2.3091,-2.3091,-2.3091,-2.3091,0.0,0.0,0.0,0.0,0.0,0.0,0.0,0.0,0.0,0.0,0.0,0.0,0.0,0.0,0.0,0.0,0.0,0.0,0.0,0.0,0.0,0.0,0.0,-2.8291,-2.8291,-2.8291,-2.8291,-2.8291,-2.8301,-2.8887,-2.917,-2.917,-2.917,-2.9238,-2.9365,-2.9365,-2.9365,-2.9365,-2.9365,-2.9287,-2.9141,-2.8838,-2.8545,-2.8291,-2.8291,-2.8291,-2.8291,0.0,0.0,0.0,0.0,0.0,0.0,0.0,0.0,0.0,0.0,0.0,0.0,0.0,0.0,0.0,0.0,0.0,0.0,-1.0969,-1.1263,-1.1557,-1.1886,-1.3035,-1.3237,-1.2335,-1.32,-1.3237,-1.2305,-1.2305,-1.2305,-1.2335,-1.3237,-1.3208,-1.2335,-1.3273,-1.3673,-1.3754,-1.4478,-1.4724,-1.4675,-1.5394,-1.5061,-1.4208,0.0,0.0,0.0,0.0,0.0,0.0,0.0,-1.7302,-1.758,0.0,0.0,0.0,-2.1385,-2.1293,-2.1569,-2.2765,-2.1355,-2.0087,0.0,0.0,0.0,-2.2818,-2.3091,-2.3091,-2.3091,0.0,0.0,0.0,0.0,0.0,0.0,0.0,0.0,0.0,0.0,0.0,0.0,0.0,0.0,0.0,0.0,0.0,0.0,0.0,0.0,0.0,0.0,0.0,0.0,-2.8291,-2.8291,-2.8291,-2.8291,-2.8291,-2.8291,-2.8291,-2.8291,-2.8291,-2.8291,-2.8525,-2.8916,-2.8916,-2.8916,-2.8916,-2.8916,-2.8672,-2.8291,-2.8291,-2.8291,-2.8291,-2.8291,-2.8291,-2.8291,0.0,0.0,0.0,0.0,0.0,0.0,0.0,0.0,0.0,0.0,0.0,0.0,0.0,0.0,0.0,0.0,0.0,0.0,0.0,-1.1149,-1.1429,-1.1557,-1.2319,-1.2592,-1.2305,-1.2556,-1.2592,-1.2305,-1.2305,-1.2305,-1.2305,-1.2592,-1.2556,-1.2298,-1.2592,-1.3219,-1.4052,-1.3797,-1.4173,-1.4914,-1.4697,-1.437,-1.4124,0.0,0.0,0.0,0.0,0.0,0.0,0.0,0.0,0.0,0.0,0.0,0.0,-1.9911,-2.0034,-2.0305,-2.1525,-2.1302,0.0,0.0,0.0,0.0,0.0,-2.2492,0.0,0.0,0.0,0.0,0.0,0.0,0.0,0.0,0.0,0.0,0.0,0.0,0.0,0.0,0.0,0.0,0.0,0.0,0.0,0.0,0.0,0.0,0.0,0.0,0.0,0.0,-2.8291,-2.8291,-2.8291,-2.8291,-2.8291,-2.8291,-2.8291,-2.8291,-2.8291,-2.8291,-2.8359,-2.8476,-2.8476,-2.8476,-2.8476,-2.8476,-2.8408,-2.8291,-2.8291,-2.8291,-2.8291,-2.8291,-2.8291,-2.8291,0.0,0.0,0.0,0.0,0.0,0.0,0.0,0.0,0.0,0.0,0.0,0.0,0.0,0.0,0.0,0.0,0.0,0.0,0.0,0.0,-1.1389,-1.1389,-1.1991,-1.2305,-1.2305,-1.2305,-1.2305,-1.2305,-1.2305,-1.2305,-1.2305,-1.2305,-1.2305,-1.2305,-1.2305,-1.2794,-1.3627,-1.3347,-1.3687,-1.4496,-1.4212,-1.4088,-1.4088,0.0,0.0,0.0,0.0,0.0,0.0,0.0,0.0,0.0,0.0,0.0,0.0,-1.8702,-1.8772,-1.9047,-2.026,0.0,0.0,0.0,0.0,0.0,0.0,0.0,0.0,0.0,0.0,0.0,0.0,0.0,0.0,0.0,0.0,0.0,0.0,0.0,0.0,0.0,0.0,0.0,0.0,0.0,0.0,0.0,0.0,0.0,0.0,0.0,0.0,0.0,-2.8291,-2.8291,-2.8291,-2.8291,-2.8291,-2.8291,-2.8291,-2.8291,-2.8291,-2.8291,-2.8291,-2.8291,-2.8291,-2.8291,-2.8291,-2.8291,-2.8291,-2.8291,-2.8291,-2.8291,-2.8291,-2.8291,-2.8291,-2.8291,0.0,0.0,0.0,0.0,0.0,0.0,0.0,0.0,0.0,0.0,0.0,0.0,0.0,0.0,0.0,0.0,0.0,0.0,0.0,0.0,-1.1389,-1.1389,-1.1991,-1.2305,-1.2305,-1.2305,-1.2305,-1.2305,-1.2305,-1.2305,-1.2305,-1.2305,-1.2305,-1.2305,-1.2331,-1.2549,-1.2851,-1.312,-1.3373,-1.3666,-1.3981,-1.4088,-1.4088,-1.4088,0.0,0.0,0.0,0.0,0.0,0.0,0.0,0.0,0.0,-1.7224,-1.8037,-1.7635,-1.7552,-1.7777,-1.8993,0.0,0.0,0.0,0.0,0.0,0.0,0.0,0.0,0.0,0.0,0.0,0.0,0.0,0.0,0.0,0.0,0.0,0.0,0.0,0.0,0.0,0.0,0.0,0.0,0.0,0.0,0.0,0.0,0.0,0.0,0.0,0.0,0.0,-2.7781,-2.7781,-2.7781,-2.7781,-2.7917,0.0,-2.8062,-2.8145,-2.8291,-2.8291,-2.8291,-2.8291,-2.8291,-2.8291,-2.8291,-2.8291,-2.8291,-2.8291,-2.8291,-2.8291,-2.8291,-2.8291,-2.8291,-2.8291,0.0,0.0,0.0,0.0,0.0,0.0,0.0,0.0,0.0,0.0,0.0,0.0,0.0,0.0,0.0,0.0,0.0,0.0,0.0,0.0,-1.1389,-1.1389,-1.1991,-1.2305,-1.2305,-1.2305,-1.2305,-1.2305,-1.2305,-1.2305,-1.2305,-1.2305,-1.2305,-1.2311,-1.2583,-1.2864,-1.3126,-1.3387,-1.368,-1.4001,-1.4062,-1.4088,-1.4088,-1.4088,-1.4088,0.0,0.0,0.0,0.0,0.0,0.0,0.0,-1.5236,-1.5691,-1.6085,-1.6188,-1.6204,-1.648,0.0,-1.7684,0.0,0.0,0.0,0.0,0.0,0.0,0.0,0.0,0.0,0.0,0.0,0.0,0.0,0.0,0.0,0.0,0.0,0.0,0.0,0.0,0.0,0.0,0.0,0.0,0.0,0.0,0.0,0.0,0.0,0.0,0.0,-2.4049,-2.4049,-2.4049,-2.4049,-2.4049,-2.4792,0.0,-2.6173,-2.6902,-2.8291,-2.8291,-2.8291,-2.8291,-2.8291,-2.8291,-2.8291,-2.8291,-2.8291,-2.8291,-2.8291,-2.8291,-2.8291,-2.8291,-2.8291,-2.8291,0.0,0.0,0.0,0.0,0.0,0.0,0.0,0.0,0.0,0.0,0.0,0.0,0.0,0.0,0.0,0.0,0.0,0.0,0.0,0.0,0.0,-1.1837,-1.2138,-1.2305,-1.2305,-1.2305,-1.2305,-1.2305,-1.2305,-1.2305,0.0,0.0,0.0,-1.2556,-1.2717,-1.3038,-1.3387,-1.354,-1.3773,-1.4088,-1.4088,-1.4088,-1.4088,-1.4088,-1.4088,-1.4088,-1.4088,0.0,0.0,0.0,0.0,0.0,0.0,0.0,-1.5451,-1.5745,-1.5784,-1.592,0.0,0.0,0.0,0.0,0.0,0.0,0.0,0.0,0.0,0.0,0.0,0.0,0.0,0.0,0.0,0.0,0.0,0.0,0.0,0.0,0.0,0.0,0.0,0.0,0.0,0.0,0.0,0.0,0.0,0.0,0.0,-2.259,-2.2673,-2.29,-2.29,-2.29,-2.29,-2.29,-2.3372,-2.4306,-2.4306,-2.4889,-2.6,-2.7586,-2.8291,-2.8291,-2.8291,-2.8291,-2.8291,-2.8291,-2.8291,-2.8291,-2.8291,-2.8291,-2.8291,-2.8291,-2.8291,-2.8291,0.0,0.0,0.0,0.0,0.0,0.0,0.0,0.0,0.0,0.0,0.0,0.0,0.0,0.0,0.0,0.0,0.0,0.0,0.0,0.0,0.0,0.0,-1.2305,-1.2305,-1.2305,-1.2305,-1.2305,-1.2305,0.0,0.0,0.0,0.0,0.0,-1.279,0.0,-1.3133,-1.3606,-1.366,-1.3861,-1.4088,-1.4088,-1.4088,-1.4088,-1.4088,-1.4088,-1.4088,-1.4088,-1.4122,-1.4162,-1.4162,0.0,0.0,0.0,0.0,-1.5518,-1.5711,-1.5784,-1.5784,0.0,0.0,0.0,0.0,0.0,0.0,0.0,0.0,0.0,0.0,0.0,0.0,0.0,0.0,0.0,0.0,0.0,0.0,0.0,0.0,0.0,0.0,0.0,0.0,0.0,0.0,0.0,0.0,0.0,0.0,-2.1482,-2.1499,-2.1627,-2.1961,-2.1977,-2.1977,-2.1977,-2.1977,-2.216,-2.2437,-2.2769,-2.3066,-2.3428,-2.6142,-2.7422,-2.7501,-2.7501,-2.7501,-2.7501,-2.7501,-2.7501,-2.7501,-2.7501,-2.7501,-2.7565,-2.7843,-2.7897,-2.796,0.0,0.0,0.0,0.0,0.0,0.0,0.0,0.0,0.0,0.0,0.0,0.0,0.0,0.0,0.0,0.0,0.0,0.0,-1.1315,0.0,0.0,-1.2285,-1.2305,-1.2305,-1.2305,-1.2305,-1.2305,-1.2305,0.0,0.0,0.0,0.0,0.0,-1.2797,0.0,-1.3333,-1.362,-1.3915,-1.4048,-1.4088,-1.4088,-1.4088,-1.4088,-1.4088,-1.4088,-1.4088,-1.4088,-1.4249,-1.4462,-1.4462,-1.483,0.0,0.0,0.0,-1.5731,-1.5771,-1.5784,-1.5784,0.0,0.0,0.0,0.0,0.0,0.0,0.0,0.0,0.0,0.0,0.0,0.0,0.0,0.0,0.0,0.0,0.0,0.0,0.0,0.0,0.0,0.0,0.0,0.0,0.0,0.0,0.0,0.0,0.0,0.0,-1.8202,-1.8209,-1.8222,-1.8317,-1.8317,-1.8317,-1.8317,-1.8317,-1.9129,-2.0666,-2.2168,-2.2933,-2.2983,-2.3398,-2.394,-2.4378,-2.4378,-2.4378,-2.4378,-2.4378,-2.4378,-2.4378,-2.4378,-2.4378,-2.4544,-2.5882,-2.6381,-2.6599,0.0,0.0,0.0,0.0,0.0,0.0,0.0,0.0,0.0,0.0,0.0,0.0,0.0,0.0,0.0,-1.0982,-1.1142,-1.1356,-1.1657,-1.1951,-1.2171,-1.2291,-1.2305,-1.2305,-1.2305,-1.2305,-1.2305,0.0,0.0,0.0,0.0,-1.2589,-1.275,0.0,0.0,0.0,0.0,-1.4035,-1.4088,-1.4088,-1.4088,-1.4088,-1.4108,-1.4269,-1.4329,-1.4349,-1.4559,-1.4663,-1.477,-1.477,-1.505,-1.5398,-1.5398,0.0,0.0,0.0,-1.5784,0.0,0.0,0.0,0.0,0.0,0.0,0.0,0.0,0.0,0.0,0.0,0.0,0.0,0.0,0.0,0.0,0.0,0.0,0.0,0.0,0.0,0.0,0.0,0.0,0.0,0.0,0.0,0.0,0.0,0.0,-1.7582,-1.7582,-1.7582,-1.7582,-1.7582,-1.7582,-1.7582,-1.7582,-1.7582,-1.8012,-1.8816,-1.9572,-1.9999,-2.013,-2.013,-2.1395,-2.358,-2.358,-2.364,-2.3822,-2.3822,-2.3822,-2.3822,-2.3822,-2.3822,-2.3877,-2.4544,-2.482,-2.4875,0.0,0.0,0.0,0.0,0.0,0.0,0.0,0.0,0.0,0.0,0.0,0.0,0.0,0.0,0.0,0.0,-1.1416,-1.1663,-1.1993,-1.2184,-1.2305,-1.2305,-1.2305,-1.2305,-1.2305,-1.2305,0.0,0.0,0.0,0.0,-1.2784,-1.2864,-1.3026,0.0,-1.3507,-1.3808,0.0,0.0,0.0,0.0,-1.4088,-1.4088,-1.4122,-1.4409,-1.4522,-1.4563,-1.4901,-1.5055,-1.5115,-1.5115,-1.5264,-1.5504,-1.5504,-1.5658,0.0,0.0,0.0,0.0,0.0,0.0,0.0,0.0,0.0,0.0,0.0,0.0,0.0,0.0,0.0,0.0,0.0,0.0,0.0,0.0,0.0,0.0,0.0,0.0,0.0,0.0,0.0,0.0,0.0,0.0,0.0,0.0,0.0,-1.7582,-1.7582,-1.7582,-1.7582,-1.7582,-1.7582,-1.7582,-1.7582,-1.7582,-1.7582,-1.7582,-1.7582,-1.7702,-1.7876,-1.7876,-1.9424,-2.2055,-2.2142,-2.2269,-2.245,-2.245,-2.245,-2.245,-2.245,-2.2505,-2.2568,-2.2918,-2.3054,-2.3182,0.0,0.0,0.0,0.0,0.0,0.0,0.0,0.0,0.0,0.0,0.0,0.0,-1.0969,-1.1229,-1.1516,-1.1832,-1.1873,-1.2007,-1.2258,-1.2291,-1.2305,-1.2305,-1.2305,0.0,-1.2305,-1.2305,0.0,0.0,0.0,0.0,-1.279,-1.3053,-1.33,-1.358,-1.3593,-1.3808,-1.4088,0.0,0.0,0.0,0.0,0.0,0.0,0.0,0.0,0.0,0.0,-1.5137,-1.5378,-1.5378,-1.5565,-1.5758,-1.5758,-1.5771,-1.5784,0.0,0.0,0.0,0.0,0.0,0.0,0.0,0.0,0.0,0.0,0.0,0.0,0.0,0.0,0.0,0.0,0.0,0.0,0.0,0.0,0.0,0.0,0.0,0.0,0.0,0.0,0.0,0.0,0.0,0.0,0.0,0.0,-1.7582,-1.7582,-1.7582,-1.7582,-1.7582,-1.7582,-1.7582,-1.7582,-1.7582,-1.7582,-1.7582,-1.7582,-1.7589,-1.7609,-1.7609,-1.7889,-1.832,-1.8604,-1.8739,-1.8808,-1.8808,-1.8808,-1.8808,-1.8808,-1.8921,-1.9294,-2.045,-2.101,-2.144,0.0,0.0,0.0,0.0,0.0,0.0,0.0,0.0,0.0,0.0,0.0,0.0,0.0,-1.1536,-1.1757,-1.1893,-1.2074,-1.2191,-1.2291,-1.2305,-1.2305,-1.2305,-1.2305,-1.2305,-1.2305,-1.2305,0.0,0.0,0.0,-1.2784,-1.3053,-1.3347,-1.3606,-1.3928,-1.3928,-1.3988,-1.4088,-1.4088,0.0,0.0,0.0,0.0,0.0,0.0,0.0,0.0,0.0,0.0,0.0,-1.5671,-1.5745,-1.5784,-1.5784,-1.5784,-1.5784,-1.5784,-1.5784,0.0,0.0,0.0,0.0,0.0,0.0,0.0,0.0,0.0,0.0,0.0,0.0,0.0,0.0,0.0,0.0,0.0,0.0,0.0,0.0,0.0,0.0,0.0,0.0,0.0,0.0,0.0,0.0,0.0,0.0,0.0,-1.7347,-1.7353,-1.744,-1.7575,-1.7582,-1.7582,-1.7582,-1.7582,-1.7582,-1.7582,-1.7582,-1.7582,-1.7582,-1.7582,-1.7642,-1.7756,-1.7862,-1.813,-1.849,-1.849,-1.849,-1.849,-1.849,-1.8557,-1.8687,-1.9112,-1.9354,-1.95,0.0,0.0,0.0,0.0,0.0,0.0,0.0,0.0,0.0,0.0,0.0,0.0,0.0,0.0,-1.2011,-1.2011,-1.2191,-1.2305,-1.2305,-1.2305,-1.2305,-1.2305,-1.2305,-1.2305,-1.2305,-1.2305,-1.2351,0.0,0.0,0.0,0.0,-1.3134,-1.3415,-1.4088,-1.4088,-1.4088,0.0,0.0,0.0,-1.4529,0.0,0.0,-1.5042,0.0,0.0,0.0,0.0,0.0,0.0,0.0,-1.5784,-1.5784,-1.5784,-1.5784,-1.5784,-1.5784,0.0,0.0,0.0,0.0,0.0,0.0,0.0,0.0,0.0,0.0,0.0,0.0,0.0,0.0,0.0,0.0,0.0,0.0,0.0,0.0,0.0,0.0,0.0,0.0,0.0,0.0,0.0,0.0,0.0,0.0,0.0,0.0,-1.7038,-1.7052,-1.7186,-1.7481,-1.7494,-1.7482,-1.7582,-1.7582,-1.7582,-1.7582,-1.7582,-1.7582,-1.7582,-1.7582,-1.7582,-1.7582,-1.7582,-1.7809,-1.8183,-1.8183,-1.8183,-1.8183,-1.8183,-1.825,-1.833,-1.8223,-1.825,-1.8343,0.0,0.0,0.0,0.0,0.0,0.0,0.0,0.0,0.0,-1.1369,0.0,0.0,0.0,0.0,0.0,-1.2305,-1.2305,-1.2305,-1.2305,-1.2305,-1.2305,-1.2305,-1.2274,-1.2274,-1.2274,-1.2244,-1.239,0.0,0.0,0.0,0.0,0.0,-1.2689,-1.4088,-1.4088,-1.4088,-1.4122,0.0,-1.4529,-1.4569,0.0,-1.5028,-1.5068,0.0,0.0,0.0,-1.5732,-1.5784,0.0,0.0,0.0,0.0,0.0,0.0,0.0,0.0,0.0,0.0,0.0,0.0,0.0,0.0,0.0,0.0,0.0,0.0,0.0,0.0,0.0,0.0,0.0,0.0,0.0,0.0,0.0,0.0,0.0,0.0,0.0,0.0,0.0,0.0,0.0,0.0,0.0,0.0,0.0,-1.6687,-1.6693,-1.67,-1.684,-1.7179,-1.7186,-1.7326,-1.7569,-1.7569,-1.7575,-1.7582,-1.7582,-1.7582,-1.7582,-1.7582,-1.7582,-1.7582,-1.7582,-1.7582,-1.7582,-1.7582,-1.7582,-1.7582,-1.7582,-1.7769,-1.7942,-1.7695,-1.7776,-1.7975,0.0,0.0,0.0,0.0,0.0,0.0,0.0,0.0,0.0,0.0,0.0,0.0,-1.2158,-1.2258,-1.2305,-1.2305,-1.2305,-1.2305,-1.2305,-1.2305,-1.2305,-1.2305,-1.1702,-1.1339,-1.1339,-1.0746,-1.0473,0.0,0.0,0.0,0.0,0.0,0.0,0.0,-1.4088,-1.4202,-1.4402,-1.4489,0.0,0.0,-1.5244,-1.5404,0.0,0.0,0.0,0.0,0.0,-1.5784,-1.5784,0.0,-1.5784,-1.5784,0.0,0.0,0.0,0.0,0.0,0.0,-1.5784,0.0,0.0,0.0,0.0,0.0,0.0,0.0,0.0,0.0,0.0,0.0,0.0,0.0,0.0,0.0,0.0,0.0,0.0,0.0,0.0,0.0,0.0,0.0,0.0,0.0,0.0,0.0,-1.6025,-1.6166,-1.638,-1.6587,-1.674,-1.6827,-1.6827,-1.6974,-1.732,-1.732,-1.7427,-1.7582,-1.7582,-1.7582,-1.7582,-1.7582,-1.7582,-1.7582,-1.7582,-1.7582,-1.7582,-1.7582,-1.7582,-1.7582,-1.7582,-1.7635,-1.7702,-1.7615,-1.7635,-1.7709,0.0,0.0,0.0,0.0,0.0,0.0,0.0,0.0,0.0,0.0,0.0,0.0,-1.2248,-1.2305,-1.2114,-1.1694,-1.1727,-1.1564,-1.1143,-1.1168,-1.1233,-1.1233,-1.0746,-1.0469,-1.0469,-0.9963,0.0,0.0,0.0,0.0,0.0,0.0,0.0,0.0,0.0,0.0,0.0,0.0,0.0,0.0,-1.5531,0.0,0.0,-1.5784,-1.5784,0.0,0.0,0.0,-1.5784,-1.5784,-1.5784,0.0,0.0,0.0,0.0,0.0,0.0,0.0,0.0,0.0,0.0,0.0,0.0,0.0,0.0,-1.5784,0.0,0.0,0.0,0.0,0.0,0.0,0.0,0.0,0.0,0.0,0.0,0.0,0.0,0.0,0.0,0.0,0.0,0.0,0.0,-1.5784,-1.5784,-1.5905,-1.6079,-1.6246,-1.6393,-1.652,-1.6526,-1.6667,-1.7012,-1.7018,-1.7159,-1.7454,-1.7454,-1.7468,-1.7582,-1.7582,-1.7582,-1.7582,-1.7582,-1.7582,-1.7582,-1.7582,-1.7582,-1.7582,-1.7582,-1.7582,-1.7582,-1.7582,-1.7582,-1.7582,0.0,0.0,0.0,0.0,0.0,0.0,0.0,0.0,0.0,0.0,-1.0078,-1.1025,-1.2042,-1.2048,-1.1639,-1.0752,-1.0775,-1.0472,-0.9571,-0.9637,-0.9705,-0.9705,-0.9608,-0.9541,-0.9541,-0.9442,0.0,0.0,0.0,0.0,0.0,0.0,0.0,0.0,0.0,0.0,0.0,0.0,0.0,-1.5471,-1.5678,-1.5784,0.0,0.0,-1.5784,0.0,-1.5784,-1.5784,-1.5784,-1.5784,-1.5784,0.0,0.0,0.0,0.0,0.0,-1.5784,0.0,0.0,0.0,0.0,0.0,0.0,0.0,-1.5784,-1.5784,-1.5784,0.0,0.0,0.0,0.0,0.0,0.0,0.0,0.0,0.0,0.0,0.0,0.0,0.0,0.0,0.0,0.0,-1.5784,-1.5784,-1.5784,-1.5784,-1.5784,-1.5784,-1.5784,-1.5952,-1.6261,-1.6226,-1.6359,-1.6653,-1.666,-1.6807,-1.7152,-1.7152,-1.7306,-1.7535,-1.7535,-1.7555,-1.7582,-1.7582,-1.7582,-1.7582,-1.7582,-1.7582,-1.7582,-1.7582,-1.7582,-1.7582,-1.7582,-1.7582,-1.7582,-0.5796,0.0,0.0,0.0,0.0,0.0,0.0,0.0,0.0,0.0,-0.9485,-1.0008,-1.1121,-1.0517,-1.0011,-0.9921,-0.9938,-0.9883,-0.9681,-0.9685,-0.9705,-0.9705,-0.9013,-0.864,-0.864,-0.7975,0.0,0.0,0.0,0.0,0.0,0.0,0.0,0.0,0.0,0.0,0.0,0.0,0.0,-1.5752,-1.5758,0.0,-1.5784,-1.5784,-1.5784,-1.5784,-1.5784,-1.5784,-1.5784,0.0,-1.5784,-1.5784,0.0,0.0,0.0,0.0,0.0,0.0,0.0,0.0,0.0,0.0,0.0,0.0,-1.5784,-1.5784,-1.5784,0.0,0.0,0.0,0.0,0.0,0.0,0.0,0.0,0.0,0.0,0.0,0.0,0.0,0.0,0.0,0.0,-1.5784,-1.5784,-1.5784,-1.5784,-1.5784,-1.5784,-1.5784,-1.5804,-1.5912,-1.5912,-1.6059,-1.6353,-1.6359,-1.6506,-1.6794,-1.6794,-1.6947,-1.7286,-1.7286,-1.7414,-1.7582,-1.7582,-1.7582,-1.7582,-1.7582,-1.7582,-1.7582,-1.7582,-1.7582,-1.7582,-1.7582,-1.7582,-1.7582,-0.6017,0.0,0.0,0.0,0.0,0.0,0.0,0.0,0.0,-0.7859,-0.8317,-0.9072,-1.0232,-0.9901,-0.9426,-0.9009,-0.9032,-0.8842,-0.8346,-0.8383,-0.8391,-0.8391,-0.7971,-0.7761,-0.7761,-0.7318,0.0,0.0,0.0,0.0,0.0,0.0,0.0,0.0,0.0,0.0,0.0,0.0,-1.5308,-1.4902,-1.5534,0.0,-1.5784,-1.5784,-1.5784,-1.5784,-1.5784,-1.5784,-1.5784,-1.5784,-1.5784,0.0,0.0,-1.5784,-1.5784,0.0,-1.5784,-1.5784,0.0,0.0,0.0,-1.5784,0.0,0.0,0.0,-1.5784,0.0,0.0,0.0,0.0,0.0,0.0,0.0,0.0,0.0,0.0,0.0,0.0,0.0,0.0,0.0,0.0,0.0,-1.5784,-1.5784,-1.5784,-1.5784,-1.5784,-1.5784,-1.5784,-1.5784,-1.5784,-1.5784,-1.5899,-1.6052,-1.6052,-1.6199,-1.6486,-1.6486,-1.664,-1.6934,-1.7132,-1.728,-1.7427,-1.7522,-1.7582,-1.7582,-1.7582,-1.7582,-1.7582,-1.7582,-1.7582,-1.7582,-1.7582,-1.7582,-1.7582,-0.6276,0.0,0.0,0.0,0.0,0.0,0.0,0.0,0.0,0.0,-0.7288,-0.8171,-0.9337,0.0,0.0,0.0,-0.807,-0.7815,0.0,0.0,0.0,-0.7095,-0.7095,-0.7095,-0.7095,-0.7095,-0.7095,0.0,0.0,0.0,0.0,0.0,0.0,0.0,0.0,0.0,0.0,0.0,0.0,-1.3584,0.0,-1.5194,-1.5439,-1.573,-1.5784,-1.5784,-1.5784,-1.5784,-1.5784,-1.5784,0.0,-1.5784,-1.5784,-1.5784,0.0,0.0,0.0,0.0,0.0,0.0,0.0,0.0,0.0,-1.5784,0.0,0.0,0.0,0.0,0.0,0.0,0.0,0.0,0.0,0.0,0.0,0.0,0.0,0.0,0.0,0.0,0.0,0.0,0.0,-1.5784,-1.5784,-1.5784,-1.5784,-1.5784,-1.5784,-1.5784,-1.5784,-1.5784,-1.5784,-1.5784,-1.5784,-1.5784,-1.5952,-1.6186,-1.6186,-1.6339,-1.6627,-1.6918,-1.7058,-1.7132,-1.7427,-1.7502,-1.7554,-1.7562,-1.7582,-1.7582,-1.7582,-1.7582,-1.7582,-1.7582,-1.7582,-1.7582,-0.6296,-0.63,0.0,0.0,0.0,0.0,0.0,0.0,0.0,0.0,0.0,0.0,0.0,0.0,0.0,0.0,0.0,0.0,-0.7071,0.0,0.0,0.0,0.0,0.0,-0.7095,-0.7095,-0.7095,0.0,0.0,0.0,0.0,0.0,0.0,0.0,-0.9598,0.0,0.0,0.0,-1.2237,0.0,-1.2285,-1.306,0.0,-1.5384,-1.5784,-1.5784,-1.5784,-1.5784,-1.5784,0.0,-1.5784,-1.5784,0.0,-1.5784,0.0,0.0,0.0,0.0,0.0,0.0,0.0,0.0,-1.5784,0.0,0.0,0.0,0.0,0.0,0.0,0.0,0.0,0.0,0.0,0.0,0.0,0.0,0.0,0.0,0.0,0.0,0.0,0.0,0.0,0.0,-1.5784,-1.5784,-1.5784,-1.5784,-1.5784,-1.5784,-1.5784,-1.5784,-1.5784,-1.5784,-1.5784,-1.5784,-1.5798,-1.5879,-1.5879,-1.6039,-1.6375,-1.6359,-1.6513,-1.6774,-1.7119,-1.7253,-1.7266,-1.7475,-1.7582,-1.7582,-1.7582,-1.7582,-1.7582,-1.7582,-1.7582,-1.7582,-0.63,-0.63,0.0,0.0,0.0,0.0,0.0,0.0,0.0,0.0,0.0,0.0,0.0,0.0,0.0,0.0,0.0,-0.7095,0.0,0.0,0.0,0.0,0.0,0.0,0.0,-0.7227,-0.7275,-0.7275,-0.7363,0.0,0.0,0.0,0.0,0.0,-0.93,0.0,-1.0096,0.0,0.0,0.0,0.0,0.0,0.0,-1.3926,-1.5146,-1.5784,-1.5784,-1.5784,-1.5784,0.0,-1.5784,0.0,0.0,0.0,0.0,0.0,0.0,0.0,0.0,0.0,0.0,0.0,0.0,0.0,0.0,0.0,-1.5784,0.0,0.0,0.0,0.0,0.0,0.0,0.0,0.0,0.0,0.0,0.0,0.0,0.0,0.0,0.0,0.0,0.0,0.0,0.0,0.0,-1.5784,-1.5784,-1.5784,-1.5784,-1.5784,-1.5784,-1.5784,-1.5784,-1.5784,-1.5784,-1.5784,-1.5784,-1.5844,-1.6019,-1.6192,-1.6339,-1.6473,-1.676,-1.7038,-1.7213,-1.7333,-1.7481,-1.7582,-1.7582,-1.7582,-1.7582,-1.7582,-1.7582,-1.7582,-0.6422,0.0,0.0,0.0,0.0,0.0,0.0,0.0,0.0,0.0,0.0,0.0,-0.7085,-0.7132,0.0,0.0,0.0,-0.7203,0.0,0.0,-0.7183,0.0,0.0,0.0,0.0,0.0,0.0,-0.7434,0.0,0.0,0.0,0.0,0.0,0.0,0.0,-0.946,-0.9509,0.0,0.0,-0.9509,-1.0485,-1.0485,-1.0288,-1.2904,-1.4704,-1.5784,-1.5784,-1.5784,-1.5784,-1.5784,-1.5784,0.0,-1.5784,0.0,0.0,0.0,0.0,0.0,-1.5784,0.0,0.0,0.0,0.0,0.0,0.0,0.0,0.0,0.0,0.0,0.0,0.0,0.0,0.0,0.0,0.0,0.0,0.0,0.0,0.0,0.0,0.0,0.0,0.0,0.0,0.0,0.0,-1.5784,-1.5784,-1.5784,-1.5784,-1.5784,-1.5784,-1.5784,-1.5784,-1.5784,-1.5784,-1.5784,-1.5784,-1.5784,-1.5784,-1.5791,-1.6052,-1.6152,-1.6166,-1.646,-1.6707,-1.6971,-1.7132,-1.7326,-1.7521,-1.7549,-1.7582,-1.7582,-1.7582,-1.7582,-1.7582,-0.6685,-0.6497,0.0,0.0,0.0,0.0,0.0,0.0,0.0,0.0,0.0,0.0,0.0,0.0,0.0,0.0,0.0,-0.7522,-0.7419,0.0,-0.7451,0.0,0.0,-0.7516,0.0,0.0,0.0,0.0,0.0,0.0,0.0,0.0,0.0,0.0,0.0,-0.8088,-0.8088,-0.8088,-0.8088,-0.8088,-0.8088,-0.8874,-1.0288,0.0,-1.4704,-1.5784,-1.5784,0.0,0.0,-1.5784,-1.5784,0.0,0.0,0.0,0.0,0.0,0.0,0.0,0.0,0.0,0.0,-1.5784,0.0,0.0,0.0,0.0,-1.5784,0.0,0.0,0.0,0.0,0.0,0.0,0.0,0.0,0.0,0.0,0.0,0.0,0.0,0.0,0.0,0.0,0.0,0.0,-1.5784,-1.5784,-1.5784,-1.5784,-1.5784,-1.5784,-1.5784,-1.5784,-1.5784,-1.5784,-1.5784,-1.5784,-1.5784,-1.5784,-1.5784,-1.5784,-1.5791,-1.5798,-1.5811,-1.6159,-1.6342,-1.6395,-1.6965,-1.7206,-1.7246,-1.7475,-1.7582,-1.7582,-1.7582,-1.7582,-1.7582,0.0,0.0,0.0,0.0,0.0,0.0,0.0,-0.693,0.0,0.0,0.0,0.0,0.0,0.0,-0.7522,0.0,0.0,-0.7577,-0.7526,-0.757,0.0,0.0,0.0,-0.7577,0.0,0.0,0.0,0.0,0.0,0.0,0.0,0.0,0.0,0.0,0.0,-0.7988,0.0,0.0,0.0,0.0,0.0,-0.8825,-1.0194,0.0,0.0,-1.321,-1.321,-1.321,0.0,-1.321,-1.321,-1.321,-1.321,-1.321,-1.3403,-1.4268,-1.3932,0.0,0.0,0.0,-1.3445,-1.4316,0.0,0.0,0.0,0.0,0.0,0.0,0.0,0.0,0.0,0.0,0.0,0.0,0.0,0.0,0.0,0.0,0.0,0.0,0.0,0.0,0.0,0.0,0.0,-1.5784,-1.5784,-1.5784,0.0,-1.5784,-1.5784,-1.5784,-1.5784,-1.5784,-1.5784,-1.5784,-1.5784,-1.5784,-1.5784,-1.5784,-1.5784,-1.5784,-1.5784,-1.5791,-1.5939,-1.6092,-1.6335,-1.6536,-1.6851,-1.7213,-1.7306,-1.7467,-1.7582,-1.7582,-1.7582,-1.7582,-0.6858,0.0,0.0,0.0,0.0,0.0,0.0,0.0,0.0,0.0,-0.7309,0.0,-0.7448,0.0,-0.7675,0.0,-0.7726,-0.7733,-0.7678,-0.7726,0.0,-0.7604,-0.7699,0.0,0.0,0.0,0.0,0.0,0.0,-0.7988,0.0,0.0,0.0,0.0,0.0,0.0,0.0,0.0,-0.7988,0.0,0.0,-0.8531,0.0,0.0,-1.1068,-1.1896,0.0,-1.1896,-1.1896,-1.1896,-1.1896,-1.1896,-1.1896,-1.1896,-1.2091,-1.2958,-1.2576,-1.2091,-1.2958,-1.2571,0.0,-1.2958,-1.3199,0.0,-1.4226,0.0,0.0,0.0,0.0,0.0,0.0,0.0,0.0,0.0,0.0,0.0,0.0,-1.4997,0.0,0.0,0.0,0.0,0.0,0.0,-1.5289,-1.5784,-1.5391,-1.5343,0.0,0.0,-1.5784,-1.5784,-1.5784,-1.5784,-1.5784,-1.5784,-1.5784,-1.5784,-1.5784,-1.5784,-1.5784,-1.5784,-1.5784,-1.5784,-1.5784,-1.5939,-1.6126,-1.6226,-1.661,-1.7052,-1.7159,-1.738,-1.7582,-1.7582,-1.7582,-1.7582,0.0,0.0,0.0,0.0,-0.7007,0.0,0.0,0.0,-0.7207,0.0,-0.7436,-0.7448,-0.7594,-0.7736,-0.7821,-0.7821,-0.7907,0.0,-0.7831,-0.7911,0.0,0.0,-0.784,-0.7921,-0.7824,0.0,0.0,0.0,0.0,0.0,0.0,0.0,0.0,0.0,-0.7988,0.0,-0.7988,-0.7988,-0.7988,-0.7988,-0.7988,-0.7988,-0.7988,-0.7988,-0.9554,-1.1702,-1.1702,-1.1702,-1.1702,-1.1702,-1.1702,-1.1702,-1.1702,-1.1702,-1.1707,-1.1799,-1.1755,-1.1707,-1.1799,-1.1755,-1.1707,-1.1799,0.0,0.0,0.0,0.0,-1.1896,0.0,0.0,0.0,0.0,0.0,0.0,0.0,0.0,0.0,0.0,0.0,0.0,0.0,0.0,0.0,0.0,-1.4704,-1.4507,-1.573,-1.4609,0.0,0.0,0.0,-1.573,-1.5784,-1.5784,-1.5784,-1.5784,-1.5784,-1.5784,-1.5784,-1.5784,-1.5784,-1.5784,-1.5784,-1.5784,-1.5784,-1.5784,-1.5784,-1.5804,-1.6132,-1.6433,-1.6734,-1.7065,-1.7367,-1.7582,-1.7582,-1.7582,-1.7582,-0.7095,-0.7095,-0.7085,0.0,-0.7071,-0.7136,0.0,0.0,0.0,0.0,-0.7634,-0.7712,-0.7753,-0.7889,-0.7931,-0.7931,-0.7968,0.0,0.0,0.0,0.0,-0.788,-0.7948,-0.7971,-0.7931,-0.7971,0.0,-0.7988,0.0,0.0,-0.7988,0.0,0.0,0.0,0.0,0.0,-0.7988,-0.7988,-0.7988,-0.7988,-0.7988,-0.7988,0.0,0.0,-0.8432,-0.9019,-0.9019,-0.9019,-0.9019,-0.9019,-0.9019,-0.9019,-0.9019,-0.9019,-0.9213,-1.019,-0.9801,-0.9213,-1.0243,-0.9752,-0.9262,-1.0239,-1.0485,-1.073,0.0,0.0,0.0,0.0,0.0,0.0,0.0,0.0,0.0,0.0,0.0,0.0,0.0,0.0,0.0,0.0,0.0,0.0,0.0,-1.5486,-1.5439,-1.5784,-1.4609,0.0,0.0,0.0,0.0,-1.5784,-1.5784,-1.5784,-1.5784,-1.5784,-1.5784,-1.5784,-1.5784,-1.5784,-1.5784,-1.5784,-1.5784,-1.5784,-1.5784,-1.5784,-1.5791,-1.5912,-1.6239,-1.6714,-1.6787,-1.7134,-1.7582,-1.7582,-1.7582,-1.7582,-0.7095,0.0,0.0,-0.7241,0.0,0.0,-0.7412,0.0,0.0,-0.7672,-0.7763,0.0,-0.7902,-0.7938,-0.7988,-0.7988,-0.7988,0.0,0.0,0.0,0.0,-0.7988,-0.7988,-0.7988,-0.7988,-0.7988,0.0,-0.7988,0.0,0.0,-0.7988,0.0,0.0,0.0,0.0,-0.7988,0.0,-0.7988,-0.7988,-0.7988,-0.7988,0.0,0.0,-0.7988,-0.7988,-0.7988,-0.7988,-0.7988,-0.7988,-0.7988,-0.7988,-0.7988,-0.7988,-0.7988,-0.8137,-0.892,-0.8577,-0.8187,-0.892,-0.8581,-0.8184,-0.8924,-0.9118,-0.9312,-1.0047,-1.019,-1.019,0.0,0.0,0.0,0.0,0.0,0.0,0.0,0.0,0.0,0.0,0.0,0.0,0.0,0.0,0.0,0.0,0.0,0.0,0.0,0.0,0.0,0.0,0.0,0.0,-1.4082,-1.4082,-1.437,-1.4949,-1.4949,-1.5242,-1.5784,-1.5784,-1.5486,-1.4949,-1.4949,-1.4657,-1.4082,-1.4082,-1.4082,-1.4082,-1.4082,-1.4435,-1.4981,-1.5831,-1.6704,-1.7582,-1.7582,-1.7582,-1.7582,0.0,0.0,0.0,0.0,0.0,0.0,0.0,-0.7543,0.0,-0.7821,0.0,-0.7892,-0.7975,-0.7988,-0.7988,-0.7988,0.0,-0.7988,-0.7988,-0.7988,-0.7988,-0.7988,-0.7988,-0.7988,-0.7988,-0.7988,0.0,0.0,0.0,0.0,0.0,0.0,0.0,0.0,0.0,0.0,0.0,-0.7988,-0.7988,0.0,-0.7988,-0.7988,-0.7988,-0.7988,-0.7988,-0.7988,-0.7988,-0.7988,-0.7988,-0.7988,-0.7988,-0.7988,-0.7988,-0.7988,-0.7988,-0.7988,-0.7988,-0.7988,-0.7988,-0.7988,-0.7988,-0.7988,-0.7988,-0.7988,-0.7988,-0.7988,-0.7988,-0.7988,-0.7988,-0.7988,0.0,0.0,0.0,0.0,0.0,0.0,0.0,0.0,0.0,0.0,0.0,0.0,0.0,0.0,0.0,0.0,0.0,0.0,0.0,0.0,0.0,-1.1945,-1.1896,0.0,-1.3632,0.0,-1.4172,-1.5296,-1.5486,-1.4949,-1.3926,-1.407,-1.3494,-1.2431,-1.2431,-1.2431,-1.2431,-1.2431,-1.2699,-1.331,-1.5001,-1.6446,-1.7582,-1.7364,-1.7417,-1.7582,0.0,0.0,0.0,0.0,0.0,-0.7767,-0.774,-0.7756,-0.7828,-0.7931,-0.7948,-0.7961,-0.7985,-0.7988,-0.7988,-0.7988,-0.7988,0.0,0.0,0.0,0.0,-0.7988,-0.7988,-0.7988,-0.7988,-0.7988,-0.7988,0.0,0.0,0.0,0.0,0.0,0.0,0.0,0.0,0.0,-0.7988,-0.7988,0.0,-0.7988,-0.7988,-0.7988,-0.7988,-0.7988,-0.7988,-0.7988,-0.7988,-0.7988,-0.7988,-0.7988,-0.7988,-0.7988,-0.7988,-0.7988,-0.7988,-0.7988,-0.7988,-0.7988,-0.7988,-0.7988,-0.7988,-0.7988,-0.7988,-0.7988,-0.7988,-0.7988,-0.7988,-0.7988,-0.7988,-0.7988,-0.7988,0.0,0.0,0.0,0.0,0.0,0.0,0.0,0.0,0.0,0.0,0.0,0.0,0.0,0.0,0.0,0.0,0.0,0.0,0.0,0.0,0.0,-1.1896,0.0,0.0,0.0,-1.2382,-1.2576,-1.3686,-1.4118,-1.3926,-1.4997,-1.5343,-1.5099,-1.5099,-1.5099,-1.5099,-1.5099,-1.5479,-1.6042,-1.6873,-1.7364,-1.747,-1.6227,-1.6552,-1.7582,0.0,0.0,0.0,0.0,0.0,0.0,0.0,-0.788,0.0,-0.7982,-0.7988,-0.7988,-0.7988,-0.7988,-0.7988,-0.7988,-0.7988,-0.7988,-0.7988,-0.7988,-0.7988,-0.7988,-0.7988,0.0,-0.7988,-0.7988,-0.7988,-0.7988,0.0,0.0,0.0,0.0,0.0,0.0,0.0,-0.7988,0.0,0.0,0.0,-0.7988,-0.7988,-0.7988,-0.7988,-0.7988,-0.7988,-0.7988,-0.7988,-0.7988,-0.7988,-0.7988,-0.7988,-0.7988,-0.7988,-0.7988,-0.7988,-0.7988,-0.7988,-0.7988,-0.7988,-0.7988,-0.7988,-0.7988,-0.7988,-0.7988,-0.7988,-0.7988,-0.7988,-0.7988,-0.7988,-0.7988,-0.7988,-0.7988,0.0,0.0,0.0,0.0,0.0,0.0,0.0,0.0,0.0,0.0,0.0,0.0,0.0,0.0,0.0,0.0,0.0,0.0,0.0,0.0,0.0,0.0,0.0,0.0,0.0,-1.1901,-1.2571,-1.2522,-1.1891,-1.2522,-1.242,-1.1741,-1.1741,-1.1741,-1.176,-1.1935,-1.2652,-1.3618,-1.4044,-1.4722,-1.5263,-1.4556,-1.4776,-1.547,0.0,-0.7784,0.0,0.0,-0.7911,0.0,-0.7988,-0.7988,-0.7988,-0.7988,-0.7988,-0.7988,-0.7988,-0.7988,-0.7988,-0.7988,-0.7988,-0.7988,-0.7988,-0.7988,-0.7988,-0.7988,-0.7988,-0.7988,-0.7988,-0.7988,-0.7988,0.0,0.0,0.0,0.0,0.0,0.0,0.0,0.0,0.0,0.0,0.0,-0.7988,-0.7988,-0.7988,-0.7988,-0.7988,-0.7988,-0.7988,-0.7988,-0.7988,-0.7988,-0.7988,-0.7988,-0.7988,-0.7988,-0.7988,-0.7988,-0.7988,-0.7988,-0.7988,-0.7988,-0.7988,-0.7988,-0.7988,-0.7988,-0.7988,-0.7988,-0.7988,-0.7988,-0.7988,-0.7988,-0.7988,-0.7988,-0.7988,-0.7988,0.0,0.0,0.0,0.0,0.0,0.0,0.0,0.0,0.0,0.0,0.0,0.0,0.0,0.0,0.0,0.0,0.0,0.0,0.0,0.0,0.0,-0.8528,-0.9558,0.0,-1.0096,0.0,-1.1361,-1.0974,-0.9998,-1.0293,-0.985,-0.8825,-0.8825,-0.8825,-0.8847,-0.9223,-1.008,-1.1144,-1.1438,-1.2295,-1.3264,-1.2945,-1.3048,-1.3426,0.0,0.0,0.0,0.0,0.0,0.0,0.0,-0.7988,-0.7988,-0.7988,-0.7988,-0.7988,-0.7988,-0.7988,-0.7988,-0.7988,-0.7988,-0.7988,-0.7988,-0.7988,-0.7988,-0.7988,-0.7988,-0.7988,-0.7988,-0.7988,-0.7988,0.0,0.0,0.0,0.0,0.0,0.0,0.0,0.0,0.0,0.0,-0.7988,-0.7988,-0.7988,-0.7988,-0.7988,-0.7988,-0.7988,-0.7988,-0.7988,-0.7988,-0.7988,-0.7988,-0.7988,-0.7988,-0.7988,-0.7988,-0.7988,-0.7988,-0.7988,-0.7988,-0.7988,-0.7988,-0.7988,-0.7988,-0.7988,-0.7988,-0.7988,-0.7988,-0.7988,-0.7988,-0.7988,-0.7988,-0.7988,-0.7988,-0.7988,-0.7988,0.0,0.0,0.0,0.0,0.0,0.0,0.0,0.0,0.0,0.0,0.0,0.0,0.0,0.0,0.0,0.0,0.0,0.0,-0.7811,0.0,-0.8038,-0.8187,-0.8187,-0.8237,-0.8382,-0.9608,-1.0096,-1.0047,-1.1219,-1.1653,-1.1507,-1.1507,-1.1507,-1.159,-1.201,-1.2284,-1.2483,-1.2933,-1.3156,-1.3156,-1.181,-1.2132,-1.3107,0.0,0.0,0.0,0.0,0.0,0.0,0.0,-0.7988,-0.7988,-0.7988,-0.7988,-0.7988,-0.7988,-0.7988,-0.7988,-0.7988,-0.7988,-0.7988,-0.7988,-0.7988,-0.7988,-0.7988,-0.7988,-0.7988,-0.7988,-0.7988,-0.7988,0.0,0.0,0.0,0.0,0.0,0.0,0.0,0.0,-0.7988,-0.7988,-0.7988,-0.7988,-0.7988,-0.7988,-0.7988,-0.7988,-0.7988,-0.7988,-0.7988,-0.7988,-0.7988,-0.7988,-0.7988,-0.7988,-0.7988,-0.7988,-0.7988,-0.7988,-0.7988,-0.7988,-0.7988,-0.7988,-0.7988,-0.7988,-0.7988,-0.7988,-0.7988,-0.7988,-0.7988,-0.7988,-0.7988,-0.7988,-0.7988,-0.7988,-0.7988,-0.7988,0.0,0.0,0.0,0.0,0.0,0.0,0.0,0.0,0.0,0.0,0.0,0.0,0.0,0.0,0.0,0.0,0.0,0.0,-0.7807,0.0,-0.7988,-0.7988,-0.7988,-0.7988,-0.7988,-0.8528,-0.8825,-0.8825,-0.9312,-0.9554,-0.9554,-0.9554,-0.9554,-0.9583,-0.9985,-1.0132,-1.0168,-1.0534,-1.0676,-1.0566,-1.0025,-1.0131,-1.0566,-0.5425,0.0,-0.6828,0.0,-0.6828,-0.6828,-0.6828,-0.6828,-0.6828,-0.6828,-0.6828,-0.7132,-0.7889,-0.7988,-0.7988,-0.7988,-0.7988,-0.7988,-0.7988,-0.7988,-0.7988,-0.7988,-0.7988,0.0,-0.7988,-0.7988,-0.7988,-0.7988,-0.7988,0.0,0.0,0.0,0.0,0.0,-0.7988,-0.7988,-0.7988,-0.7988,-0.7988,-0.7988,-0.7988,-0.7988,-0.7988,-0.7988,-0.7988,-0.7988,-0.7988,-0.7988,-0.7988,-0.7988,-0.7988,-0.7988,-0.7988,-0.7988,-0.7988,-0.7988,-0.7988,-0.7988,-0.7988,-0.7988,-0.7988,-0.7988,-0.7988,-0.7988,-0.7988,-0.7988,-0.7988,-0.7988,-0.7988,-0.7988,-0.7988,-0.7988,-0.7988,-0.7988,0.0,0.0,0.0,0.0,0.0,0.0,0.0,-0.7648,-0.7443,0.0,0.0,0.0,0.0,0.0,0.0,0.0,0.0,0.0,0.0,0.0,0.0,-0.7988,-0.7988,-0.7988,-0.7988,-0.7988,-0.7988,-0.7988,-0.7988,-0.7988,-0.7988,-0.7988,-0.8012,-0.836,-0.8482,-0.8513,-0.8818,-0.8885,-0.8885,-0.8885,-0.8885,-0.8885,-0.4016,-0.4016,-0.4066,-0.4066,-0.4066,-0.4066,-0.4066,-0.4066,-0.4066,-0.4066,-0.4066,-0.5068,-0.7736,-0.7988,-0.7988,-0.7988,-0.7988,-0.7988,-0.7988,-0.7988,-0.7988,0.0,0.0,-0.7988,-0.7988,-0.7988,-0.7988,-0.7988,0.0,0.0,-0.7814,0.0,-0.7896,-0.7988,-0.7988,-0.7988,-0.7988,-0.7988,-0.7988,-0.7988,-0.7988,-0.7988,-0.7988,-0.7988,-0.7988,-0.7988,-0.7988,-0.7988,-0.7988,-0.7988,-0.7988,-0.7988,-0.7988,-0.7988,-0.7988,-0.7988,-0.7988,-0.7988,-0.7988,-0.7988,-0.7988,-0.7988,-0.7988,-0.7988,-0.7988,-0.7988,-0.7988,-0.7988,-0.7988,-0.7988,-0.7988,-0.7988,-0.7988,-0.7988,0.0,0.0,0.0,0.0,0.0,0.0,-0.7689,-0.7543,-0.7433,0.0,0.0,0.0,0.0,0.0,0.0,0.0,0.0,-0.7807,-0.7911,0.0,-0.7988,-0.7988,-0.7988,-0.7988,-0.7988,-0.7988,-0.7988,-0.7988,-0.7988,-0.7988,-0.7988,-0.7988,-0.8012,-0.836,-0.8482,-0.8513,-0.8818,-0.8885,-0.8885,-0.8885,-0.8885,-0.8885,-0.2613,-0.3361,-0.4013,-0.4013,-0.4013,-0.3996,-0.3998,-0.399,-0.4023,-0.4022,-0.4016,-0.4316,-0.5168,-0.6077,-0.6631,0.0,-0.7484,-0.7988,0.0,-0.7988,-0.7988,-0.7988,-0.7988,-0.7988,-0.7988,-0.7988,-0.7988,-0.7988,0.0,0.0,0.0,-0.7917,-0.7941,-0.7988,-0.7988,-0.7988,-0.7988,-0.7988,-0.7988,-0.7988,-0.7988,-0.7988,-0.7988,-0.7988,-0.7988,-0.7988,-0.7988,-0.7988,-0.7988,-0.7988,-0.7988,-0.7988,-0.7988,-0.7988,-0.7988,-0.7988,-0.7988,-0.7988,-0.7988,-0.7988,-0.7988,-0.7988,-0.7988,-0.7988,-0.7988,-0.7988,-0.7988,-0.7988,-0.7988,-0.7988,-0.7988,-0.7988,-0.7988,-0.7988,-0.7988,0.0,0.0,0.0,0.0,0.0,0.0,-0.7685,0.0,-0.7482,0.0,0.0,0.0,0.0,0.0,0.0,0.0,0.0,-0.7965,0.0,-0.7988,-0.7988,-0.7988,-0.7988,-0.7988,-0.7988,-0.7988,-0.7988,-0.7988,-0.7988,-0.7988,-0.7988,-0.8012,-0.836,-0.8482,-0.8513,-0.8818,-0.8885,-0.8885,-0.8885,-0.8885,-0.8885,-0.1256,-0.1899,-0.2496,-0.2496,-0.2496,-0.2487,-0.2512,-0.2492,-0.2522,-0.2494,-0.2474,-0.2514,-0.2514,-0.3718,0.0,-0.5222,-0.6024,-0.6476,-0.6476,-0.6476,-0.6476,-0.6476,-0.698,-0.7235,-0.7235,0.0,0.0,-0.7988,-0.7988,-0.7988,-0.7988,-0.7988,-0.7988,-0.7988,-0.7988,-0.7988,-0.7988,-0.7988,-0.7988,-0.7988,-0.7988,-0.7988,-0.7988,-0.7988,-0.7988,-0.7988,-0.7988,-0.7988,-0.7988,-0.7988,-0.7988,-0.7988,-0.7988,-0.7988,-0.7988,-0.7988,-0.7988,-0.7988,-0.7988,-0.7988,-0.7988,-0.7988,-0.7988,-0.7988,-0.7988,-0.7988,-0.7988,-0.7988,-0.7988,-0.7988,-0.7988,-0.7988,-0.7988,-0.7988,-0.7988,-0.7988,-0.7988,0.0,0.0,0.0,0.0,0.0,0.0,-0.7631,0.0,0.0,0.0,0.0,0.0,0.0,0.0,-0.7985,-0.7988,0.0,-0.7988,-0.7988,-0.7988,-0.7988,-0.7988,-0.7988,-0.7988,-0.7988,-0.7988,-0.7988,-0.7988,-0.7988,-0.8012,-0.836,-0.8482,-0.8513,-0.8818,-0.8885,-0.8885,-0.8885,-0.8885,-0.8885,0.0,0.0,0.0,0.0,0.0,0.0,0.0,0.0,0.0,0.0,0.0,0.0,0.0,-0.1109,-0.2363,-0.3615,0.0,0.0,0.0,-0.4016,-0.4016,-0.4016,-0.5172,-0.5879,-0.5879,-0.7083,-0.7736,-0.7736,-0.7839,-0.7839,-0.7889,-0.7939,-0.7988,-0.7988,-0.7988,-0.7988,-0.7988,-0.7988,-0.7988,-0.7988,-0.7988,-0.7988,-0.7988,-0.7988,-0.7988,-0.7988,-0.7988,-0.7988,-0.7988,-0.7988,-0.7988,-0.7988,-0.7988,-0.7988,-0.7988,-0.7988,-0.7988,-0.7988,-0.7988,-0.7988,-0.7988,-0.7988,-0.7988,-0.7988,-0.7988,-0.7988,-0.7988,-0.7988,-0.7988,-0.7988,-0.7988,-0.7988,-0.7988,-0.7988,-0.7988,-0.7988,-0.7988,0.0,0.0,0.0,0.0,0.0,0.0,-0.7706,-0.7685,0.0,0.0,0.0,0.0,0.0,-0.7892,-0.7985,-0.7988,-0.7988,-0.7988,-0.7988,-0.7988,-0.7988,-0.7988,-0.7988,-0.7988,-0.7988,-0.7988,-0.7988,-0.7988,-0.7988,-0.8012,-0.836,-0.8482,-0.8513,-0.8818,-0.8885,-0.8885,-0.8885,-0.8885,-0.8885,0.0,0.0,0.0,0.0,0.0,0.0,0.0,0.0,0.0,0.0,0.0,0.0,0.0,-0.0303,-0.0605,-0.0907,-0.2815,-0.4016,-0.4016,-0.4016,-0.4016,-0.4016,-0.4316,-0.4468,-0.4468,-0.4768,-0.4968,-0.4968,-0.5977,-0.6481,-0.6481,-0.7537,-0.7988,-0.7988,-0.7988,-0.7988,-0.7988,-0.7988,-0.7988,-0.7988,-0.7988,-0.7988,-0.7988,-0.7988,-0.7988,-0.7988,-0.7988,-0.7988,-0.7988,-0.7988,-0.7988,-0.7988,-0.7988,-0.7988,-0.7988,-0.7988,-0.7988,-0.7988,-0.7988,-0.7988,-0.7988,-0.7988,-0.7988,-0.7988,-0.7988,-0.7988,-0.7988,-0.7988,-0.7988,-0.7988,-0.7988,-0.7988,-0.7988,-0.7988,-0.7988,-0.7988,-0.7988,-0.7988,0.0,0.0,-0.7958,-0.7934,-0.7934,-0.7904,-0.7901,0.0,0.0,0.0,0.0,-0.7955,-0.7951,-0.7988,-0.7988,-0.7988,-0.7988,-0.7988,-0.7988,-0.7988,-0.7988,-0.7988,-0.7988,-0.7988,-0.7988,-0.7988,-0.7988,-0.7988,-0.8012,-0.836,-0.8482,-0.8513,-0.8818,-0.8885,-0.8885,-0.8885,-0.8885,-0.8885,0.0,0.0,0.0,0.0,0.0,0.0,0.0,0.0,0.0,0.0,0.0,0.0,0.0,0.0,0.0,0.0,-0.131,-0.2163,-0.2163,-0.2163,-0.2163,-0.2163,-0.2764,-0.3065,-0.3065,-0.3665,-0.4016,-0.4016,-0.4718,-0.5072,-0.5122,-0.5822,-0.6174,-0.6174,-0.683,-0.7083,-0.7135,-0.7739,-0.7988,-0.7988,-0.7988,-0.7988,-0.7988,-0.7988,-0.7988,-0.7988,-0.7988,-0.7988,-0.7988,-0.7988,-0.7988,-0.7988,-0.7988,-0.7988,-0.7988,-0.7988,-0.7988,-0.7988,-0.7988,-0.7988,-0.7988,-0.7988,-0.7988,-0.7988,-0.7988,-0.7988,-0.7988,-0.7988,-0.7988,-0.7988,-0.7988,-0.7988,-0.7988,-0.7988,-0.7988,-0.7988,-0.7988,-0.7988,0.0,-0.7988,-0.7988,-0.7988,-0.7988,-0.7988,-0.7988,-0.7988,0.0,0.0,-0.7988,-0.7988,-0.7988,-0.7988,-0.7988,-0.7988,-0.7988,-0.7988,-0.7988,-0.7988,-0.7988,-0.7988,-0.7988,-0.7988,-0.7988,-0.7988,-0.7988,-0.7988,-0.8012,-0.836,-0.8482,-0.8513,-0.8818,-0.8885,-0.8885,-0.8885,-0.8885,-0.8885,0.0,0.0,0.0,0.0,0.0,0.0,0.0,0.0,0.0,0.0,0.0,0.0,0.0,0.0,0.0,0.0,0.0,0.0,0.0,0.0,0.0,0.0,-0.1109,-0.1711,-0.1711,-0.2815,-0.3416,-0.3416,-0.3615,-0.3715,-0.3715,-0.3915,-0.4016,-0.4066,-0.5172,-0.5677,-0.5777,-0.693,-0.7385,-0.7385,-0.7385,-0.7385,-0.7385,-0.7385,-0.7534,-0.7686,-0.7686,-0.7839,-0.7988,-0.7988,-0.7988,-0.7988,-0.7988,-0.7988,-0.7988,-0.7988,-0.7988,-0.7988,-0.7988,-0.7988,-0.7988,-0.7988,-0.7988,-0.7988,-0.7988,-0.7988,-0.7988,-0.7988,-0.7988,-0.7988,-0.7988,-0.7988,-0.7988,-0.7988,-0.7988,-0.7988,-0.7988,0.0,-0.7988,-0.7988,-0.7988,-0.7988,-0.7988,-0.7988,-0.7988,-0.7988,-0.7988,-0.7988,0.0,-0.7988,-0.7988,-0.7988,-0.7988,-0.7988,-0.7988,-0.7988,-0.7988,-0.7988,-0.7988,-0.7988,-0.7988,-0.7988,-0.7988,-0.7988,-0.7988,-0.7988,-0.8012,-0.8336,-0.8462,-0.8509,-0.8794,-0.8861,-0.8885,-0.8885,-0.8885,-0.8885,0.0,0.0,0.0,0.0,0.0,0.0,0.0,0.0,0.0,0.0,0.0,0.0,0.0,0.0,0.0,0.0,0.0,0.0,0.0,0.0,0.0,0.0,-0.0202,-0.0303,-0.0303,-0.0504,-0.0605,-0.0605,-0.1762,-0.2314,-0.2314,-0.3465,-0.4016,-0.4016,-0.4216,-0.4316,-0.4316,-0.4516,-0.4616,-0.4616,-0.4616,-0.4616,-0.4616,-0.4616,-0.5322,-0.6331,-0.6331,-0.7033,-0.7988,-0.7988,-0.7988,-0.7988,-0.7988,-0.7988,-0.7988,-0.7988,-0.7988,-0.7988,-0.7988,-0.7988,-0.7988,-0.7988,-0.7988,-0.7988,-0.7988,-0.7988,-0.7988,-0.7988,-0.7988,-0.7988,-0.7988,-0.7988,-0.7988,-0.7988,-0.7988,-0.7988,-0.7988,0.0,-0.7988,-0.7988,-0.7988,-0.7988,-0.7988,-0.7988,-0.7988,-0.7988,-0.7988,-0.7988,-0.7988,-0.7988,-0.7988,-0.7988,-0.7988,-0.7988,-0.7988,-0.7988,-0.7988,-0.7988,-0.7988,-0.7988,-0.7988,-0.7988,-0.7988,-0.7988,-0.7988,-0.7988,-0.8005,-0.8231,-0.8374,-0.8499,-0.8676,-0.8825,-0.8885,-0.8885,-0.8885,-0.8885,0.0,0.0,0.0,0.0,0.0,0.0,0.0,0.0,0.0,0.0,0.0,0.0,0.0,0.0,0.0,0.0,0.0,0.0,0.0,0.0,0.0,0.0,0.0,0.0,0.0,0.0,0.0,0.0,-0.0605,-0.0907,-0.0958,-0.1561,-0.1862,-0.1862,-0.2614,-0.2914,-0.2964,-0.3715,-0.4016,-0.4016,-0.4016,-0.4016,-0.4016,-0.4016,-0.4368,-0.492,-0.492,-0.532,-0.5822,-0.5822,-0.5822,-0.5974,-0.6681,-0.6426,-0.5972,-0.6731,-0.7437,-0.7988,-0.7988,-0.7988,-0.7988,-0.7988,-0.7988,-0.7988,-0.7988,-0.7988,-0.7988,-0.7988,-0.7988,-0.7988,-0.7988,-0.7988,-0.7988,-0.7988,-0.7988,0.0,0.0,-0.7988,-0.7988,-0.7988,-0.7988,-0.7988,-0.7988,-0.7988,-0.7988,-0.7988,-0.7988,-0.7988,-0.7988,-0.7988,-0.7988,-0.7988,-0.7988,-0.7988,-0.7988,-0.7988,-0.7988,-0.7988,-0.7988,-0.7988,-0.7988,-0.7988,-0.7988,-0.7988,-0.7988,-0.7988,-0.8002,-0.8208,-0.8353,-0.8489,-0.856,-0.8679,-0.8804,-0.8723,-0.8693,-0.8693,0.0,0.0,0.0,0.0,0.0,0.0,0.0,0.0,0.0,0.0,0.0,0.0,0.0,0.0,0.0,0.0,0.0,0.0,0.0,0.0,0.0,0.0,0.0,0.0,0.0,0.0,0.0,0.0,0.0,0.0,0.0,0.0,0.0,-0.0051,-0.1058,-0.1511,-0.1611,-0.2614,-0.3065,-0.3065,-0.3065,-0.3065,-0.3065,-0.3065,-0.3265,-0.3516,-0.3516,-0.3715,-0.4016,-0.4016,-0.4016,-0.4166,-0.5222,-0.482,-0.4216,-0.5222,-0.6276,-0.708,-0.708,-0.708,-0.708,-0.708,-0.708,-0.708,-0.708,-0.708,-0.708,-0.708,-0.708,-0.708,-0.708,-0.708,-0.708,-0.708,0.0,0.0,0.0,-0.708,-0.708,-0.708,-0.708,-0.708,-0.708,-0.708,-0.708,-0.708,-0.708,-0.708,-0.708,-0.708,-0.708,-0.708,-0.7686,-0.7988,-0.7988,-0.7988,-0.7988,-0.7988,-0.7988,-0.7988,-0.7988,-0.7988,-0.7988,-0.7988,-0.7988,-0.7988,-0.7998,-0.8167,-0.8303,-0.8431,-0.8431,-0.8523,-0.8645,-0.8526,-0.8482,-0.8482,0.0,0.0,0.0,0.0,0.0,0.0,0.0,0.0,0.0,0.0,0.0,0.0,0.0,0.0,0.0,0.0,0.0,0.0,0.0,0.0,0.0,0.0,0.0,0.0,0.0,0.0,0.0,0.0,0.0,0.0,0.0,0.0,0.0,0.0,-0.0101,-0.0151,-0.0151,-0.0252,-0.0303,-0.0303,-0.0303,-0.0303,-0.0303,-0.0303,-0.1058,-0.2163,-0.2163,-0.2966,-0.4016,-0.4016,-0.4016,-0.4016,-0.4116,-0.4066,-0.4016,-0.4116,-0.4216,-0.4316,-0.4316,-0.4316,-0.4316,-0.4316,-0.4316,-0.4316,-0.4316,-0.4316,-0.4316,-0.4316,-0.4316,-0.4316,-0.4316,-0.4316,-0.4316,-0.4316,0.0,0.0,-0.4316,-0.4316,-0.4316,-0.4316,-0.4316,-0.4316,-0.4316,-0.4316,-0.4316,-0.4316,-0.4316,-0.4316,-0.4316,-0.4316,-0.4316,-0.4316,-0.6728,-0.7988,-0.7988,-0.7988,-0.7988,-0.7988,-0.7988,-0.7988,-0.7988,-0.7988,-0.7988,-0.7988,-0.7988,-0.7988,-0.7988,-0.8002,-0.8147,-0.8337,-0.8337,-0.8374,-0.8499,-0.8486,-0.8482,-0.8482,0.0,0.0,0.0,0.0,0.0,0.0,0.0,0.0,0.0,0.0,0.0,0.0,0.0,0.0,0.0,0.0,0.0,0.0,0.0,0.0,0.0,0.0,0.0,0.0,0.0,0.0,0.0,0.0,0.0,0.0,0.0,0.0,0.0,0.0,0.0,0.0,0.0,0.0,0.0,0.0,0.0,0.0,0.0,0.0,-0.0303,-0.0756,-0.0756,-0.1109,-0.1511,-0.1511,-0.1511,-0.1661,-0.2514,-0.2213,-0.1511,-0.1511,-0.1511,-0.1511,-0.1511,-0.2715,-0.4016,-0.4016,-0.4016,-0.4016,-0.4016,-0.4016,-0.4016,-0.4016,-0.4016,-0.4016,-0.4016,-0.4016,-0.4016,-0.4016,0.0,-0.4016,-0.4016,-0.4016,-0.4016,-0.4016,-0.4016,-0.4016,-0.4016,-0.4016,-0.4016,-0.4016,-0.4016,-0.4016,-0.4016,-0.4016,-0.4016,-0.4016,-0.4968,-0.5924,-0.6731,-0.7587,-0.7988,-0.7988,-0.7988,-0.7988,-0.7988,-0.7988,-0.7988,-0.7988,-0.7988,-0.7988,-0.7988,-0.7988,-0.813,-0.8313,-0.8163,-0.8218,-0.834,-0.8241,-0.8208,-0.8208,0.0,0.0,0.0,0.0,0.0,0.0,0.0,0.0,0.0,0.0,0.0,0.0,0.0,0.0,0.0,0.0,0.0,0.0,0.0,0.0,0.0,0.0,0.0,0.0,0.0,0.0,0.0,0.0,0.0,0.0,0.0,0.0,0.0,0.0,0.0,0.0,0.0,0.0,0.0,0.0,0.0,0.0,0.0,0.0,0.0,0.0,0.0,0.0,0.0,0.0,0.0,-0.0151,-0.1058,-0.0756,0.0,0.0,0.0,0.0,0.0,-0.136,-0.2765,-0.2765,-0.2765,-0.2765,-0.2765,-0.2765,-0.2765,-0.2765,-0.2765,-0.2765,-0.2765,-0.2765,-0.2765,-0.2765,-0.2765,-0.2765,-0.2765,-0.2765,-0.2765,-0.2765,-0.2765,-0.2765,-0.2765,-0.2765,-0.2765,-0.2765,-0.2765,-0.2765,-0.2765,-0.2765,-0.2765,-0.2765,-0.3165,-0.3817,-0.4722,-0.6074,-0.6728,-0.6728,-0.6728,-0.6728,-0.6728,-0.6728,-0.6728,-0.6728,-0.6728,-0.6728,-0.6728,-0.6728,-0.6832,-0.6955,-0.6812,-0.6832,-0.6952,-0.6809,-0.6728,-0.6728,0.0,0.0,0.0,0.0,0.0,0.0,0.0,0.0,0.0,0.0,0.0,0.0,0.0,0.0,0.0,0.0,0.0,0.0,0.0,0.0,0.0,0.0,0.0,0.0,0.0,0.0,0.0,0.0,0.0,0.0,0.0,0.0,0.0,0.0,0.0,0.0,0.0,0.0,0.0,0.0,0.0,0.0,0.0,0.0,0.0,0.0,0.0,0.0,0.0,0.0,0.0,0.0,0.0,0.0,0.0,0.0,0.0,0.0,0.0,0.0,0.0,0.0,0.0,0.0,0.0,0.0,0.0,0.0,0.0,0.0,0.0,0.0,0.0,0.0,0.0,0.0,0.0,0.0,0.0,0.0,0.0,0.0,0.0,0.0,0.0,0.0,0.0,0.0,0.0,0.0,0.0,0.0,-0.131,-0.1963,-0.1963,-0.3316,-0.4016,-0.4016,-0.4016,-0.4016,-0.4016,-0.4016,-0.4016,-0.4016,-0.4016,-0.4016,-0.4016,-0.4016,-0.4016,-0.4016,-0.4016,-0.4016,-0.4016,-0.4016,-0.4016,-0.4016,0.0,0.0,0.0,0.0,0.0,0.0,0.0,0.0,0.0,0.0,0.0,0.0,0.0,0.0,0.0,0.0,0.0,0.0,0.0,0.0,0.0,0.0,0.0,0.0,0.0,0.0,0.0,0.0,0.0,0.0,0.0,0.0,0.0,0.0,0.0,0.0,0.0,0.0,0.0,0.0,0.0,0.0,0.0,0.0,0.0,0.0,0.0,0.0,0.0,0.0,0.0,0.0,0.0,0.0,0.0,0.0,0.0,0.0,0.0,0.0,0.0,0.0,0.0,0.0,0.0,0.0,0.0,0.0,0.0,0.0,0.0,0.0,0.0,0.0,0.0,0.0,0.0,0.0,0.0,0.0,0.0,0.0,0.0,0.0,0.0,0.0,0.0,0.0,0.0,0.0,0.0,0.0,-0.0404,-0.0605,-0.0605,-0.2864,-0.4016,-0.4016,-0.4016,-0.4016,-0.4016,-0.4016,-0.4016,-0.4016,-0.4016,-0.4016,-0.4016,-0.4016,-0.4016,-0.4016,-0.4016,-0.4016,-0.4016,-0.4016,-0.4016,-0.4016,0.0,0.0,0.0,0.0,0.0,0.0,0.0,0.0,0.0,0.0,0.0,0.0,0.0,0.0,0.0,0.0,0.0,0.0,0.0,0.0,0.0,0.0,0.0,0.0,0.0,0.0,0.0,0.0,0.0,0.0,0.0,0.0,0.0,0.0,0.0,0.0,0.0,0.0,0.0,0.0,0.0,0.0,0.0,0.0,0.0,0.0,0.0,0.0,0.0,0.0,0.0,0.0,0.0,0.0,0.0,0.0,0.0,0.0,0.0,0.0,0.0,0.0,0.0,0.0,0.0,0.0,0.0,0.0,0.0,0.0,0.0,0.0,0.0,0.0,0.0,0.0,0.0,0.0,0.0,0.0,0.0,0.0,0.0,0.0,0.0,0.0,0.0,0.0,0.0,0.0,0.0,0.0,0.0,0.0,0.0,-0.1611,-0.2414,-0.2414,-0.2414,-0.2414,-0.2414,-0.2414,-0.2414,-0.2414,-0.2414,-0.2414,-0.2414,-0.2414,-0.2414,-0.2414,-0.2414,-0.2414,-0.2414,-0.2414,-0.2414,-0.2414,0.0,0.0,0.0,0.0,0.0,0.0,0.0,0.0,0.0,0.0,0.0,0.0,0.0,0.0,0.0,0.0,0.0,0.0,0.0,0.0,0.0,0.0,0.0,0.0,0.0,0.0,0.0,0.0,0.0,0.0,0.0,0.0,0.0,0.0,0.0,0.0,0.0,0.0,0.0,0.0,0.0,0.0,0.0,0.0,0.0,0.0,0.0,0.0,0.0,0.0,0.0,0.0,0.0,0.0,0.0,0.0,0.0,0.0,0.0,0.0,0.0,0.0,0.0,0.0,0.0,0.0,0.0,0.0,0.0,0.0,0.0,0.0,0.0,0.0,0.0,0.0,0.0,0.0,0.0,0.0,0.0,0.0,0.0,0.0,0.0,0.0,0.0,0.0,0.0,0.0,0.0,0.0,0.0,0.0,0.0,0.0,0.0,0.0,0.0,0.0,0.0,0.0,0.0,0.0,0.0,0.0,0.0,0.0,0.0,0.0,0.0,0.0,0.0,0.0,0.0,0.0,0.0,0.0,0.0,0.0,0.0,0.0,0.0,0.0,0.0,0.0,0.0,0.0,0.0,0.0,0.0,0.0,0.0,0.0,0.0,0.0,0.0,0.0,0.0,0.0,0.0,0.0,0.0,0.0,0.0,0.0,0.0,0.0,0.0,0.0,0.0,0.0,0.0,0.0,0.0,0.0,0.0,0.0,0.0,0.0,0.0,0.0,0.0,0.0,0.0,0.0,0.0,0.0,0.0,0.0,0.0,0.0,0.0,0.0,0.0,0.0,0.0,0.0,0.0,0.0,0.0,0.0,0.0,0.0,0.0,0.0,0.0,0.0,0.0,0.0,0.0,0.0,0.0,0.0,0.0,0.0,0.0,0.0,0.0,0.0,0.0,0.0,0.0,0.0,0.0,0.0,0.0,0.0,0.0,0.0,0.0,0.0,0.0,0.0,0.0,0.0,0.0,0.0,0.0,0.0,0.0,0.0,0.0,0.0,0.0,0.0,0.0,0.0,0.0,0.0,0.0,0.0,0.0,0.0,0.0,0.0,0.0,0.0,0.0,0.0,0.0,0.0,0.0,0.0,0.0,0.0,0.0,0.0,0.0,0.0,0.0,0.0,0.0,0.0,0.0,0.0,0.0,0.0,0.0,0.0,0.0,0.0,0.0,0.0,0.0,0.0,0.0,0.0,0.0,0.0,0.0,0.0,0.0,0.0,0.0,0.0,0.0,0.0,0.0,0.0,0.0,0.0,0.0,0.0,0.0,0.0,0.0,0.0,0.0,0.0,0.0,0.0,0.0,0.0,0.0,0.0,0.0,0.0,0.0,0.0,0.0,0.0,0.0,0.0,0.0,0.0,0.0,0.0,0.0,0.0,0.0,0.0,0.0,0.0,0.0,0.0,0.0,0.0,0.0,0.0,0.0,0.0,0.0,0.0,0.0,0.0,0.0,0.0,0.0,0.0,0.0,0.0,0.0,0.0,0.0,0.0,0.0,0.0,0.0,0.0,0.0,0.0,0.0,0.0,0.0,0.0,0.0,0.0,0.0728,0.056,0.0448,0.0728,0.0784,0.0784,0.0784,0.0784,0.0672,0.0392,0.0392,0.028,0.0,0.0,0.0,0.0,0.0,0.0,0.0,0.0,0.0,0.0,0.0,0.0,0.0,0.0,0.0,0.0,0.0,0.0,0.0,0.0,0.0,0.0,0.0,0.0,0.0,0.0,0.0,0.0,0.0,0.0,0.0,0.0,0.0,0.0,0.0,0.0,0.0,0.0,0.0,0.0,0.0,0.0,0.0,0.0,0.0,0.0,0.0,0.0,0.0,0.0,0.0,0.0,0.0,0.0,0.0,0.0,0.0,0.0,0.0,0.0,0.0,0.0,0.0,0.0,0.0,0.0,0.0,0.0,0.0,0.0,0.0,0.0,0.0,0.0,0.0,0.0,0.0,0.0,0.0,0.0,0.0,0.0,0.0,0.0,0.0,0.0,0.0,0.0,0.0,0.0,0.0,0.0,0.0,0.0,0.0,0.0,0.0,0.0,0.0,0.0,0.0,0.0,0.0,0.0,0.3632,0.2795,0.2348,0.3634,0.3913,0.3913,0.3913,0.3913,0.3409,0.2069,0.1901,0.1399,0.0112,0.0,0.0,0.0,0.0,0.0,0.0,0.0,0.0,0.0,0.0,0.0,0.0,0.0,0.0,0.0,0.0,0.0,0.0,0.0,0.0,0.0,0.0,0.0,0.0,0.0,0.0,0.0,0.0,0.0,0.0,0.0,0.0,0.0,0.0,0.0,0.0,0.0,0.0,0.0,0.0,0.0,0.0,0.0,0.0,0.0,0.0,0.0,0.0,0.0,0.0,0.0,0.0,0.0,0.0,0.0,0.0,0.0,0.0,0.0,0.0,0.0,0.0,0.0,0.0,0.0,0.0,0.0,0.0,0.0,0.0,0.0,0.0,0.0,0.0,0.0,0.0,0.0,0.0,0.0,0.0,0.0,0.0,0.0,0.0,0.0,0.0,0.0,0.0,0.0,0.0,0.0,0.0,0.0,0.0,0.0,0.0,0.0,0.0,0.0,0.0,0.0,0.0,0.0,0.4359,0.3967,0.3688,0.4359,0.4526,0.4526,0.4526,0.4526,0.4247,0.3576,0.3463,0.3242,0.2573,0.1735,0.1231,0.1231,0.0501,0.0,0.0,0.0,0.0,0.0,0.0,0.0,0.0,0.0,0.0,0.0,0.0,0.0,0.0,0.0,0.0,0.0,0.0,0.0,0.0,0.0,0.0,0.0,0.0,0.0,0.0,0.0,0.0,0.0,0.0,0.0,0.0,0.0,0.0,0.0,0.0,0.0,0.0,0.0,0.0,0.0,0.0,0.0,0.0,0.0,0.0,0.0,0.0,0.0,0.0,0.0,0.0,0.0,0.0,0.0,0.0,0.0,0.0,0.0,0.0,0.0,0.0,0.0,0.0,0.0,0.0,0.0,0.0,0.0,0.0,0.0,0.0,0.0,0.0,0.0,0.0,0.0,0.0,0.0,0.0,0.0,0.0,0.0,0.0,0.0,0.0,0.0,0.0,0.0,0.0,0.0,0.0,0.0,0.0,0.0,0.0,0.0,0.0,0.0]}]]